GFSCGP_500_spd_000.txt.gz
Wind_Speed
58 56 58 49 37 33 34 37 31 33 34 26 24 21 20 18 15 18 18 19 19 23 27 29 26 24 23 21 23 22 24 28 31 33 35 37 38 37 35 33 31 30 31 34
60 57 44 40 40 39 36 34 30 31 30 25 24 19 20 18 17 18 19 20 23 25 23 23 22 22 20 21 23 25 29 33 36 38 37 35 32 30 29 31 32 34 35 37
60 53 46 43 41 37 32 30 27 29 29 24 24 20 21 21 21 20 19 20 20 19 19 22 23 22 21 23 26 29 33 36 37 35 30 28 28 29 31 33 36 38 39 41
57 50 45 43 39 35 31 24 28 29 27 22 24 21 19 21 23 22 20 19 18 17 18 23 24 24 24 25 30 34 35 35 32 29 29 30 31 33 35 37 39 42 46 48
59 49 49 47 37 32 22 26 26 29 26 24 19 22 14 22 25 24 23 20 18 19 20 23 26 27 30 31 32 35 35 31 31 31 32 34 36 37 39 42 45 46 46 46
56 51 45 39 34 27 30 30 26 29 28 28 18 23 13 21 24 23 22 22 21 21 23 24 26 30 34 33 33 34 32 32 33 36 38 38 40 42 43 44 43 44 48 51
53 50 45 39 38 33 33 32 27 27 25 21 21 25 14 21 22 22 22 22 22 23 25 26 29 32 36 36 34 32 33 36 38 40 41 42 42 42 41 43 46 50 53 57
55 54 49 45 37 35 30 29 23 24 23 23 22 22 19 22 24 24 24 22 25 26 27 29 30 33 36 36 33 35 38 40 41 42 42 41 40 41 45 48 52 56 60 64
52 48 42 38 34 34 30 34 28 25 25 24 24 22 21 23 25 27 27 28 30 28 29 27 29 33 35 35 38 39 41 40 40 39 38 40 44 48 53 57 61 65 69 72
44 44 43 37 36 39 38 30 30 29 27 25 23 22 23 25 26 26 27 30 30 29 27 28 32 35 37 38 39 39 38 37 38 39 41 46 49 53 56 60 65 68 71 74
41 39 39 37 38 36 34 32 29 28 28 25 23 24 21 22 24 26 27 27 27 27 27 30 33 35 38 39 35 35 36 38 39 42 45 48 51 56 60 63 67 70 74 76
38 35 36 38 38 38 37 32 30 31 28 24 23 20 19 21 22 23 23 22 24 26 29 32 33 35 37 36 35 36 37 39 42 45 50 54 57 60 63 67 70 73 75 77
34 39 37 37 38 39 33 30 30 28 27 23 23 19 20 20 22 21 21 24 27 29 29 32 35 35 35 36 35 38 40 45 48 52 56 58 62 64 67 70 73 74 77 80
34 37 37 35 26 27 28 25 25 27 27 24 22 18 22 24 22 20 24 26 27 29 31 34 35 34 35 37 39 43 47 52 56 58 59 62 65 69 71 72 75 78 82 86
25 33 31 32 33 33 30 28 30 29 24 26 19 25 28 23 20 24 25 26 29 32 33 34 34 35 39 42 46 50 53 56 58 60 63 66 69 71 73 75 78 82 88 94
26 34 31 29 31 30 31 32 30 29 26 25 24 25 26 24 25 26 26 28 31 32 32 33 36 39 43 47 50 52 54 56 59 62 65 66 69 72 75 79 84 89 94 98
23 30 31 32 31 30 32 31 28 27 27 27 26 24 25 25 25 26 27 31 33 33 35 37 40 44 48 50 51 53 56 59 61 64 67 69 72 75 80 85 90 94 97 98
27 31 34 29 29 33 27 27 27 27 26 26 25 24 21 21 25 28 32 33 34 35 38 41 45 48 50 51 53 56 58 61 64 67 70 72 76 80 85 90 94 96 96 91
28 28 27 26 26 25 25 27 27 27 26 27 28 25 22 25 29 31 33 33 35 39 42 45 47 49 52 54 56 59 62 65 68 70 73 76 80 84 89 93 95 93 86 75
27 28 29 31 30 29 25 26 26 29 30 24 22 22 24 28 32 34 34 36 39 42 45 47 50 52 54 57 60 63 65 66 68 72 75 79 84 88 91 93 89 82 74 72
32 36 33 31 33 34 29 25 29 30 25 22 24 26 30 32 32 34 37 39 42 46 48 51 53 56 59 61 63 65 66 68 71 74 78 83 88 90 91 86 79 72 71 75
19 22 23 22 21 23 19 21 26 25 25 26 27 29 31 32 35 38 40 43 46 49 52 54 57 60 62 63 63 64 67 70 74 78 82 86 88 88 85 80 73 71 73 77
22 23 21 23 22 22 21 21 23 23 24 25 28 30 34 36 39 41 44 47 50 54 57 59 61 63 63 62 63 66 69 72 76 81 84 86 86 85 78 73 71 72 75 80
20 20 20 19 20 21 21 23 24 27 28 30 32 34 37 40 43 46 50 53 56 59 61 63 63 62 60 62 65 68 70 74 79 83 86 86 85 78 72 71 73 74 77 81
19 19 19 22 24 25 26 29 30 31 33 36 38 40 42 45 49 52 55 58 60 63 64 62 59 60 62 65 67 70 74 78 82 86 87 86 80 73 69 70 72 74 77 82
23 26 27 27 28 30 32 33 34 35 37 39 42 45 48 51 54 57 59 62 63 64 60 58 59 61 62 64 69 73 78 82 85 87 86 80 74 70 70 70 70 72 76 80

GFSCGP_500_spd_003.txt.gz
Wind_Speed
66 61 61 53 52 43 35 35 34 34 38 34 33 26 32 23 18 18 17 20 22 24 25 25 27 29 29 25 25 26 23 23 24 26 31 34 39 40 39 36 34 33 34 34
64 62 54 47 46 42 38 37 35 35 34 32 31 24 30 23 20 20 19 19 22 25 26 29 30 24 20 21 22 23 23 24 27 30 34 36 37 35 33 33 34 36 37 39
64 57 50 46 47 44 39 36 32 34 35 32 29 26 29 23 22 21 20 20 22 24 27 27 22 21 16 19 24 27 27 28 30 32 34 34 32 32 34 37 39 40 41 43
61 47 52 45 44 41 37 31 33 34 35 30 27 25 26 22 23 24 23 23 24 23 23 22 22 22 22 21 25 27 30 33 34 35 34 34 34 36 39 41 42 43 45 45
55 50 48 47 37 37 33 33 35 33 31 28 25 26 23 25 24 26 26 27 26 24 23 21 22 24 24 24 26 28 31 33 35 34 34 35 38 41 42 42 43 42 43 44
47 46 46 41 38 36 35 35 33 28 29 27 21 24 26 22 21 26 28 27 27 26 23 23 23 25 27 28 29 30 31 33 35 35 36 38 40 40 41 41 41 41 44 47
45 50 43 40 39 38 38 35 31 27 27 22 22 25 19 20 20 24 27 27 24 25 25 25 26 28 31 30 29 31 33 35 35 37 38 38 39 38 37 38 42 45 48 50
54 48 47 46 44 44 40 34 30 27 24 24 20 23 19 21 23 23 25 23 21 24 25 26 28 30 30 30 30 32 34 35 37 37 35 35 35 37 40 43 45 48 51 54
52 49 49 45 36 38 37 36 31 26 23 23 20 19 23 20 22 24 26 25 25 28 28 28 29 30 30 31 32 33 35 36 34 33 34 36 38 41 43 46 51 54 58 62
48 47 49 47 41 37 41 32 33 30 25 19 19 17 23 24 24 25 25 27 30 30 27 27 29 32 33 32 33 35 34 34 34 35 37 39 41 45 49 54 57 61 65 69
46 44 44 43 42 35 32 34 31 28 27 22 22 19 20 23 24 25 27 28 28 26 25 28 30 31 31 34 35 34 34 34 35 36 39 43 47 52 56 58 61 64 68 71
40 43 44 40 37 34 34 32 32 30 28 25 23 19 20 22 23 24 26 24 22 23 24 27 29 30 33 35 35 34 33 34 37 41 46 50 53 56 59 62 65 69 70 71
35 37 41 43 44 40 37 35 35 29 26 27 27 21 20 22 22 22 21 20 21 22 24 27 29 31 32 33 33 33 35 39 43 48 51 53 56 59 62 65 66 67 69 73
33 35 33 33 32 31 31 29 28 29 30 26 22 19 19 23 25 23 20 21 23 24 26 28 29 30 30 31 34 37 40 44 48 52 54 56 59 61 62 64 66 70 75 79
31 34 35 35 33 35 36 36 34 32 26 27 17 23 26 26 23 22 23 23 24 26 28 29 28 28 30 34 38 42 45 49 51 54 57 59 60 63 65 67 71 75 79 82
25 27 31 34 36 34 33 34 35 33 31 27 23 23 23 24 24 23 24 25 27 29 29 29 30 33 36 39 42 46 49 52 54 56 58 60 63 65 68 72 75 78 82 86
19 19 22 28 30 33 36 31 32 30 27 26 25 20 26 25 24 25 26 28 29 28 29 31 33 36 39 42 45 48 52 55 56 59 61 63 65 68 71 75 78 81 85 87
21 19 20 29 29 31 27 26 27 27 27 26 24 24 26 25 25 26 26 26 27 28 32 33 36 38 41 45 49 52 54 57 59 62 64 65 68 71 74 78 80 84 86 89
28 27 25 30 29 25 24 22 23 24 25 26 25 25 27 28 26 27 26 28 30 32 33 35 38 41 45 49 52 54 56 59 62 64 65 68 70 73 76 79 82 85 87 90
31 24 25 26 30 28 21 19 19 22 24 24 25 29 31 33 29 26 28 31 32 33 34 37 42 46 49 52 55 58 60 62 63 65 67 69 72 74 78 82 83 86 88 87
26 23 23 30 28 25 24 22 24 23 23 29 30 31 26 22 25 29 32 33 33 35 38 42 46 50 53 56 59 61 63 63 65 67 69 71 73 77 81 82 85 86 88 83
21 21 19 21 24 25 24 28 29 30 27 25 25 24 26 29 31 33 33 34 37 39 44 47 51 53 57 61 63 65 65 65 66 68 69 72 76 80 81 84 86 87 84 78
19 21 20 27 26 21 18 21 21 23 27 26 27 28 28 28 30 32 34 38 41 45 49 51 54 58 63 65 66 66 64 65 67 68 70 74 78 80 84 87 88 83 79 74
19 19 21 21 22 22 21 21 23 24 24 24 24 26 27 30 33 36 40 44 47 49 52 55 59 64 66 67 66 64 65 66 66 68 72 76 78 82 86 87 84 79 74 69
19 18 18 19 21 23 24 24 25 26 26 26 28 30 33 35 39 42 45 48 50 53 56 60 65 67 69 67 65 65 64 65 68 72 75 78 81 86 86 83 79 74 68 69
23 23 24 23 23 24 25 27 29 30 31 33 35 37 39 41 43 46 48 51 53 56 61 66 69 70 66 63 63 63 65 68 71 74 77 82 86 87 85 81 72 67 66 67

GFSCGP_500_spd_006.txt.gz
Wind_Speed
64 68 71 66 61 58 55 44 41 37 40 40 39 31 31 32 27 24 23 21 27 30 28 27 27 27 28 30 32 31 25 25 26 26 26 29 31 34 37 37 36 35 36 37
57 66 64 59 56 55 52 47 41 41 39 37 38 29 33 34 27 26 26 24 27 28 29 28 27 28 31 32 33 24 22 24 25 26 28 31 33 35 36 35 35 36 38 40
50 63 64 52 56 50 53 46 43 37 35 36 33 28 32 33 29 30 27 27 25 25 25 26 27 29 31 30 25 21 20 25 27 28 30 31 32 32 34 35 37 39 40 40
49 59 60 59 53 48 48 45 43 36 35 36 33 30 30 31 29 30 29 28 26 26 25 25 28 30 28 26 27 27 28 29 29 30 32 33 33 34 35 37 38 39 40 41
47 59 52 52 50 43 45 46 40 36 37 34 30 27 28 33 30 29 29 29 28 27 27 27 28 27 27 27 27 28 29 29 30 31 34 35 34 35 37 37 38 39 39 41
51 53 50 50 42 42 49 45 40 36 35 31 28 27 29 32 30 30 30 30 29 28 30 31 28 28 27 27 27 29 30 30 31 33 34 34 35 36 36 36 38 39 41 44
57 42 53 50 42 44 49 43 37 35 35 27 27 28 25 33 30 30 29 30 30 29 29 31 31 30 27 28 29 29 30 32 33 34 34 35 35 35 36 37 40 42 44 46
50 41 51 59 44 45 48 43 39 35 29 27 28 28 26 28 31 29 27 25 26 28 29 30 29 29 28 29 29 30 32 33 35 34 34 34 34 35 37 39 41 44 48 52
45 54 33 51 51 41 42 42 40 34 28 28 26 27 24 26 27 27 25 24 24 26 29 29 30 29 29 30 30 31 32 34 34 34 33 34 35 36 38 42 46 51 52 55
30 41 46 47 46 41 39 37 38 33 28 26 23 26 25 24 24 25 22 24 24 27 29 31 31 30 30 30 30 30 31 33 32 32 34 35 37 39 44 48 50 54 57 60
37 48 49 40 41 46 45 42 38 32 31 29 22 23 23 22 21 22 24 26 28 30 32 30 29 28 28 28 28 30 30 30 31 33 35 38 41 45 49 51 55 58 61 63
38 36 46 46 41 34 38 40 31 36 33 28 25 23 22 22 21 22 24 25 27 30 29 27 24 25 26 27 29 29 30 31 33 36 38 42 46 49 52 56 59 61 64 67
39 42 42 42 45 46 45 30 28 27 27 30 30 25 22 22 23 22 20 22 26 26 24 23 23 25 28 28 28 30 31 34 36 40 43 46 50 54 57 59 62 64 66 69
40 38 39 38 36 36 29 31 29 29 32 27 26 25 25 25 25 22 24 24 21 22 23 23 25 27 28 28 29 31 34 38 41 44 48 51 55 57 60 62 65 67 69 71
32 34 34 35 35 37 38 37 38 35 32 31 24 26 26 27 24 25 25 24 25 24 25 25 27 29 27 28 32 35 38 41 44 48 52 55 58 60 63 65 67 69 71 74
29 29 30 30 34 37 40 40 39 37 36 31 32 23 25 26 25 27 26 25 25 26 27 28 29 28 30 33 35 38 40 44 48 52 55 59 62 64 65 67 69 71 74 77
25 29 32 33 34 36 37 40 38 37 35 32 31 20 28 27 27 26 25 26 28 30 31 30 29 31 33 36 37 40 44 48 52 56 59 62 65 66 67 68 70 73 76 77
19 23 29 31 36 38 33 34 36 38 36 34 28 23 26 26 26 26 27 29 31 31 30 29 31 33 35 36 39 43 48 52 56 60 63 66 67 67 67 69 73 75 77 80
23 19 18 20 25 27 28 29 30 28 24 26 25 26 27 27 27 28 30 31 30 30 30 31 33 35 36 39 43 47 52 56 60 64 67 68 66 66 68 72 74 76 78 81
25 24 19 26 16 18 19 22 25 26 21 22 23 25 26 27 29 30 32 34 33 31 30 33 35 36 39 43 47 52 56 60 65 67 67 65 65 68 71 73 75 77 81 85
25 32 24 21 20 21 26 23 24 25 20 19 22 25 28 30 32 30 28 30 30 30 34 35 36 39 43 48 52 57 60 64 68 68 66 66 68 70 72 73 75 79 84 89
22 26 24 22 24 23 26 29 26 25 25 26 26 27 28 32 35 32 29 30 32 34 34 36 40 44 48 53 57 60 64 69 68 65 65 68 69 70 71 73 77 82 89 91
28 25 22 23 24 21 17 19 20 26 29 31 33 33 29 29 28 28 29 30 31 33 36 41 45 49 53 57 60 63 68 67 63 63 65 66 68 70 73 77 82 88 92 93
19 19 15 18 16 17 17 17 18 22 24 26 27 27 27 27 27 28 30 32 35 38 42 46 50 54 57 59 63 68 64 60 60 61 63 66 70 74 78 83 88 93 94 92
13 16 16 16 16 18 20 20 20 22 23 25 26 28 29 29 30 32 34 37 41 44 47 50 53 56 59 63 62 57 57 57 58 62 66 71 74 78 83 89 93 93 91 87
17 18 17 15 17 19 19 21 23 25 26 27 28 29 31 33 34 37 39 42 45 47 50 52 55 58 59 54 53 53 54 57 61 66 71 76 80 85 90 92 91 90 85 77

GFSCGP_500_spd_009.txt.gz
Wind_Speed
55 61 60 67 60 60 54 57 57 52 49 47 42 40 39 39 35 29 27 29 27 27 29 34 33 30 30 31 30 31 32 34 37 32 27 27 28 32 34 36 37 36 34 34
60 69 68 58 61 61 56 58 52 49 52 45 41 41 37 38 36 31 28 28 27 27 30 34 32 31 30 30 32 32 34 36 33 28 29 31 33 34 37 38 37 37 36 35
45 45 49 64 64 58 57 58 52 51 52 43 43 39 35 34 38 31 30 31 29 28 28 32 33 33 32 32 32 33 36 32 21 27 31 33 34 36 37 37 37 36 37 38
42 39 51 57 63 57 56 53 47 54 50 42 43 37 37 36 35 33 30 31 30 29 29 30 31 30 30 30 32 34 33 30 32 33 33 34 35 37 38 39 37 37 38 39
34 39 49 56 56 53 47 37 50 53 47 44 42 38 30 34 34 32 29 31 31 29 29 31 30 30 29 30 32 30 30 30 31 32 34 35 36 37 37 37 37 39 39 40
36 36 43 56 56 56 51 48 48 48 50 44 38 33 32 32 35 33 30 29 29 29 30 31 31 31 30 32 31 29 29 30 32 34 35 36 38 37 37 37 38 39 40 41
25 40 52 56 54 54 48 51 52 48 48 40 38 34 27 35 32 31 29 29 29 30 32 32 32 31 32 32 30 29 30 32 34 35 36 37 37 37 36 37 38 40 41 43
34 51 52 55 64 48 53 55 45 48 46 38 31 31 32 30 29 31 26 28 28 30 31 32 33 34 34 33 32 31 32 33 35 36 37 37 37 36 36 37 40 41 44 48
45 48 50 48 52 44 54 36 46 45 41 35 33 29 28 29 29 27 28 25 29 29 29 31 33 33 32 31 31 32 33 35 36 36 36 36 35 35 37 39 42 45 48 51
49 44 48 41 51 51 47 46 43 42 37 30 30 28 29 26 26 27 26 28 31 31 30 28 30 31 32 33 33 33 34 33 33 34 34 34 34 37 40 42 46 48 51 54
26 43 49 31 58 46 48 44 41 39 37 28 22 25 26 23 25 24 24 27 28 28 27 30 31 32 32 32 33 32 30 30 32 32 33 35 37 40 43 46 49 52 55 59
25 16 35 51 50 50 26 40 38 35 34 32 27 26 24 21 20 20 24 27 28 28 30 31 32 32 31 30 29 29 30 31 32 32 34 38 41 43 46 50 53 57 60 63
18 22 31 43 40 39 44 32 33 34 33 33 30 28 23 19 22 23 22 23 25 27 29 29 28 27 26 27 29 30 31 32 33 35 39 42 44 46 50 53 58 61 65 68
27 26 29 36 30 32 31 34 34 33 34 35 33 29 26 26 26 23 22 24 26 27 26 25 25 26 27 30 31 32 32 34 36 40 42 44 47 51 54 59 63 67 69 71
29 33 36 35 33 36 33 29 32 37 25 26 27 28 28 28 25 24 24 27 28 28 27 26 28 29 30 32 33 33 35 37 39 41 43 47 51 55 60 64 68 70 72 71
25 24 26 27 27 29 34 35 33 31 28 28 27 26 25 27 28 26 26 28 28 27 26 27 29 31 33 34 34 36 37 38 40 43 47 51 56 60 65 69 72 73 70 70
25 27 28 29 29 31 34 34 36 31 31 31 27 26 35 30 31 30 27 27 26 26 28 30 33 34 34 34 36 37 38 39 43 47 51 55 61 66 70 73 72 69 68 69
20 23 25 30 30 30 31 31 33 34 35 35 31 32 33 32 31 29 27 27 26 28 30 33 35 35 36 37 37 36 39 42 47 50 55 60 66 70 73 71 67 67 67 69
21 21 22 28 29 29 28 28 31 33 33 38 36 35 34 33 30 29 28 27 29 31 33 34 35 37 36 36 36 38 42 46 50 55 60 65 69 73 68 64 64 66 69 73
26 23 21 22 23 22 22 24 29 31 26 27 26 26 27 29 32 31 29 30 31 31 33 37 39 37 37 35 39 42 46 50 55 60 65 69 72 63 60 61 65 69 74 79
24 21 19 21 17 15 16 20 23 25 22 24 25 26 27 31 30 28 30 31 33 33 33 33 33 32 37 39 42 46 50 55 60 65 68 68 59 58 59 64 70 75 80 85
24 22 21 22 23 19 18 22 22 20 24 26 24 24 24 25 27 28 29 32 36 36 31 32 35 37 38 42 46 51 55 60 64 67 62 56 55 58 63 69 76 82 86 89
31 29 23 26 19 19 18 21 25 25 26 27 27 27 28 29 30 31 29 31 30 29 31 34 36 38 42 47 50 55 60 63 65 56 53 54 57 62 67 73 80 86 90 94
28 24 24 25 20 21 22 20 19 20 20 21 24 28 27 25 26 29 30 30 30 31 33 36 38 43 47 50 55 59 62 59 52 51 53 56 60 66 70 77 85 90 95 100
25 24 24 19 18 16 17 18 17 17 18 19 20 23 25 26 27 29 30 31 32 34 36 40 44 47 50 54 57 58 51 49 50 52 55 61 67 70 76 83 91 94 101 99
16 15 12 12 13 13 15 16 16 17 18 20 22 24 26 27 29 31 32 34 36 39 41 43 46 49 52 55 51 47 47 49 52 55 61 67 72 76 83 89 92 98 100 91

GFSCGP_500_spd_012.txt.gz
Wind_Speed
50 53 53 50 48 46 48 51 51 50 51 51 51 45 43 41 40 38 33 33 28 31 28 29 28 30 33 30 28 27 28 30 31 33 34 38 32 31 31 32 34 37 38 40
52 54 46 46 47 48 47 50 49 48 48 51 51 46 46 41 41 38 35 34 31 29 30 29 28 30 30 29 30 29 29 32 33 34 35 34 31 33 33 35 36 38 39 41
51 45 49 50 47 48 51 49 46 48 38 48 52 49 47 41 39 37 36 32 33 28 29 26 28 29 30 30 30 30 31 32 35 38 37 29 31 37 37 37 39 40 41 39
49 46 50 54 57 55 53 47 49 39 41 50 50 50 45 40 41 38 35 35 32 31 30 26 28 27 29 31 31 31 31 33 37 36 31 31 36 37 37 38 40 41 40 40
42 41 45 52 55 61 61 47 47 55 36 45 45 48 43 47 42 36 34 33 32 30 30 28 28 27 26 27 28 29 31 33 34 33 33 35 37 38 38 40 40 40 39 39
34 34 38 36 39 51 59 56 46 51 47 49 40 35 44 46 36 33 34 34 31 27 29 29 28 27 25 27 28 29 31 34 35 35 36 37 38 39 39 40 41 40 39 38
29 28 29 36 38 49 58 52 53 39 43 48 46 43 36 40 36 32 30 32 28 26 29 29 28 27 26 28 29 31 33 36 37 37 38 37 39 39 39 40 39 39 39 40
25 30 33 34 45 53 59 57 51 56 59 56 47 47 41 39 29 28 29 29 26 26 28 26 26 27 27 30 32 33 34 36 37 38 37 38 39 38 38 38 38 39 41 43
13 15 28 36 42 56 63 64 24 25 28 43 48 40 38 33 27 27 25 24 23 26 26 24 23 26 27 30 31 32 32 34 36 37 38 38 37 36 37 37 39 41 43 46
9 12 18 35 51 58 55 41 36 36 39 31 36 37 37 29 25 24 22 20 22 24 24 25 25 24 26 28 30 31 32 35 36 35 35 34 35 35 36 39 41 43 45 48
15 19 29 41 49 44 29 48 47 29 33 32 41 35 30 26 21 22 21 22 24 24 27 29 26 26 28 29 29 31 33 34 33 32 33 35 35 36 38 41 44 45 49 52
21 31 33 42 55 40 31 40 45 47 29 30 32 28 25 23 19 20 22 23 24 25 25 26 26 28 30 30 31 32 32 31 31 33 34 35 36 38 42 43 45 49 53 58
26 19 32 32 40 35 34 38 43 32 32 28 27 25 22 22 20 21 21 22 22 24 25 26 27 29 30 30 30 29 29 30 33 34 35 37 39 41 43 46 49 54 58 63
7 23 10 25 24 35 40 37 30 32 31 29 26 24 22 20 20 20 18 18 19 21 24 26 27 29 29 27 27 29 30 33 35 36 37 39 40 42 46 50 54 59 63 68
17 7 12 14 32 29 23 20 26 32 27 28 27 28 27 24 24 24 22 20 21 22 25 27 28 28 28 28 29 31 33 36 37 38 40 40 41 46 50 55 59 64 68 72
16 21 20 22 29 27 25 26 28 30 30 29 25 26 29 29 25 23 24 22 23 26 27 27 27 27 28 29 32 35 37 37 38 39 38 41 45 50 55 59 64 68 72 66
7 12 17 20 18 16 19 21 22 21 20 27 22 18 23 25 25 25 24 22 23 23 25 26 27 28 30 32 35 36 36 37 38 38 40 45 50 54 59 63 68 72 65 59
12 16 17 19 19 20 19 20 22 25 26 24 24 25 29 25 25 26 27 26 24 23 25 27 29 31 32 34 35 36 37 38 41 39 44 49 55 58 63 68 72 63 59 60
20 14 11 15 20 20 20 21 23 25 25 29 29 30 33 28 25 26 27 26 26 26 27 29 30 32 33 35 37 40 41 39 40 44 49 54 58 62 67 71 62 58 60 65
21 20 20 21 20 18 19 19 19 22 24 27 30 32 32 29 30 26 28 27 28 29 29 30 31 32 34 37 36 33 38 41 44 49 53 57 61 66 69 61 58 60 66 71
24 22 21 18 16 17 15 18 18 18 20 24 25 25 25 26 26 25 28 30 29 28 29 32 33 34 35 33 34 38 40 44 48 53 56 60 66 65 59 59 60 65 71 75
18 18 18 17 12 11 15 16 12 14 17 23 25 25 24 25 26 27 25 26 26 26 26 28 28 29 31 34 37 39 43 48 51 55 60 64 60 57 57 59 65 70 75 79
20 19 18 16 13 15 7 18 15 17 18 20 24 24 24 24 24 25 25 28 28 29 29 30 31 33 34 36 39 44 48 50 55 58 60 54 55 56 58 64 70 75 81 86
20 20 21 22 17 20 16 14 14 14 18 22 23 25 27 28 28 29 27 25 26 28 29 30 32 34 37 40 44 47 49 53 57 54 51 52 54 57 63 69 75 80 85 89
27 27 21 18 18 19 19 18 19 17 15 14 15 15 16 18 19 21 24 25 27 29 30 33 35 38 41 43 45 48 52 54 48 49 50 52 56 61 67 73 79 84 89 94
20 21 22 15 19 19 16 12 10 10 12 16 16 16 18 20 21 23 25 27 29 31 34 36 37 39 42 44 48 52 47 45 46 48 51 55 60 66 72 77 82 87 91 95

GFSCGP_500_spd_015.txt.gz
Wind_Speed
45 49 53 47 44 45 46 48 51 50 51 51 51 48 41 40 45 45 40 36 33 26 29 30 28 26 26 27 27 27 29 25 25 27 29 31 32 33 35 31 31 32 36 37
52 54 44 43 45 47 47 49 49 48 47 48 51 51 40 46 45 42 40 38 35 28 28 29 29 26 28 27 27 27 28 28 28 29 31 33 35 37 32 29 32 37 41 39
49 49 39 43 45 46 47 48 44 46 41 44 46 52 43 47 45 41 41 39 36 29 29 26 29 28 29 28 27 27 28 29 31 31 33 34 36 32 29 32 37 39 40 41
46 44 45 45 45 45 48 41 41 41 41 44 40 50 43 46 41 41 41 42 35 28 30 28 25 28 28 26 27 27 27 29 30 32 33 33 31 30 30 33 36 39 41 42
43 42 40 44 36 43 40 42 41 40 40 42 41 41 44 43 45 46 42 39 34 29 29 30 28 29 27 26 26 25 26 28 29 31 32 32 32 33 34 36 39 39 41 42
42 45 46 41 42 47 40 46 44 37 39 46 42 48 42 40 43 43 38 39 33 28 28 31 30 30 27 26 25 25 25 27 29 31 33 34 35 36 36 37 38 38 39 39
41 41 39 38 40 43 50 50 49 47 44 49 40 45 44 41 42 39 38 36 29 27 27 29 30 30 27 27 27 27 28 29 31 32 33 35 36 37 37 38 39 38 38 39
33 32 33 30 36 41 45 51 53 52 52 47 37 47 26 33 44 39 36 34 27 27 27 28 27 26 26 27 28 29 30 31 32 33 34 35 35 37 37 37 36 38 39 39
31 21 25 27 28 31 38 52 47 51 48 34 46 46 40 40 22 25 28 28 25 25 26 26 24 25 24 26 28 30 31 31 32 32 33 35 36 36 35 35 37 38 40 42
18 18 16 12 23 37 42 40 57 55 52 42 27 26 30 28 24 21 22 20 23 23 22 22 22 23 22 23 26 27 28 28 30 31 33 35 34 33 35 37 38 39 42 44
10 14 10 16 21 26 45 56 56 52 39 45 46 35 33 30 22 20 19 20 20 18 19 20 20 21 23 24 25 26 28 29 31 33 33 32 32 34 37 38 40 42 43 46
5 2 5 20 18 27 37 55 69 57 26 20 30 30 35 31 23 18 18 20 20 19 18 19 21 24 25 26 26 29 30 31 32 31 29 31 35 37 38 40 42 43 45 50
15 9 8 16 25 34 42 47 52 39 23 36 35 27 25 26 24 22 19 20 19 19 19 20 22 25 26 26 27 29 29 30 29 29 31 35 37 38 40 42 42 46 49 54
11 15 10 24 36 38 37 40 41 26 18 25 21 24 27 24 20 18 18 17 16 16 16 16 18 21 22 24 25 26 27 29 30 32 35 37 38 39 41 42 46 50 54 59
11 13 14 35 37 27 30 25 32 20 18 19 23 20 18 18 18 17 17 16 15 14 15 16 19 21 23 25 25 27 28 31 33 34 37 38 39 40 42 45 50 54 59 63
9 21 23 25 11 20 14 22 19 16 22 22 19 16 18 19 18 17 16 16 16 17 17 19 21 22 24 24 26 28 30 32 34 36 38 39 41 43 44 50 53 59 63 67
8 11 17 20 13 12 9 8 11 13 24 21 17 17 17 21 22 18 16 16 18 17 18 18 20 21 23 25 27 29 32 34 36 38 40 43 45 44 48 53 58 61 65 68
9 13 16 17 15 15 12 15 17 21 17 16 22 24 20 18 18 17 17 19 22 22 20 20 21 22 24 26 29 31 33 35 38 40 40 41 45 48 53 57 60 64 64 60
7 8 11 13 12 13 14 14 15 17 20 22 22 24 23 18 18 17 17 18 19 20 21 23 24 25 26 28 30 32 35 37 37 37 41 44 48 52 55 59 62 60 57 58
10 10 7 6 6 10 11 13 15 17 20 20 22 24 23 22 22 21 21 21 21 22 24 25 25 26 28 30 32 34 36 36 38 38 43 47 51 53 58 60 56 55 57 61
10 9 8 7 7 12 14 15 14 14 16 19 22 21 22 22 24 23 20 21 23 24 23 23 24 25 25 27 29 32 34 36 39 43 46 50 52 56 57 53 54 56 60 65
16 15 8 6 8 12 12 15 14 14 15 16 18 20 20 20 20 20 20 19 19 20 21 23 25 27 29 30 32 35 37 39 42 46 49 51 54 52 51 52 56 60 63 69
15 12 11 11 12 10 8 13 10 10 13 17 18 18 19 19 19 20 20 20 21 22 25 28 28 29 31 33 34 36 39 42 45 47 49 51 48 49 51 54 59 63 68 75
15 15 14 16 14 12 15 7 13 14 12 12 13 14 16 18 19 21 22 23 25 26 25 27 28 31 31 34 37 39 41 42 44 48 47 46 47 50 53 58 62 68 74 80
17 17 15 12 14 16 17 15 11 12 11 12 13 16 17 16 15 15 16 18 21 24 25 27 29 31 33 35 36 37 40 44 45 43 44 45 48 52 56 61 67 73 79 87
23 22 21 21 17 17 18 15 14 12 13 14 14 13 13 13 14 16 18 20 22 24 26 28 29 30 32 33 36 40 42 41 41 42 44 47 51 54 59 66 72 80 86 89

GFSCGP_500_spd_018.txt.gz
Wind_Speed
42 46 49 46 47 49 49 48 49 50 53 53 54 53 53 48 44 44 47 41 42 36 32 30 27 32 29 28 28 26 24 25 29 26 25 25 26 30 29 32 34 33 29 31
48 45 43 46 48 49 49 50 49 51 52 55 53 54 55 53 46 46 50 43 43 39 33 30 27 29 31 29 28 27 26 26 28 29 28 27 30 30 31 33 33 30 31 35
45 44 47 49 51 53 53 52 49 49 46 51 53 57 58 53 49 48 50 47 44 40 36 29 28 28 31 30 28 29 27 27 27 28 29 31 31 31 31 31 29 31 33 36
48 47 48 48 50 48 49 44 43 45 46 50 48 55 56 51 48 51 48 48 45 40 35 29 29 29 30 32 30 29 28 27 28 30 30 31 31 30 31 32 32 34 36 39
45 43 45 48 40 42 43 41 43 44 45 48 45 52 49 48 51 52 45 46 42 38 33 29 32 31 28 29 29 27 27 27 29 31 31 31 29 31 33 33 35 37 38 40
45 47 48 46 43 45 44 43 44 44 44 52 44 50 52 42 49 49 43 44 38 35 32 29 31 30 29 29 29 27 28 27 29 31 31 29 30 32 34 36 37 38 40 41
43 43 43 42 41 41 43 43 46 48 49 55 44 47 48 41 44 43 45 43 35 33 29 28 32 31 31 30 30 30 28 28 29 31 31 31 33 34 36 36 37 39 40 39
39 39 38 35 36 40 40 41 45 46 48 44 43 51 45 41 36 40 43 43 34 30 28 28 31 32 31 31 31 29 29 29 31 32 32 33 35 36 35 37 38 39 37 38
22 25 27 35 31 30 30 37 33 41 43 43 43 46 40 34 39 39 36 40 33 26 28 30 31 29 29 29 28 29 29 29 32 33 34 35 35 35 37 38 38 37 38 40
20 25 28 33 35 36 35 31 39 42 42 43 48 46 39 26 30 35 38 28 26 28 28 28 29 29 28 27 26 27 28 30 31 31 33 34 34 36 37 37 36 38 40 43
10 16 19 27 28 29 35 37 38 41 43 45 40 36 36 36 28 17 23 22 22 27 28 26 28 26 25 25 25 24 24 27 29 31 33 34 35 35 35 36 38 41 43 45
13 17 15 18 20 25 33 37 36 44 45 46 30 24 25 22 19 23 22 24 24 23 24 27 26 24 23 22 24 25 27 29 30 32 33 34 34 33 35 38 41 43 45 48
8 8 5 7 10 12 23 29 36 38 43 38 30 36 29 16 21 22 22 22 23 23 23 22 19 19 21 23 25 26 28 30 31 32 32 31 32 35 37 41 43 45 47 50
12 3 13 5 3 4 7 27 37 42 46 32 31 20 22 22 26 23 21 20 20 19 18 17 18 20 22 24 24 25 26 27 29 29 31 32 35 37 40 43 45 47 49 51
9 13 20 5 5 8 14 22 41 50 47 16 19 22 17 24 28 26 23 20 17 16 17 18 19 20 19 20 21 22 24 25 28 31 32 35 37 39 42 45 47 49 50 53
17 19 9 11 21 19 23 34 41 38 27 11 26 29 32 26 22 22 20 18 17 15 14 15 17 18 18 19 20 23 25 28 30 32 34 36 39 42 44 46 47 49 52 57
9 21 12 13 11 24 26 23 19 19 15 24 24 21 20 20 20 18 18 18 17 17 18 18 18 17 17 19 22 24 26 28 31 33 35 38 41 44 44 45 46 52 55 60
12 19 22 21 11 10 11 19 15 16 17 15 17 19 19 19 18 19 18 16 18 19 19 18 18 17 18 21 23 25 27 29 32 35 38 41 41 43 44 47 51 55 59 62
12 14 16 14 12 13 14 16 16 20 17 18 22 21 20 17 14 16 16 16 18 19 17 18 18 19 22 23 24 26 28 31 35 37 40 42 41 43 48 51 55 57 61 58
7 8 6 6 8 8 8 9 9 11 13 12 14 14 15 16 17 17 16 18 18 16 17 19 21 22 23 25 26 27 30 32 33 35 38 41 44 46 51 54 55 59 53 54
6 6 5 5 4 7 8 9 11 13 14 17 18 19 18 18 19 18 16 16 17 18 20 22 21 21 23 25 26 28 31 33 36 38 41 43 46 50 52 54 54 51 53 57
11 9 7 6 5 4 6 11 13 13 13 13 15 17 18 18 17 17 17 17 18 19 18 18 19 20 23 26 30 32 33 36 38 39 43 46 48 50 52 49 50 52 55 58
18 13 13 11 5 5 5 6 9 10 11 13 14 15 16 16 16 15 15 15 16 16 16 17 21 25 25 28 30 33 35 37 40 42 44 46 49 49 47 49 51 54 57 63
11 14 11 9 8 8 8 5 10 10 9 8 9 10 11 12 13 13 14 15 17 19 21 23 23 25 28 30 32 34 37 38 40 42 45 46 45 46 48 50 53 57 63 69
15 15 13 13 11 12 12 11 9 8 12 10 11 14 15 14 14 15 16 15 15 16 19 22 25 27 29 32 33 34 36 37 41 43 43 43 44 46 49 52 56 63 71 76
15 17 15 14 12 11 15 16 14 14 13 16 15 13 12 12 12 12 12 14 16 19 22 24 26 28 29 30 32 33 36 39 41 41 42 43 44 47 50 54 63 70 75 80

GFSCGP_500_spd_021.txt.gz
Wind_Speed
41 42 42 37 37 41 49 54 53 53 53 52 52 53 50 47 47 46 41 41 43 43 41 39 34 32 29 32 30 28 28 26 26 27 30 29 26 25 27 27 29 31 32 34
44 43 43 44 45 46 48 52 55 54 52 57 55 55 54 53 51 49 46 42 45 44 41 42 35 33 31 33 33 29 28 28 26 28 31 31 29 29 29 30 31 32 33 32
42 42 44 48 48 47 46 48 52 53 52 56 59 56 54 53 53 51 50 47 47 46 43 43 37 35 32 32 34 33 30 27 27 27 28 30 32 32 32 33 34 33 34 32
48 46 46 46 46 46 47 48 52 54 56 57 57 60 53 53 51 49 49 49 49 49 43 42 41 35 33 32 30 32 32 29 27 29 28 29 30 32 33 34 34 36 35 35
49 49 49 52 50 51 52 50 53 55 57 59 58 65 56 54 53 52 54 53 53 51 41 41 39 36 35 33 31 31 32 30 27 28 29 30 31 33 35 36 36 37 37 39
49 50 52 49 48 50 49 50 51 53 55 63 57 59 57 51 49 50 52 51 52 49 40 41 40 38 34 34 32 30 30 28 26 28 30 30 32 35 35 36 38 39 41 41
51 49 50 50 49 50 49 46 48 51 56 65 59 58 57 47 42 48 46 46 50 48 41 39 39 36 35 34 33 32 31 29 28 29 30 30 32 33 35 38 40 41 42 41
50 49 46 43 44 42 43 40 43 47 53 57 52 63 52 42 38 40 39 45 49 46 40 41 38 36 37 34 34 33 32 29 30 30 31 31 33 34 37 40 41 41 41 43
30 26 21 28 34 39 37 38 33 40 46 49 48 48 48 37 36 36 40 40 47 43 39 41 37 35 36 33 34 33 32 30 29 30 32 33 35 37 39 40 39 41 42 42
15 18 21 24 26 30 31 33 32 34 35 39 33 40 36 32 32 34 35 36 40 41 39 35 37 34 32 33 34 32 30 30 30 31 33 34 36 37 37 37 40 42 41 41
16 20 18 25 25 27 34 38 42 40 38 35 33 37 34 28 28 31 37 33 33 33 35 37 37 34 33 33 30 30 30 28 30 31 31 32 35 36 37 39 40 39 41 43
21 24 22 21 27 27 33 34 33 37 38 37 32 30 29 28 33 30 36 38 33 37 41 39 35 32 31 30 31 29 28 28 28 28 31 34 35 36 37 37 38 40 42 45
21 24 27 19 19 21 38 32 36 33 34 38 35 18 26 23 36 33 35 33 33 35 36 35 34 31 29 28 27 27 26 27 28 30 32 34 35 35 35 37 39 41 44 47
24 24 24 25 25 16 8 19 26 28 35 33 34 19 24 27 24 24 34 34 32 31 27 28 29 25 25 25 25 26 26 27 29 31 32 33 33 34 36 38 40 43 46 49
16 21 26 18 9 12 9 3 11 18 19 29 24 22 19 26 25 27 22 25 28 27 26 25 23 22 22 22 22 23 24 26 27 29 31 31 33 34 37 40 43 46 49 52
14 23 19 11 8 6 5 5 20 27 27 26 27 19 31 26 23 25 24 18 20 22 22 21 19 19 19 19 21 22 23 25 27 28 30 31 33 36 39 42 46 49 51 51
12 16 15 5 1 4 16 22 18 24 27 12 14 23 39 31 28 26 22 20 20 19 18 18 18 17 18 19 20 21 22 24 26 28 30 33 36 39 42 45 48 48 49 54
12 13 9 10 8 7 4 8 8 10 8 11 21 34 28 27 27 27 24 20 18 17 16 16 15 16 16 17 18 20 23 25 27 30 32 35 38 41 43 44 46 51 52 56
9 14 10 10 12 11 10 16 17 21 21 21 29 28 24 21 16 15 14 14 16 18 18 18 18 17 17 19 20 22 24 27 30 31 34 36 39 41 44 48 49 52 56 59
6 5 7 7 11 9 10 11 13 16 18 19 18 18 20 19 14 14 17 16 17 19 19 19 18 19 20 22 23 24 27 29 30 32 35 39 41 44 46 48 51 54 57 60
6 6 7 5 4 7 3 2 4 4 11 13 14 15 17 13 11 14 18 17 15 14 15 17 20 22 23 22 24 26 27 29 32 36 38 41 43 44 47 50 52 56 56 55
6 5 5 3 3 2 3 4 3 3 2 1 5 8 10 13 15 15 15 15 16 19 21 23 22 20 20 22 23 26 29 31 33 37 39 40 43 46 48 51 54 52 53 55
14 10 8 6 4 3 4 7 9 8 7 8 8 10 13 14 15 15 16 17 17 17 17 17 17 18 20 23 26 27 30 32 35 37 39 41 43 47 50 50 50 51 53 55
19 16 15 10 8 5 6 7 9 11 9 7 8 9 11 13 14 15 15 15 16 16 16 17 19 22 24 24 26 29 32 34 36 37 39 41 46 47 47 47 48 51 54 58
19 17 17 16 14 12 10 9 7 8 8 8 8 9 10 11 12 13 13 14 15 16 18 18 18 21 23 26 28 30 32 33 35 37 41 44 44 45 45 47 50 54 59 64
20 22 23 18 13 11 11 11 10 8 7 9 9 10 11 13 14 15 14 13 13 14 15 17 20 23 25 28 30 30 31 33 37 40 41 41 42 42 45 49 54 58 63 69

GFSCGP_500_spd_024.txt.gz
Wind_Speed
29 32 32 33 36 39 42 44 44 42 46 50 50 51 49 50 50 47 44 41 39 37 36 38 39 38 39 36 32 31 33 30 27 29 28 29 30 31 29 27 28 29 29 31
33 34 36 39 41 43 44 46 48 47 45 48 53 55 53 52 50 48 47 45 41 39 39 40 37 36 40 38 33 32 33 32 27 29 28 30 29 30 31 31 31 30 32 33
41 40 41 42 44 46 46 48 50 51 50 51 52 54 57 53 53 50 49 48 45 41 42 43 38 37 38 40 36 34 34 35 31 28 29 29 27 28 32 34 34 34 34 35
43 41 44 46 49 51 51 52 53 55 56 53 51 57 54 56 54 52 51 52 51 47 44 46 40 39 37 41 39 35 35 35 36 30 28 29 29 29 30 32 34 35 36 37
42 44 47 50 50 54 53 53 54 56 58 58 53 59 54 50 51 49 48 50 51 49 48 49 44 40 41 42 40 36 36 35 36 34 31 30 30 30 30 31 33 35 38 39
44 48 50 52 52 55 55 55 57 58 59 64 60 62 55 49 43 45 48 49 49 48 47 45 44 40 42 41 40 38 37 35 32 32 31 31 29 29 31 32 34 36 39 41
48 50 54 55 54 55 54 53 54 58 62 66 64 64 58 49 42 44 44 52 50 50 50 47 42 41 40 39 40 38 39 36 32 31 32 31 29 30 31 33 35 36 40 42
45 45 46 46 45 45 50 46 47 50 57 61 58 66 58 52 48 44 38 44 47 49 50 48 42 42 41 42 40 40 40 36 34 32 32 32 31 30 32 34 36 39 41 43
24 19 21 18 24 29 36 45 41 41 44 48 54 62 61 58 47 46 41 41 45 47 47 44 43 43 42 41 39 42 39 37 35 34 33 33 32 31 34 36 38 41 42 42
23 25 22 26 28 29 31 29 34 44 43 44 43 42 43 47 40 43 39 43 45 42 41 42 43 44 41 41 40 41 39 36 34 34 33 33 33 33 35 37 39 40 39 41
31 33 30 31 31 32 35 34 35 35 42 46 41 36 26 31 32 36 38 44 42 43 35 37 40 41 41 41 40 39 38 35 33 33 33 34 35 34 33 35 37 37 40 42
31 36 32 33 30 30 33 35 34 38 41 44 46 37 29 27 25 29 36 42 39 34 30 38 37 39 43 39 38 38 36 33 32 32 33 34 34 32 32 34 36 39 41 41
26 31 37 35 33 33 33 34 32 35 34 35 34 21 24 20 22 25 33 37 32 32 34 38 41 41 40 38 37 38 35 34 32 32 33 32 32 32 33 35 37 38 40 42
30 29 30 35 36 35 31 27 23 24 34 25 22 15 21 23 23 28 31 34 37 33 37 40 41 39 36 36 36 36 35 33 31 32 31 31 32 33 34 35 36 38 41 44
22 21 22 16 16 26 21 12 13 7 3 16 12 22 20 31 27 29 31 35 39 37 36 35 34 35 36 33 32 33 31 30 29 29 30 31 31 32 33 34 36 39 43 47
16 13 16 16 20 23 23 20 15 7 11 11 18 26 26 21 27 30 30 36 38 37 34 30 29 31 31 31 31 29 28 27 28 28 28 28 30 31 32 35 39 42 46 48
9 9 15 15 15 12 11 9 11 21 14 15 16 12 16 15 24 35 33 41 36 33 29 25 26 27 28 26 25 25 24 24 23 24 25 27 28 30 34 38 41 45 47 50
6 9 11 16 14 14 18 3 2 4 11 6 7 23 28 27 28 29 26 26 26 25 23 21 21 21 20 20 19 19 19 20 21 22 24 27 30 34 37 40 44 47 50 51
9 11 13 15 15 18 19 26 20 13 12 20 23 25 20 23 23 18 18 18 19 20 21 18 15 13 13 14 15 16 17 19 21 24 27 30 33 36 38 43 46 48 50 53
3 5 8 9 12 14 16 16 19 23 27 25 25 23 19 20 22 19 17 18 19 16 13 9 11 14 14 16 16 17 19 22 25 27 29 32 35 38 42 44 46 49 51 54
4 5 4 6 7 9 11 12 12 9 15 17 15 17 14 16 16 15 14 14 13 12 9 8 11 14 16 17 19 20 22 24 26 28 31 35 37 39 42 44 47 49 53 56
6 4 2 2 3 4 3 7 8 9 7 9 10 13 13 12 12 15 19 14 14 8 7 10 13 16 18 19 20 21 23 25 28 31 33 36 38 40 42 44 47 51 51 51
13 9 7 5 5 6 4 2 4 8 10 10 10 13 14 14 14 15 15 11 7 10 11 13 13 15 16 18 19 21 25 28 29 32 34 36 37 39 42 47 48 48 49 50
17 14 12 9 8 6 4 5 5 2 1 4 7 8 12 14 14 11 9 9 9 10 12 13 14 15 17 20 23 25 26 29 31 32 33 35 38 42 44 45 46 46 49 53
16 17 15 14 11 9 4 3 2 3 3 2 3 5 7 7 7 8 9 11 12 12 13 14 16 18 19 20 23 25 27 30 31 32 33 37 40 42 42 43 44 48 52 55
19 20 19 16 14 11 8 8 6 4 5 6 7 5 5 6 8 9 10 11 13 14 14 13 15 17 19 22 25 28 28 28 30 32 36 38 40 40 40 43 47 50 55 60

GFSCGP_500_spd_027.txt.gz
Wind_Speed
24 24 22 25 27 30 32 34 37 39 40 39 40 43 38 38 45 54 53 51 46 42 40 37 38 38 35 33 37 39 36 34 35 36 35 32 33 32 32 34 33 30 30 30
24 25 26 28 30 33 36 41 45 48 46 50 47 47 44 39 41 46 50 54 50 45 43 39 39 38 37 32 33 39 39 37 35 34 34 31 35 31 31 32 33 33 35 32
27 29 31 35 38 40 43 46 47 49 50 52 55 53 46 43 42 45 49 48 48 49 46 43 41 41 41 33 35 39 41 38 36 33 34 30 33 32 29 31 34 36 36 36
32 35 38 41 44 44 48 48 50 53 56 56 54 60 52 47 44 47 48 51 46 47 47 44 42 44 43 37 37 40 41 40 37 34 33 34 32 32 32 31 32 34 36 38
35 36 39 42 43 48 50 52 54 56 58 59 58 62 56 53 45 41 45 51 51 49 49 47 44 45 42 39 40 40 40 40 38 36 33 34 37 33 30 32 34 35 35 37
36 40 42 43 45 50 53 55 57 59 60 64 61 63 55 54 50 42 43 46 53 52 51 50 48 48 46 41 42 42 38 39 39 36 33 34 37 35 33 34 34 35 36 38
37 37 40 43 48 52 56 58 60 61 63 67 62 65 55 56 55 51 48 45 51 52 51 50 49 49 47 41 42 43 39 40 40 38 35 34 35 34 34 33 33 35 36 37
32 32 33 37 38 37 30 28 32 38 45 52 56 67 61 57 57 56 51 49 50 53 52 46 48 48 45 40 42 44 42 41 40 38 37 36 34 33 33 33 34 36 36 38
29 30 32 28 28 32 33 34 30 37 38 42 40 34 52 54 56 57 53 47 46 47 53 50 50 47 44 41 43 45 41 40 41 39 38 38 34 33 33 35 37 38 39 39
26 27 22 24 31 35 40 40 40 40 42 45 45 43 36 31 39 37 49 44 45 45 45 49 48 47 43 41 45 47 43 41 41 40 37 38 36 35 34 36 38 39 40 39
26 24 26 30 30 36 42 47 45 43 44 46 48 41 33 27 27 27 28 38 44 47 47 42 44 42 38 40 43 47 44 42 42 40 36 36 36 36 36 37 38 38 37 36
24 28 28 29 34 38 38 39 41 43 39 44 46 27 29 24 30 28 28 34 39 49 47 42 41 39 37 40 44 46 42 41 41 38 35 37 37 36 36 37 36 34 35 36
22 26 27 24 22 25 31 28 32 31 36 31 39 22 24 22 28 22 22 32 43 47 46 38 37 38 37 42 45 43 40 41 41 36 35 37 37 36 36 34 33 34 36 38
22 20 22 19 17 18 24 21 17 22 31 23 22 13 10 15 25 31 22 32 42 44 42 39 37 38 41 40 41 40 40 41 39 33 36 37 35 35 33 32 33 34 37 38
16 12 13 13 14 17 22 26 18 8 5 5 5 8 12 19 24 16 20 23 32 39 38 37 38 40 39 39 40 40 42 40 34 34 35 34 35 32 31 32 33 35 37 39
11 9 12 15 15 16 16 15 12 7 6 2 8 11 17 17 16 20 25 24 30 36 34 35 36 37 37 35 35 37 34 33 32 32 33 31 31 30 30 31 33 35 38 41
8 10 12 13 14 18 16 3 4 7 3 4 10 14 17 22 19 26 32 32 30 34 31 32 31 31 31 31 32 31 29 28 29 29 29 28 27 28 30 31 34 37 40 43
5 10 13 16 17 21 18 6 7 10 6 4 5 17 14 15 26 21 23 26 31 29 28 29 30 30 29 28 25 24 25 25 25 25 24 24 26 28 30 32 35 38 42 46
4 7 11 15 18 19 23 20 12 10 12 13 23 23 27 26 24 24 27 28 31 34 30 26 26 25 25 24 23 22 21 21 21 21 21 23 26 28 31 34 38 42 44 47
2 3 7 10 13 17 21 23 22 21 22 17 16 18 21 22 26 31 23 22 22 21 21 19 18 18 17 17 17 17 17 17 17 19 22 24 27 30 33 37 40 43 45 47
1 1 4 7 8 10 12 13 15 15 18 16 14 17 17 20 21 22 22 22 19 18 17 15 13 13 13 11 12 14 14 15 18 21 24 26 29 34 36 39 41 43 44 47
8 6 5 3 6 6 4 4 5 7 8 8 5 10 12 11 14 16 12 10 11 10 9 10 11 11 11 12 12 14 16 18 19 22 26 30 32 35 37 38 40 43 46 48
15 10 7 5 6 5 3 3 3 1 4 6 7 7 5 3 2 5 8 7 7 9 11 10 10 10 12 13 15 15 15 18 23 26 28 31 33 34 36 38 42 44 46 47
22 18 15 11 8 6 5 1 3 7 6 5 5 7 7 7 8 8 8 10 11 10 10 10 10 10 11 12 14 16 19 21 24 27 29 30 32 34 37 40 43 45 45 47
23 22 20 17 15 10 5 0 3 6 6 4 3 6 7 7 9 10 11 11 9 9 9 9 10 13 14 13 13 16 20 23 25 27 28 30 34 37 38 41 43 44 46 47
17 19 18 17 14 10 7 3 2 2 2 3 3 2 2 3 5 7 6 6 7 8 10 11 11 10 10 13 17 20 24 25 25 27 31 34 35 38 40 41 43 44 46 51

GFSCGP_500_spd_030.txt.gz
Wind_Speed
29 29 28 28 28 27 26 27 29 29 30 32 33 38 37 33 34 34 35 40 44 53 49 47 41 38 39 40 41 40 43 42 42 39 36 34 35 38 36 36 37 35 37 38
26 26 25 25 25 26 27 29 32 35 37 40 42 42 44 44 43 41 40 40 43 46 54 52 49 42 40 40 42 38 39 44 44 41 38 35 37 37 37 36 37 35 36 37
25 24 24 25 26 27 30 34 37 41 44 48 51 50 50 52 48 43 42 42 43 46 48 52 53 46 41 43 43 41 38 42 46 45 40 37 38 37 37 35 34 35 37 37
25 25 26 27 29 33 36 39 44 48 52 54 54 61 57 55 51 49 46 47 46 47 50 50 53 52 45 42 44 44 37 41 44 45 42 39 38 36 37 34 34 36 36 35
27 27 28 31 34 37 39 44 48 51 55 58 59 65 62 60 58 55 53 53 50 51 50 51 50 53 47 45 44 44 38 40 44 43 43 41 38 37 37 37 33 34 37 37
26 27 30 34 37 41 45 47 49 52 56 62 62 67 63 59 59 58 56 55 54 54 52 50 54 53 51 50 46 43 39 40 43 41 42 42 40 39 36 35 35 36 36 37
27 29 32 32 36 39 42 45 50 54 55 58 58 64 61 58 61 61 63 60 58 54 53 51 54 55 53 49 47 44 40 40 40 40 41 42 41 40 36 34 36 38 38 38
29 27 26 29 32 35 39 40 39 40 44 44 42 36 24 32 51 61 68 67 60 55 53 49 48 55 55 51 48 45 43 43 41 40 41 40 42 40 35 36 36 37 37 38
25 22 23 24 27 29 33 33 39 46 49 52 52 45 39 28 33 39 47 62 64 54 53 50 48 50 55 53 49 43 45 45 42 41 42 40 42 41 36 36 36 38 39 40
21 22 19 22 26 32 35 38 39 44 50 51 50 46 43 42 41 46 40 27 52 51 50 51 48 47 50 51 50 44 43 44 43 42 43 42 43 42 37 37 37 38 40 41
19 19 18 20 28 34 37 37 40 42 50 51 47 36 35 35 38 33 34 27 29 39 48 50 48 47 48 49 47 45 43 44 44 44 44 42 43 41 38 38 39 40 41 41
16 17 16 22 27 28 33 34 37 39 43 39 38 28 28 28 29 26 27 26 29 36 47 48 44 42 46 44 47 42 42 45 46 45 43 42 44 40 39 39 40 39 40 41
14 13 21 20 24 27 28 24 30 37 39 40 40 26 27 26 23 26 28 34 29 39 46 48 44 41 41 40 40 41 43 46 46 45 43 42 41 39 39 39 38 39 40 40
14 16 17 15 14 21 23 24 25 29 31 30 26 14 16 21 24 29 33 36 31 36 45 46 42 42 38 36 37 40 44 44 45 44 41 40 39 38 39 37 37 39 40 38
12 16 13 16 17 19 25 28 24 25 26 26 20 9 10 18 22 26 25 27 29 28 40 40 40 41 36 34 37 41 42 42 41 40 39 38 36 35 36 37 38 39 36 37
11 11 10 9 14 14 15 15 17 19 19 24 19 17 13 8 6 14 25 25 22 24 32 37 38 35 35 36 38 38 39 38 38 38 36 40 34 32 39 38 38 35 35 37
6 1 2 6 8 11 11 14 16 22 20 15 15 13 10 8 8 8 18 21 17 24 32 34 33 33 34 35 34 33 34 35 34 37 34 31 30 38 35 33 34 34 36 38
3 3 4 6 9 12 11 12 12 17 19 11 12 10 9 8 5 6 13 17 22 31 29 30 29 29 31 32 30 29 28 29 30 29 28 36 32 30 32 32 32 34 36 39
6 2 2 9 12 12 12 16 15 13 14 14 14 10 5 9 1 7 22 19 23 22 23 24 25 26 25 23 20 21 21 21 26 34 29 27 29 29 29 30 31 34 37 41
6 3 3 7 9 11 13 13 19 20 18 15 13 12 11 10 13 25 19 18 17 21 22 20 20 20 21 22 23 24 27 28 25 22 22 24 25 27 28 29 32 36 40 44
6 4 5 7 12 13 10 11 11 10 16 15 15 17 17 18 14 20 24 22 18 20 27 28 26 26 26 25 24 22 21 20 20 20 22 22 22 25 29 33 36 38 41 43
8 4 2 5 7 9 11 10 8 7 8 9 13 15 14 8 19 20 20 19 15 12 12 12 15 15 15 14 13 9 8 11 13 16 19 22 26 30 33 34 37 38 40 43
11 8 3 1 5 7 6 7 8 7 4 4 4 7 9 5 7 13 12 10 7 6 8 9 8 7 7 6 6 9 13 15 18 20 24 27 29 32 33 33 35 38 41 44
16 15 12 8 6 6 6 4 6 8 7 5 6 3 2 3 3 3 2 1 6 8 8 6 5 5 5 6 8 11 13 17 20 23 25 28 29 29 30 34 37 40 43 46
20 20 20 17 15 11 6 4 3 5 3 4 4 3 4 4 4 4 4 4 3 4 5 4 5 6 7 8 10 12 14 17 20 24 25 26 27 31 34 35 39 42 44 44
23 26 22 20 18 16 9 7 4 6 4 3 3 0 0 1 2 3 3 4 4 4 2 3 5 6 7 8 11 14 16 20 23 24 25 28 30 32 35 38 39 40 41 45

GFSCGP_500_spd_033.txt.gz
Wind_Speed
37 38 35 35 38 39 38 37 35 35 35 36 36 36 36 35 34 32 32 34 36 38 40 42 41 48 45 42 40 41 40 42 44 45 45 44 41 39 36 37 37 38 37 39
34 32 31 31 31 31 31 32 33 33 34 36 36 35 38 35 35 38 40 38 39 41 42 43 42 42 51 46 43 43 43 42 44 44 46 49 45 41 38 37 38 38 38 39
30 28 25 24 25 25 27 29 30 33 35 37 39 40 42 43 43 43 44 46 45 44 44 45 45 44 45 51 46 43 45 43 43 43 45 48 47 41 41 40 39 39 40 40
26 21 21 21 21 24 26 29 32 35 39 42 43 49 46 49 51 51 51 50 50 49 49 47 47 47 47 49 53 49 46 47 44 42 43 45 46 46 42 42 42 40 40 40
25 21 20 20 23 26 29 31 35 39 43 47 48 57 49 55 57 60 61 61 58 56 56 55 51 51 49 49 52 54 48 49 49 42 40 45 45 42 41 40 42 40 40 40
23 21 21 23 26 28 30 35 38 43 48 52 55 59 55 59 61 64 67 67 65 65 63 62 59 54 53 51 51 53 54 49 48 44 42 45 42 40 39 42 44 39 38 40
23 22 23 25 27 30 34 35 40 44 47 50 54 60 56 46 48 52 55 62 66 65 63 62 61 57 56 53 51 51 53 50 49 45 43 44 39 41 42 42 44 39 39 39
24 24 25 25 29 30 32 34 34 42 46 49 51 54 49 48 44 48 40 44 45 52 61 62 61 59 54 55 52 53 52 51 48 45 43 44 40 42 43 41 41 40 40 38
25 26 25 26 26 28 29 34 37 41 42 47 52 55 57 56 54 58 57 59 47 45 43 56 60 59 56 53 52 52 52 50 47 45 45 43 42 42 43 43 41 41 39 39
25 24 23 22 23 27 33 34 38 42 49 51 55 56 59 48 49 48 51 52 48 44 44 40 54 58 53 52 51 52 53 51 48 47 47 45 44 44 43 43 41 40 39 41
23 22 18 20 24 29 31 33 37 42 44 48 53 53 51 49 47 44 39 37 36 33 42 40 36 56 53 51 51 50 52 51 47 46 47 47 46 45 43 43 42 41 40 41
20 18 18 21 24 28 31 32 36 40 39 46 50 49 40 37 34 31 31 32 30 29 39 39 36 53 53 51 50 47 47 46 45 45 46 47 46 45 42 43 41 41 40 42
18 18 16 19 24 23 25 28 33 41 45 42 47 43 38 40 30 30 29 28 34 35 39 41 41 53 51 50 48 43 43 41 43 44 45 44 45 44 43 43 41 40 41 42
18 15 18 16 20 22 22 22 31 37 44 40 39 44 24 35 31 30 32 34 36 37 37 37 49 48 46 46 43 41 39 40 41 43 44 44 43 40 41 40 39 39 43 41
16 16 18 19 18 22 22 27 31 34 34 41 37 38 35 30 25 18 23 28 35 32 36 28 45 43 43 39 37 40 37 39 42 42 44 41 39 38 38 38 38 40 41 42
16 16 14 14 13 15 18 25 26 23 27 35 33 29 29 27 23 19 16 13 17 24 26 21 38 41 40 31 33 35 36 38 40 41 38 37 35 35 37 38 38 40 40 39
14 11 8 8 8 11 15 16 15 20 24 26 26 27 29 30 23 21 24 9 17 16 12 15 35 35 33 29 30 31 33 34 34 35 32 30 32 34 36 32 32 42 42 42
12 9 5 5 5 6 10 10 13 17 21 24 26 22 26 23 20 19 11 5 8 15 16 28 30 29 28 27 28 30 30 30 29 27 31 36 34 33 44 40 41 40 36 37
12 8 3 2 3 3 5 11 12 17 18 19 22 24 26 21 22 15 20 17 19 23 25 26 26 25 22 22 21 22 21 20 22 23 26 30 32 37 42 39 31 30 34 37
12 7 3 3 1 4 7 7 11 16 17 18 18 14 18 17 17 17 21 21 21 20 21 21 19 17 17 16 16 17 17 15 20 30 32 31 37 40 33 31 32 32 33 38
12 8 5 3 1 5 5 7 9 11 13 17 17 18 13 10 8 15 15 17 17 18 17 16 16 17 16 16 15 27 29 23 35 30 29 32 37 29 24 27 29 34 36 38
14 10 6 1 5 7 12 11 9 9 11 10 13 15 17 11 17 11 11 6 6 13 17 21 22 22 22 23 27 28 28 29 32 27 19 16 20 23 26 29 31 35 37 39
16 13 9 4 3 7 11 11 10 11 10 11 6 7 11 11 13 11 11 11 11 13 13 11 11 11 14 16 15 13 12 11 11 13 16 19 22 25 27 31 33 35 37 40
19 16 13 9 6 7 11 11 10 10 11 10 10 6 6 8 8 9 9 8 8 10 8 8 8 7 8 10 11 10 10 9 11 15 18 20 23 27 29 30 33 36 38 41
19 18 17 16 14 13 13 13 11 10 8 8 6 6 5 3 3 4 5 5 4 3 2 2 5 4 2 2 5 7 10 12 13 16 19 23 25 27 29 32 34 37 39 39
23 24 20 17 16 17 17 15 13 10 9 7 9 4 5 6 6 5 3 3 3 3 3 1 0 2 3 5 6 8 11 13 17 20 22 24 26 29 31 34 35 36 35 38

GFSCGP_500_spd_036.txt.gz
Wind_Speed
34 35 34 30 36 36 40 41 40 39 40 41 40 41 39 38 37 33 35 35 36 34 34 32 32 32 33 35 40 46 43 39 38 38 37 37 39 40 40 39 35 33 36 36
31 30 28 32 34 35 37 37 36 35 38 42 39 40 40 39 38 38 37 38 38 36 36 36 36 36 36 35 38 44 48 46 41 42 39 40 39 39 37 39 38 37 35 37
28 28 29 29 30 31 32 34 33 34 34 35 39 40 38 39 37 36 38 39 40 40 41 42 42 41 41 41 41 42 47 49 46 43 44 42 37 37 39 39 41 39 38 39
25 24 25 25 25 26 27 29 27 26 28 31 33 41 35 37 38 42 43 45 48 50 51 51 50 47 46 45 44 44 44 50 52 46 47 43 38 38 40 41 40 39 41 42
21 21 22 20 21 22 22 23 24 25 28 31 32 39 40 40 43 49 53 56 58 59 59 59 58 57 55 52 48 46 45 46 52 53 48 45 42 39 41 44 41 40 42 44
21 19 18 19 19 20 21 23 25 28 31 35 39 43 39 46 51 54 59 63 66 66 65 66 65 64 63 59 55 52 50 46 48 54 52 48 45 42 42 43 43 42 42 43
19 18 19 20 20 20 22 24 29 32 34 37 43 47 43 47 49 53 50 49 55 59 60 57 58 63 64 63 61 57 55 51 47 49 51 48 48 43 43 43 45 43 42 42
21 21 20 20 20 22 24 28 30 35 38 41 45 46 46 45 42 45 52 54 53 57 59 61 60 52 56 62 62 60 60 58 49 49 48 50 51 45 43 43 46 44 42 41
21 20 19 19 22 24 23 27 30 34 37 44 46 42 41 46 43 43 54 56 58 63 64 63 55 58 52 56 60 59 58 59 51 51 48 51 51 45 43 44 46 45 44 43
21 20 21 21 22 25 27 27 30 34 39 40 42 42 42 41 43 47 51 55 57 62 62 48 51 53 51 48 54 56 56 56 53 50 51 49 47 45 45 43 46 45 44 43
21 22 20 19 22 24 26 28 30 34 38 40 39 46 49 44 44 47 44 49 50 52 49 42 40 48 49 45 43 52 52 55 52 51 50 47 44 45 44 44 45 45 44 43
23 20 17 21 22 25 26 25 30 32 33 39 42 46 37 39 44 49 39 41 42 43 36 33 37 44 46 44 41 46 48 53 52 46 47 45 46 46 45 44 44 44 45 43
17 17 19 21 25 24 22 25 24 31 34 30 37 36 34 42 49 46 33 33 36 40 42 37 35 41 40 35 34 47 50 50 47 41 45 43 45 44 44 44 43 44 43 41
18 18 20 23 22 20 21 23 28 28 29 34 29 36 34 38 44 38 30 28 29 33 38 31 35 37 32 31 33 39 46 44 39 39 41 43 42 41 42 41 42 42 39 38
18 18 22 19 20 20 22 25 23 25 27 30 25 30 33 38 42 43 33 27 28 25 23 24 25 30 35 34 34 37 39 38 37 37 40 40 39 39 39 38 37 35 35 36
16 18 12 16 16 16 16 18 18 18 20 23 27 27 33 37 39 42 39 24 23 18 14 10 13 20 22 29 27 33 32 35 35 36 34 32 35 37 37 34 31 32 32 38
14 10 11 16 11 10 10 13 11 13 17 25 27 30 30 30 30 27 28 28 10 9 5 7 13 16 14 17 27 29 32 33 31 31 31 33 25 37 30 28 28 28 35 42
9 8 13 11 9 7 5 5 8 15 16 22 27 28 27 28 27 28 23 11 0 2 9 12 13 14 19 25 25 27 29 30 27 25 25 27 26 28 25 37 36 37 38 42
9 11 10 8 3 2 5 7 10 12 18 21 23 29 24 26 30 24 25 18 20 21 21 20 19 21 22 20 21 22 21 18 18 19 18 23 18 32 36 37 29 37 40 47
8 11 9 6 4 3 3 7 10 11 12 15 23 26 21 17 21 21 24 26 19 17 20 21 22 20 17 16 16 16 16 15 17 22 22 23 28 36 29 28 33 35 32 31
11 10 8 6 4 2 4 5 8 11 13 14 17 21 16 15 13 15 19 18 19 17 17 17 15 14 14 13 14 13 14 17 18 21 26 33 33 27 32 34 26 29 30 32
14 12 10 6 3 1 4 7 10 12 15 14 13 14 17 19 18 18 21 11 9 7 18 19 21 15 16 11 11 20 17 22 20 26 28 28 23 16 19 23 28 30 32 35
15 15 13 11 5 3 6 9 12 13 16 15 14 11 13 11 11 14 15 14 16 4 5 7 17 16 13 21 19 8 11 17 17 17 22 17 19 18 22 26 29 32 33 35
15 16 15 13 12 10 11 11 11 12 13 13 14 13 9 7 5 7 8 8 9 8 8 6 6 5 3 5 9 11 6 5 7 12 15 16 17 21 25 28 30 31 34 37
17 17 18 17 17 16 17 16 13 11 11 9 11 11 10 6 5 5 4 4 6 5 4 5 7 7 6 6 6 7 8 9 10 11 13 17 21 24 26 28 30 33 35 35
21 23 19 20 16 18 19 19 16 12 11 10 10 8 6 6 7 7 6 4 4 4 5 5 4 4 3 3 4 4 5 8 11 14 17 20 22 25 28 30 32 33 32 34

GFSCGP_500_spd_039.txt.gz
Wind_Speed
34 36 38 34 35 38 42 43 43 43 43 44 42 40 40 40 40 38 39 37 37 37 36 35 33 33 33 34 35 35 36 36 39 38 38 39 36 37 33 31 32 29 31 36
32 34 28 29 34 37 41 39 35 37 40 43 41 40 41 41 40 41 40 39 39 40 41 40 38 37 37 37 37 37 35 35 37 39 40 44 41 40 36 34 32 30 31 36
27 28 28 32 33 30 31 33 34 35 34 35 38 38 37 40 40 41 42 42 42 43 44 44 43 42 42 41 40 39 40 40 38 39 42 46 45 44 39 35 33 35 36 35
27 28 27 28 27 25 27 28 26 26 27 30 35 40 32 37 39 41 40 44 43 44 45 46 46 45 45 45 46 46 44 44 42 41 41 45 48 45 42 40 38 36 36 35
23 24 24 23 23 23 22 21 20 23 25 26 27 36 34 31 32 36 40 43 46 46 47 49 50 52 53 54 53 52 50 48 47 44 41 42 48 50 44 43 40 38 39 38
24 23 21 20 20 19 17 18 19 20 22 25 25 30 35 31 35 40 45 48 51 54 56 57 58 59 61 62 62 61 57 55 53 50 44 44 42 48 49 48 44 42 42 40
19 18 19 19 18 16 16 17 19 21 23 24 28 30 29 35 41 44 48 50 52 55 57 57 55 55 57 59 59 61 64 61 58 57 52 48 44 42 50 53 49 45 46 43
20 20 20 18 16 17 16 17 20 22 24 28 31 33 34 37 43 45 46 44 45 47 49 52 53 53 52 51 53 55 56 61 63 61 59 54 49 43 48 54 51 47 47 46
20 20 18 17 17 16 15 18 21 25 28 30 32 34 36 38 37 37 42 47 50 52 50 50 52 53 54 54 56 55 56 57 64 64 61 57 50 49 50 49 50 49 48 48
20 18 18 17 16 17 19 20 22 24 29 32 34 34 31 31 33 38 42 46 48 50 50 53 51 49 49 53 54 61 56 57 56 63 62 57 54 54 51 48 47 49 48 47
20 18 16 17 19 18 17 19 22 25 28 32 31 28 26 30 34 38 42 45 49 50 51 50 48 45 44 40 45 54 56 55 53 56 59 57 55 53 51 47 46 48 47 45
19 17 17 17 16 17 18 21 23 23 27 26 29 22 21 26 31 35 37 39 46 45 45 46 41 40 35 31 40 49 54 52 44 44 55 51 47 49 49 47 46 46 43 43
16 16 16 16 16 17 19 21 23 26 25 23 27 24 26 34 35 40 45 47 44 46 48 44 35 32 32 40 44 49 49 41 35 41 49 49 45 47 47 47 44 43 42 42
16 15 15 16 16 17 16 20 24 23 25 19 18 24 25 32 37 43 48 43 32 39 44 39 34 28 29 37 41 38 40 28 36 39 42 43 41 42 44 43 39 39 40 41
13 15 16 17 16 14 16 19 19 19 19 20 18 23 26 32 37 39 42 35 25 37 31 32 24 20 28 28 25 27 27 28 33 35 30 36 38 40 40 37 34 36 39 37
14 14 11 15 12 13 13 12 14 14 13 15 18 20 24 27 31 35 38 41 27 16 10 13 11 13 11 11 14 18 17 18 24 29 28 32 34 35 34 31 33 34 33 33
13 10 10 13 11 9 10 10 5 6 9 15 15 22 22 21 29 30 32 26 24 18 8 5 5 9 9 7 9 11 16 21 21 25 29 31 29 27 27 30 31 27 34 32
10 9 13 8 7 10 7 5 4 7 11 12 19 24 22 20 26 25 25 27 20 7 2 4 9 12 11 12 16 19 22 24 24 25 25 24 24 23 20 29 32 30 35 29
11 11 8 6 9 9 7 4 4 7 9 13 17 20 22 22 22 24 24 22 22 19 16 15 17 17 18 18 15 15 19 19 19 19 17 14 17 19 23 26 27 33 37 26
11 9 8 8 9 8 6 4 6 8 8 10 13 14 17 27 23 24 18 16 16 18 16 17 16 13 12 13 14 15 17 17 17 10 15 20 22 19 27 26 29 24 27 29
10 8 10 7 8 6 3 3 5 6 10 11 11 14 18 19 16 20 21 17 11 11 9 9 10 12 13 13 14 16 18 16 14 19 14 9 13 21 30 27 33 26 36 27
10 10 10 8 6 5 2 2 7 10 12 13 11 12 14 13 11 14 16 14 12 12 9 6 8 10 11 15 14 14 21 16 11 9 8 17 16 14 28 29 21 24 27 29
12 11 12 10 9 8 3 5 8 11 13 13 14 13 11 13 11 9 9 11 13 12 9 11 9 8 9 5 3 14 12 11 18 14 13 11 12 15 16 17 21 25 28 29
11 13 13 13 13 12 9 11 11 10 11 12 11 12 10 9 11 10 10 9 9 11 10 10 10 10 10 12 13 13 10 7 8 10 9 10 12 15 19 21 24 27 29 32
14 15 18 17 16 14 17 16 15 13 11 11 10 10 7 6 7 8 8 8 8 8 7 8 8 7 7 7 6 5 3 2 4 7 9 12 16 19 22 24 27 28 30 32
15 21 20 17 15 16 18 19 19 17 13 11 8 8 9 6 5 6 6 4 5 4 5 5 5 4 4 4 4 3 3 4 7 10 13 16 19 21 23 25 28 30 32 32

GFSCGP_500_spd_042.txt.gz
Wind_Speed
34 37 39 40 37 42 43 45 45 44 44 45 43 44 40 37 42 44 43 42 42 38 38 38 37 35 37 40 40 39 39 36 35 34 35 36 37 38 35 34 32 30 29 32
34 33 32 28 31 35 40 42 41 41 43 44 44 43 41 39 40 43 43 43 42 40 40 41 42 41 41 41 42 43 42 40 36 36 36 36 41 45 41 39 34 31 30 33
30 28 28 29 32 33 35 36 35 37 40 40 41 42 39 38 39 40 41 43 44 43 43 44 45 44 44 42 43 44 45 44 41 40 39 38 38 40 40 42 40 34 33 38
29 28 28 30 32 29 31 31 31 31 34 38 38 41 31 34 35 36 38 39 41 43 44 44 45 46 45 46 46 46 45 46 46 46 44 40 40 40 41 46 47 43 39 38
26 24 24 26 27 26 26 25 24 25 28 31 29 36 28 27 31 31 32 37 41 43 44 45 46 47 49 50 49 49 49 49 49 51 51 48 45 42 45 44 48 48 44 41
26 23 22 24 26 25 22 22 22 22 21 26 21 29 29 22 26 30 35 37 39 42 44 46 48 48 50 52 54 55 55 55 56 57 56 55 52 45 44 45 46 49 50 47
22 21 20 21 22 21 19 20 20 19 18 16 17 23 24 26 28 32 37 40 43 46 49 52 54 56 59 61 63 64 65 65 65 64 62 61 58 55 49 49 46 49 52 50
18 20 22 23 22 21 21 19 17 16 16 17 20 22 24 30 32 35 40 43 46 50 52 54 57 59 59 57 59 60 63 66 68 67 67 68 64 62 60 54 51 49 52 51
21 21 20 20 19 19 17 17 16 16 19 20 21 23 26 28 33 39 41 42 42 45 48 50 52 55 57 58 59 60 61 62 62 61 60 60 66 68 65 60 54 51 53 52
21 21 21 19 18 17 16 15 15 16 20 21 22 24 23 24 27 30 35 39 42 46 49 51 51 51 53 57 59 58 57 58 58 59 59 57 57 65 66 62 55 55 53 50
22 21 18 16 18 17 15 14 15 17 20 24 23 18 17 21 24 27 32 37 41 44 45 49 52 55 58 58 57 54 53 52 52 56 52 52 56 56 62 63 60 58 55 51
18 18 19 19 15 13 13 15 17 20 20 19 23 10 19 25 25 30 33 36 40 47 50 55 57 53 48 50 49 50 47 47 48 48 50 56 58 58 57 62 61 59 52 51
17 18 17 15 14 14 15 17 18 18 18 16 23 20 22 21 23 26 33 38 41 47 49 46 49 39 42 44 44 38 41 43 38 43 48 58 61 55 56 57 57 54 52 50
17 15 14 13 14 14 14 14 17 16 17 16 22 12 19 22 24 27 33 36 40 46 46 38 36 30 36 31 32 36 32 32 29 33 42 40 49 46 52 50 51 50 48 45
13 12 13 15 15 13 13 16 15 15 15 14 14 16 14 19 20 25 33 33 39 46 41 28 25 15 20 22 26 25 24 21 22 18 22 28 39 36 43 42 43 44 43 40
13 14 14 15 11 12 12 14 12 10 8 7 6 9 20 19 18 26 31 31 36 42 35 26 13 11 11 10 10 14 13 11 16 23 19 28 30 30 37 36 37 36 35 35
15 14 12 12 11 11 11 9 7 2 5 6 8 14 18 19 19 22 26 29 31 34 32 18 11 5 1 4 7 12 9 14 17 23 22 25 29 29 30 30 31 31 32 35
13 12 14 13 11 10 7 6 6 5 6 8 14 14 12 15 20 25 24 25 25 25 26 20 9 4 1 3 7 10 11 14 18 14 16 21 27 26 24 25 28 29 30 34
12 13 13 11 11 7 8 6 6 5 7 8 11 10 12 20 20 22 27 22 17 18 21 22 20 11 3 3 7 9 14 16 15 22 24 20 19 19 17 18 23 24 30 31
11 12 12 13 8 7 8 6 4 3 5 7 9 12 14 15 15 17 21 18 15 14 14 15 16 13 10 9 8 8 8 9 14 15 15 16 19 13 9 19 21 13 23 24
12 14 15 11 7 7 6 7 4 3 4 5 6 9 13 14 15 18 16 13 15 16 16 13 11 11 11 8 9 11 13 17 20 15 12 4 8 9 8 20 24 24 26 26
12 15 16 10 10 8 8 5 2 2 5 6 5 7 11 13 14 16 16 14 16 15 13 9 11 10 8 9 8 12 9 6 3 7 15 7 9 5 8 14 18 22 26 27
14 17 16 14 12 10 9 6 3 4 7 7 7 7 10 12 13 13 14 14 13 14 13 8 11 9 5 5 3 5 4 4 5 6 2 5 4 10 10 10 13 17 20 26
16 19 18 17 16 14 13 11 9 10 11 11 10 8 7 9 9 12 12 12 12 10 8 8 8 10 9 7 6 8 3 5 6 10 10 7 6 8 10 14 17 21 24 27
19 20 20 20 19 17 17 16 14 15 15 15 12 9 5 5 7 10 13 11 8 8 7 7 6 5 5 6 5 3 2 1 1 3 6 7 11 14 16 19 22 25 27 28
18 21 22 21 20 16 18 18 17 17 18 16 14 11 8 6 9 9 11 11 9 7 5 10 5 3 2 2 1 1 2 3 5 7 10 12 15 16 19 21 23 25 27 29

GFSCGP_500_spd_045.txt.gz
Wind_Speed
39 36 44 45 46 46 47 48 47 46 46 46 43 45 40 38 42 44 45 46 45 43 41 42 43 42 38 40 42 43 45 43 42 41 41 41 38 37 36 34 35 34 33 33
34 35 39 34 41 42 45 46 46 45 45 46 43 42 41 39 40 42 45 45 44 44 43 43 44 45 43 41 41 44 45 46 45 43 41 42 41 41 41 39 37 35 35 35
33 31 34 31 33 33 41 40 40 37 38 40 41 42 40 36 39 40 41 43 44 42 42 43 44 46 46 44 42 43 46 48 48 48 46 44 44 43 43 41 38 39 38 40
31 32 32 33 33 33 31 30 31 34 37 38 38 41 32 35 36 36 37 39 41 44 43 41 43 45 47 48 47 46 46 47 50 52 52 48 46 44 42 42 42 39 38 41
31 29 31 30 31 31 30 28 28 28 32 36 34 39 26 29 30 30 32 35 38 39 41 41 42 44 46 46 47 48 48 48 49 51 53 53 52 47 45 43 42 42 43 43
28 26 26 25 25 26 25 25 25 27 27 32 26 33 29 20 25 25 25 27 31 34 37 39 42 44 46 49 51 51 52 52 53 53 54 55 56 56 52 50 48 47 47 48
27 26 22 22 24 23 21 22 24 25 25 23 20 25 22 18 18 22 27 30 34 36 40 43 46 48 50 52 54 56 57 57 58 58 58 58 60 61 62 59 56 54 50 49
19 21 21 21 21 22 24 25 24 20 19 16 17 20 19 19 21 25 30 34 36 39 42 46 48 51 54 58 60 61 63 64 66 67 66 65 64 64 65 65 65 60 57 54
24 24 25 25 23 22 21 21 19 18 18 18 18 17 18 20 26 29 30 33 36 39 41 44 48 51 54 58 60 62 65 67 69 70 71 71 72 72 72 72 71 69 65 60
23 22 21 21 19 20 20 20 17 17 19 18 16 15 17 23 26 30 32 32 32 32 36 42 47 51 54 56 59 62 64 65 67 67 68 68 67 67 68 69 71 74 71 65
21 20 18 19 20 19 18 17 17 16 17 17 16 13 18 21 24 26 29 30 32 36 39 43 47 51 56 60 62 61 62 62 63 66 67 65 64 65 66 65 63 63 67 69
18 17 17 19 17 16 15 14 15 17 16 16 19 14 16 21 22 26 27 28 30 35 39 43 48 52 56 57 55 60 61 61 62 64 64 61 62 64 67 66 66 64 60 58
18 18 19 17 15 14 14 15 16 16 16 16 20 16 22 21 21 24 26 26 29 36 39 43 49 56 57 49 42 43 46 49 51 55 54 54 55 56 59 62 63 65 61 56
18 17 16 14 14 14 14 15 14 14 17 16 18 11 20 19 19 23 24 24 30 34 37 41 51 44 38 33 34 34 38 39 41 40 41 41 42 46 51 56 60 58 60 52
15 15 13 13 13 14 13 15 15 14 16 12 14 14 15 16 19 20 20 27 30 32 34 40 37 26 24 15 22 19 19 21 22 25 29 30 36 41 47 51 56 61 59 57
15 13 14 13 13 13 14 16 13 12 13 9 10 12 13 16 17 15 20 27 27 31 31 36 29 19 22 16 14 14 14 15 18 22 21 20 23 24 31 32 30 42 51 47
14 14 14 13 12 14 16 13 11 10 10 8 7 9 11 12 9 14 18 27 25 21 27 32 30 19 16 16 13 11 4 4 6 11 12 9 13 13 17 21 24 30 34 35
14 14 14 13 14 13 12 10 9 9 7 7 9 11 11 12 18 21 20 21 21 20 22 28 25 23 18 13 11 9 10 7 9 10 12 11 16 13 11 16 25 29 31 30
15 14 16 17 14 12 11 8 6 8 7 8 7 10 12 16 20 19 18 19 21 19 19 20 24 19 19 16 13 9 3 3 4 11 10 16 14 12 10 12 16 19 21 21
17 18 18 15 14 13 9 7 9 8 7 6 7 10 13 15 17 17 17 20 19 17 18 16 15 16 18 14 10 7 4 2 7 8 7 6 9 10 9 7 8 13 15 26
19 18 16 15 13 11 9 9 9 9 8 7 5 8 10 13 15 15 14 17 19 20 14 11 14 12 14 13 10 9 7 10 12 12 12 7 12 13 5 7 4 7 11 16
19 17 17 15 15 12 11 9 10 8 6 3 6 8 10 12 12 14 15 14 15 17 12 13 12 10 9 10 11 14 9 6 8 8 10 5 10 8 2 4 3 7 11 13
18 16 17 18 16 11 10 11 10 7 4 5 8 11 12 12 11 12 13 13 14 13 14 13 14 12 9 4 4 6 8 8 9 10 10 5 3 2 4 3 5 8 12 16
19 17 19 21 17 15 15 15 13 9 9 9 11 14 14 12 10 8 12 13 12 11 10 11 10 9 11 9 5 7 7 9 8 8 6 7 4 4 6 9 11 14 16 20
22 19 22 22 22 20 19 17 17 17 15 13 14 16 14 12 12 12 11 13 10 10 8 10 9 9 8 7 7 7 7 8 8 6 5 8 9 10 12 14 16 19 22 23
22 20 23 24 27 21 22 20 21 20 18 17 17 16 14 15 13 12 11 12 12 10 8 10 8 5 5 7 8 9 10 10 10 11 12 13 15 16 17 19 21 22 24 26

GFSCGP_500_spd_048.txt.gz
Wind_Speed
39 38 45 45 45 45 45 45 45 44 43 44 43 45 40 40 43 42 42 44 45 44 42 43 44 45 44 42 41 42 44 44 44 44 45 44 42 43 42 40 40 40 38 35
30 41 33 43 45 45 46 44 42 41 41 42 41 43 40 37 40 42 42 44 45 44 42 43 44 46 46 44 44 43 43 46 48 46 46 45 44 44 45 44 44 42 39 38
34 31 36 27 36 41 41 42 41 40 39 41 40 41 39 36 38 39 40 41 43 44 42 43 44 46 47 46 45 45 45 46 49 50 47 47 45 44 46 46 44 42 42 41
30 26 31 24 21 33 40 41 37 38 39 40 39 39 33 36 37 38 38 39 41 41 41 42 44 45 46 47 47 46 47 47 47 49 51 48 46 46 45 47 48 48 47 46
35 31 32 20 25 29 31 33 31 33 33 35 33 36 23 31 34 33 33 34 37 39 42 42 42 44 46 47 50 49 49 50 50 51 53 53 53 49 48 48 50 51 50 46
31 31 31 34 27 34 30 27 27 27 27 30 27 30 24 25 28 29 30 31 34 38 40 41 42 44 45 47 47 48 49 50 52 52 53 55 58 59 57 52 49 48 49 48
32 29 31 31 29 28 25 26 26 24 25 26 22 24 24 18 24 26 28 31 33 34 37 38 39 41 42 44 46 48 50 52 54 56 57 57 58 60 60 60 59 56 53 52
26 26 25 25 27 25 25 26 25 24 22 21 16 21 20 19 18 25 28 29 31 33 34 36 38 40 43 46 49 52 55 58 60 62 63 63 63 63 63 63 64 63 60 58
20 22 23 23 23 22 22 22 21 19 18 18 17 18 18 20 21 23 26 28 30 32 34 36 39 41 44 46 50 54 57 60 63 66 68 70 70 70 69 69 67 65 66 64
26 25 21 20 20 20 21 20 19 18 19 18 16 15 17 21 24 24 23 25 28 31 33 35 36 37 42 46 50 55 58 62 64 66 68 71 72 74 74 74 73 72 71 70
18 19 20 20 19 18 21 22 22 20 18 16 13 15 18 21 23 23 25 28 28 28 28 31 35 40 46 49 53 56 60 63 65 67 70 70 70 73 73 74 73 72 72 73
17 18 18 19 21 21 21 18 17 16 14 14 13 15 17 20 20 23 24 24 26 27 31 31 37 39 45 47 52 54 58 61 64 67 64 66 68 66 69 70 71 71 69 68
17 17 18 17 15 15 14 15 15 14 13 11 15 17 17 19 18 20 20 22 26 25 28 33 36 43 44 49 47 48 53 48 48 52 52 52 51 55 58 64 65 66 66 64
18 17 16 14 13 13 14 14 13 12 12 14 17 15 20 14 13 17 19 22 19 23 27 29 36 38 41 39 37 41 41 33 33 35 39 35 37 40 44 49 56 60 62 62
15 14 13 13 13 13 13 12 11 12 15 13 18 13 16 15 14 18 20 17 17 22 23 25 30 35 37 32 31 32 32 29 25 24 24 25 29 32 33 34 41 45 50 52
15 13 13 12 12 12 12 12 13 14 14 14 13 14 11 13 17 19 16 15 18 22 21 23 27 30 30 26 24 22 26 23 20 17 16 17 19 22 26 27 31 35 38 41
15 14 13 11 12 12 13 13 14 14 13 12 11 10 12 15 15 17 17 19 19 21 20 22 24 26 26 28 24 23 23 20 17 12 11 13 13 15 15 16 20 23 23 27
13 12 12 12 12 12 12 13 13 14 13 12 11 12 13 13 14 17 21 21 19 17 14 22 21 23 24 24 24 19 18 15 12 9 5 8 8 5 8 13 9 10 19 19
14 13 13 13 13 13 12 13 13 14 13 11 11 10 10 11 12 13 16 17 16 15 16 17 17 21 22 19 19 19 11 14 11 8 10 7 7 4 2 3 1 5 7 10
15 15 15 15 15 14 13 13 16 14 12 10 8 8 8 10 14 14 16 16 17 17 14 11 17 17 19 15 13 14 15 14 8 9 10 8 8 9 6 6 2 7 3 8
18 18 18 17 15 15 14 16 15 13 11 10 9 8 7 11 13 15 14 14 15 15 13 11 14 18 13 7 13 13 13 16 11 10 12 10 6 8 12 9 4 5 5 6
20 20 20 17 16 17 16 17 15 12 11 8 8 6 7 11 14 14 11 13 14 16 14 11 12 12 11 6 10 10 13 15 13 7 12 12 7 5 9 6 6 2 3 6
21 21 18 18 18 16 16 16 13 11 9 8 8 8 10 13 13 14 11 12 13 13 14 12 11 12 12 10 5 10 12 13 12 10 11 11 9 8 8 7 6 5 7 10
23 22 19 19 20 19 20 18 15 13 10 9 10 11 13 14 14 15 14 12 12 11 12 12 11 9 9 8 8 10 11 12 12 12 12 11 10 10 9 9 9 11 13 15
23 21 21 19 22 21 21 18 17 17 16 15 15 16 17 16 16 15 16 15 13 11 11 11 13 11 9 8 8 9 10 11 12 12 11 10 10 10 11 13 15 16 17 19
25 22 20 20 24 22 23 22 21 22 21 20 19 19 20 18 17 16 16 17 14 15 12 12 12 11 8 8 8 9 10 12 13 14 15 15 15 16 16 18 18 18 20 22

GFSCGP_500_spd_051.txt.gz
Wind_Speed
44 39 44 44 46 52 45 45 44 42 40 40 38 39 36 38 39 40 42 43 43 44 43 42 42 41 40 40 41 41 41 41 43 45 47 47 46 46 46 47 46 46 44 41
32 31 38 41 44 47 48 45 44 42 40 39 39 40 36 37 39 41 42 43 43 44 45 43 43 44 44 43 43 43 43 44 43 45 47 47 47 47 48 48 47 48 46 43
33 33 37 40 44 45 45 44 42 41 39 39 38 40 36 37 40 41 40 40 42 43 43 44 43 44 45 45 44 44 44 46 48 48 48 49 47 46 47 47 47 48 49 48
31 36 34 27 35 40 39 39 38 38 39 39 39 39 33 36 37 38 39 39 40 40 41 42 42 42 43 44 44 45 45 45 46 49 51 51 51 50 47 47 47 50 51 51
32 23 32 28 21 35 37 38 36 37 38 38 37 37 33 35 35 35 36 37 39 39 40 40 41 42 42 43 44 44 45 46 48 48 48 50 51 51 51 50 50 51 52 52
25 24 34 37 25 20 29 35 37 37 36 34 34 34 30 31 32 31 31 32 34 36 37 38 38 39 40 41 41 42 43 44 44 45 47 49 51 53 53 53 53 54 56 57
20 23 24 26 24 27 26 27 27 29 32 31 29 29 27 25 27 28 28 30 32 34 35 36 37 37 38 39 40 41 41 43 44 46 48 50 51 53 53 55 57 57 57 58
20 26 29 32 28 22 27 27 26 25 24 23 22 24 22 20 24 26 27 29 30 32 33 34 35 35 37 38 39 41 43 46 48 51 54 56 58 59 60 61 61 60 60 60
22 23 23 26 29 26 22 23 23 23 22 22 19 21 19 19 21 22 23 25 27 30 31 32 33 34 36 38 41 44 46 47 50 54 57 59 62 64 67 69 69 68 67 65
24 25 24 25 26 26 24 23 21 20 20 18 17 19 18 18 20 21 20 24 28 29 30 32 34 36 38 37 37 40 45 50 54 57 60 63 66 69 71 71 71 72 73 73
25 23 22 24 21 20 21 22 21 21 20 18 17 17 18 20 21 19 19 23 25 28 30 32 32 31 31 34 37 43 46 49 51 55 57 58 62 68 73 74 73 72 71 71
23 21 19 18 19 18 18 19 18 17 15 15 16 16 18 21 19 18 21 25 26 24 23 25 27 30 32 37 39 42 44 46 47 48 50 57 61 60 70 70 70 70 70 68
17 17 17 18 19 20 19 19 19 17 15 13 14 16 16 18 17 21 22 23 20 21 23 24 25 26 28 32 36 39 41 43 44 44 47 50 44 45 49 46 51 62 61 63
15 15 14 13 14 16 17 16 15 13 11 13 15 15 17 16 16 20 19 18 18 18 19 21 24 22 25 30 32 36 37 35 39 42 41 41 37 38 33 34 38 38 44 51
14 14 15 15 14 15 15 14 12 12 12 13 15 14 15 15 15 16 16 17 18 19 19 19 19 20 24 27 28 30 28 30 36 37 32 27 25 26 30 22 18 23 27 33
15 16 15 16 16 15 14 12 12 13 14 15 13 14 15 15 14 13 16 19 20 20 18 19 16 19 23 21 23 23 22 27 29 27 24 19 17 14 11 14 16 19 22 24
16 15 14 14 14 13 12 12 12 12 12 13 13 13 13 13 13 14 18 21 23 23 20 17 17 21 20 18 19 24 22 23 27 22 20 17 16 14 13 13 16 18 20 21
15 15 15 15 13 12 11 11 12 13 13 12 13 12 12 14 12 13 14 13 13 16 18 16 15 14 17 17 17 16 20 20 21 20 18 17 18 12 8 10 9 5 6 7
16 15 14 13 12 11 11 12 13 12 13 12 13 13 14 12 12 11 9 9 12 14 15 15 11 11 14 12 12 14 14 16 15 17 18 15 13 8 7 8 8 5 6 9
16 15 14 13 12 12 13 12 13 13 13 13 14 13 12 11 10 9 9 11 12 13 12 11 9 11 14 11 12 10 13 13 11 14 13 8 11 16 5 13 5 7 2 5
16 15 14 14 14 14 13 14 15 15 13 14 14 11 9 10 9 8 10 10 10 12 12 11 11 9 9 9 7 10 10 11 7 14 14 9 9 16 14 12 6 6 9 11
20 19 18 18 17 16 16 16 16 16 16 14 13 10 10 9 8 9 10 10 9 11 11 11 11 9 8 7 11 6 9 8 7 5 11 12 12 12 12 12 10 8 7 7
21 23 21 20 18 17 17 18 17 18 17 16 12 10 7 8 10 11 12 13 12 12 12 12 12 12 10 8 6 8 4 6 7 7 9 10 10 10 10 9 8 7 8 9
21 21 20 19 19 17 18 19 19 18 18 16 13 11 9 8 11 12 13 14 14 14 12 12 11 12 9 8 6 5 4 5 7 8 8 9 9 8 8 8 9 10 11 12
21 21 20 19 20 18 20 21 21 20 21 19 15 12 12 12 13 15 14 14 16 14 13 14 13 12 10 7 6 4 4 5 7 8 9 10 10 11 11 13 14 14 15 16
21 21 20 19 21 20 22 23 23 24 25 24 21 18 17 16 16 17 17 16 15 16 13 13 15 14 13 9 7 4 3 4 7 10 12 14 15 16 16 17 17 18 19 20

GFSCGP_500_spd_054.txt.gz
Wind_Speed
38 38 37 49 52 52 46 41 41 42 39 39 39 38 37 36 37 37 39 42 43 43 41 42 39 38 37 38 38 38 39 39 42 44 44 44 44 45 46 46 47 48 48 48
40 39 37 48 53 52 48 45 43 44 41 39 38 38 37 36 35 35 36 38 41 43 43 42 41 40 40 40 40 40 41 41 41 44 45 46 49 49 48 48 48 48 49 49
38 35 34 41 51 51 51 46 41 40 41 37 36 39 38 37 34 34 36 38 40 41 43 44 43 43 43 42 42 42 43 44 44 43 44 46 48 49 50 50 50 50 51 52
36 36 34 40 48 49 50 49 49 41 40 39 38 39 38 37 36 36 37 38 39 40 42 43 43 43 42 42 42 43 43 44 44 44 44 45 46 48 48 50 52 53 55 55
29 31 31 39 39 43 46 46 48 45 41 39 37 37 36 34 34 35 36 37 39 39 40 41 42 42 41 40 40 41 42 42 44 44 45 46 46 47 49 50 51 52 55 56
24 30 30 31 34 38 39 40 42 40 40 40 38 37 37 35 34 34 34 36 38 39 39 39 39 39 38 39 40 41 42 42 42 42 43 44 45 47 49 50 51 53 54 56
27 22 28 34 32 32 39 38 40 41 38 39 37 36 38 36 35 34 34 35 36 36 36 34 34 35 37 38 39 41 40 41 41 42 42 43 45 47 49 50 52 54 56 56
24 25 25 26 25 27 29 35 40 41 41 38 35 35 35 33 32 32 32 32 31 30 31 32 33 35 38 39 39 38 38 39 40 42 44 47 49 51 52 55 58 59 60 61
19 24 28 23 27 26 28 25 29 31 34 31 31 31 29 29 28 29 28 28 28 30 31 31 32 32 33 33 34 36 37 40 42 45 46 47 51 56 60 62 64 65 66 67
22 20 24 28 29 25 22 21 23 26 26 24 25 25 24 24 25 27 26 26 26 27 27 28 28 29 30 32 35 38 39 40 41 44 49 54 58 59 61 64 67 69 69 69
22 21 23 27 29 24 24 20 22 24 24 23 21 25 22 23 25 24 23 23 24 25 25 26 28 29 32 33 32 32 36 38 42 46 49 52 56 59 62 63 64 64 64 67
21 20 21 24 24 23 22 23 23 24 22 19 21 22 24 25 25 20 22 22 23 23 25 26 27 26 25 28 30 31 33 36 38 42 45 43 46 52 57 58 58 61 63 64
19 15 15 17 21 20 18 18 21 20 20 21 22 23 24 23 18 20 21 22 22 23 23 21 21 25 27 26 29 28 30 31 33 27 28 35 42 50 44 46 49 46 46 50
24 22 21 20 18 20 20 18 17 18 19 20 23 22 22 19 19 20 21 22 20 19 21 22 21 21 22 23 23 26 26 29 28 30 34 35 39 42 38 37 36 35 39 45
18 18 17 18 18 19 19 19 17 19 22 21 20 19 18 18 19 20 20 19 19 20 21 20 20 20 22 20 22 23 21 25 31 36 36 34 34 34 32 32 30 27 28 23
15 17 17 17 18 16 18 18 19 19 17 19 18 19 18 19 18 16 16 17 16 18 21 22 22 23 21 20 22 21 19 20 20 25 27 28 30 31 28 23 22 20 20 19
16 18 19 18 18 18 16 16 17 17 18 17 17 17 17 15 15 14 14 16 18 19 22 24 26 23 24 25 22 20 19 16 16 19 20 21 21 23 25 24 20 21 22 20
17 17 17 17 17 17 16 16 16 15 15 16 15 16 16 15 14 15 15 12 13 15 15 15 18 19 21 19 18 16 14 15 14 17 15 14 17 15 16 18 19 16 15 14
18 18 18 17 16 15 15 15 15 14 15 15 16 15 17 15 14 13 11 12 13 11 10 11 12 15 18 16 15 15 17 15 14 15 13 12 16 14 13 12 11 16 14 6
17 18 17 17 16 16 15 13 13 13 15 15 16 17 16 15 14 13 11 14 10 8 10 12 13 15 18 19 15 11 10 13 12 11 10 13 12 15 13 12 11 13 13 7
18 18 18 18 17 16 14 13 13 15 14 15 16 16 15 14 13 12 12 9 8 7 9 10 11 13 14 14 15 15 14 13 10 9 9 11 9 10 10 12 12 12 12 13
19 19 19 18 17 17 15 16 16 16 16 17 16 15 15 14 12 13 13 9 8 8 10 11 12 12 11 13 11 12 10 11 10 11 12 9 8 9 10 10 11 11 12 11
22 22 20 20 19 19 18 17 17 18 17 17 17 16 16 13 12 13 12 11 10 11 12 12 13 12 11 12 11 11 11 10 9 7 6 7 9 10 11 12 12 13 13 13
22 23 23 23 22 21 20 19 19 20 19 19 21 19 16 14 12 12 11 12 14 11 12 13 14 14 13 12 12 11 11 8 7 6 7 8 10 12 12 13 14 14 13 13
23 23 22 22 23 22 21 21 22 23 21 22 22 21 18 16 14 14 13 13 15 14 14 14 15 16 15 14 13 12 11 8 7 6 8 10 11 12 13 14 14 15 15 17
19 21 22 22 24 23 23 21 23 26 23 24 26 25 22 19 17 17 16 16 16 16 14 14 14 15 15 15 15 13 13 11 9 9 11 12 13 15 17 17 17 19 19 20

GFSCGP_500_spd_057.txt.gz
Wind_Speed
45 46 41 40 51 51 54 48 44 41 45 47 43 43 46 44 45 45 45 46 45 44 45 42 41 41 38 38 37 38 38 38 38 39 41 39 43 44 46 46 45 45 45 46
40 38 34 44 49 54 52 49 46 41 39 42 42 41 41 38 41 42 41 40 43 44 44 44 42 41 38 37 37 37 37 38 38 41 41 41 42 44 47 48 48 47 48 48
38 34 39 41 47 52 52 48 47 42 36 42 41 39 40 37 36 35 34 35 36 37 38 39 39 38 37 37 37 37 38 39 41 42 43 44 41 43 45 45 48 50 52 52
36 32 31 40 41 52 53 50 49 42 39 39 38 38 40 38 36 33 34 34 34 34 35 36 37 37 37 37 38 38 39 40 41 42 43 44 45 44 45 47 48 50 53 55
30 31 32 31 36 49 52 49 47 45 42 38 39 38 42 37 36 35 34 34 34 34 34 35 37 38 38 39 39 39 39 40 40 41 42 43 44 44 45 47 49 51 52 55
30 32 30 30 37 46 48 48 46 43 42 40 36 37 41 37 36 35 38 35 34 35 37 38 39 39 39 39 39 39 40 40 39 40 41 42 43 44 45 47 48 50 52 54
25 33 37 31 32 40 44 45 43 44 44 45 37 37 42 35 36 35 33 33 34 35 36 38 38 39 38 38 38 38 38 38 39 40 41 41 41 42 44 45 47 50 52 55
24 31 36 27 33 32 36 38 42 44 47 45 42 41 43 37 35 35 34 34 35 35 36 37 38 37 37 37 36 36 38 40 40 40 39 39 40 42 44 47 49 52 55 58
19 29 26 35 33 31 36 38 37 40 42 40 39 41 39 38 35 35 35 35 34 35 35 35 35 35 35 35 37 38 37 36 35 36 38 39 40 41 45 50 55 59 63 66
21 25 29 26 24 33 27 26 34 37 36 37 38 40 38 35 34 33 33 32 32 32 33 34 34 34 34 34 33 31 31 32 34 36 36 37 40 44 48 52 56 58 59 65
20 21 26 26 27 28 29 28 28 27 34 31 34 38 36 35 32 31 31 30 30 31 32 32 31 31 29 28 29 29 30 31 32 33 33 36 40 45 49 45 43 52 59 64
18 17 18 20 23 25 22 22 20 21 24 26 26 29 31 30 31 29 28 28 29 28 28 28 28 28 27 26 25 26 29 30 29 31 33 37 39 38 39 46 49 53 58 55
22 16 17 19 22 23 22 21 22 22 22 22 24 28 26 29 28 27 27 26 26 25 25 26 26 25 23 23 25 26 26 28 28 29 32 32 38 41 46 44 45 52 54 50
21 21 19 19 18 19 18 16 20 24 23 24 25 23 27 25 23 23 23 24 25 25 24 23 22 22 23 24 24 24 26 25 27 25 24 28 34 34 34 39 44 48 46 39
21 20 20 20 18 19 20 20 16 13 22 26 28 26 26 22 22 23 24 24 24 23 22 22 23 24 25 24 23 24 25 26 25 25 22 23 26 26 28 31 36 38 41 40
17 19 20 19 21 21 20 20 21 23 20 21 23 23 20 20 22 22 22 22 22 21 22 23 24 25 26 26 26 27 29 30 26 22 20 22 22 23 22 26 26 29 32 33
18 16 17 17 17 17 17 18 19 20 24 25 21 23 19 21 20 20 20 19 19 19 20 21 23 25 27 29 27 29 29 26 25 24 22 24 24 22 24 23 23 25 28 28
16 17 19 18 19 20 17 19 21 22 22 21 21 20 21 21 19 18 18 16 16 16 16 15 15 17 19 24 27 27 23 22 20 23 24 25 23 23 24 24 23 23 22 22
18 19 20 20 19 19 19 18 18 19 19 20 20 21 21 19 17 17 17 17 16 14 14 13 13 14 16 17 19 21 23 22 24 21 24 25 21 21 21 23 20 21 21 21
19 18 20 20 19 19 16 17 18 18 18 19 20 20 20 18 18 17 16 16 15 14 13 14 12 11 13 17 20 22 24 21 18 18 19 19 14 20 21 18 17 16 18 17
20 19 19 19 19 18 17 17 18 18 16 18 19 19 19 19 17 17 16 17 15 15 14 12 10 12 14 16 18 20 20 22 21 19 20 19 23 20 16 16 18 19 20 19
20 20 20 21 19 20 17 18 18 16 17 18 18 18 19 20 17 18 18 18 15 16 16 12 12 13 14 16 17 18 19 19 19 18 17 17 17 15 16 17 18 19 20 20
20 20 20 21 21 21 19 19 18 17 18 18 19 19 20 21 18 19 18 16 15 18 16 16 15 14 15 16 16 16 18 18 18 18 16 15 15 15 16 17 19 19 19 19
25 25 23 24 24 23 22 22 21 21 20 21 21 22 21 20 21 19 15 12 14 17 17 17 17 15 16 17 18 18 18 18 17 18 16 15 14 14 15 16 18 18 18 18
25 26 27 28 29 30 28 26 24 24 23 24 23 23 23 22 22 19 15 13 13 14 16 17 16 18 17 18 19 18 19 19 17 17 16 14 14 15 15 16 17 17 18 19
25 27 27 27 29 28 26 26 25 25 25 25 25 24 25 24 24 21 18 16 15 15 15 16 18 19 19 19 18 18 19 19 18 18 18 17 17 17 17 18 17 19 21 21

GFSCGP_500_spd_060.txt.gz
Wind_Speed
47 48 46 36 31 34 46 51 49 46 48 49 45 47 43 44 47 42 43 45 45 42 42 43 42 39 38 38 39 38 38 37 37 37 38 38 36 38 39 40 41 41 41 41
50 44 39 33 31 38 50 51 47 49 47 42 43 49 43 44 42 46 44 45 43 41 43 43 40 40 42 41 40 38 38 38 38 37 39 41 37 36 40 43 42 42 45 45
48 42 41 36 33 39 47 48 48 50 42 35 39 50 48 41 39 43 44 43 44 43 41 41 40 42 41 41 40 38 38 37 37 37 38 40 42 38 38 42 44 45 47 47
46 43 37 38 29 36 47 46 46 49 38 37 36 41 48 45 37 38 41 43 42 39 39 37 39 40 40 38 36 35 36 37 36 37 39 40 42 43 41 40 43 45 47 49
36 36 30 31 31 29 40 46 47 45 41 42 37 36 38 45 38 36 35 34 34 33 32 32 33 33 33 33 32 34 34 34 35 37 39 40 41 42 42 42 43 45 47 48
28 29 24 24 27 30 33 44 44 44 44 44 39 35 36 42 35 33 33 33 33 31 31 31 32 31 31 32 33 34 35 36 37 38 38 39 39 40 41 42 44 45 46 47
25 26 28 24 26 29 30 39 42 45 44 43 38 37 35 37 42 34 32 31 33 35 33 32 32 32 33 36 37 37 37 38 38 38 38 38 38 40 42 42 42 42 43 44
26 27 28 28 30 26 30 33 40 45 45 42 40 38 34 37 34 31 32 34 32 34 37 37 35 35 35 36 38 38 38 37 37 37 38 39 40 38 36 38 39 40 41 45
24 29 30 29 32 25 24 31 33 38 42 41 41 39 38 36 29 31 31 31 33 32 32 34 35 36 37 37 38 37 36 35 36 38 38 36 35 35 35 35 36 40 44 48
20 23 33 28 27 31 27 23 32 36 35 38 42 41 36 36 37 33 32 32 34 34 35 36 37 37 37 37 36 35 35 35 36 34 33 33 33 31 32 33 38 43 46 44
16 17 23 26 32 26 23 27 27 30 31 31 34 37 36 34 32 33 31 32 33 34 35 36 36 36 36 35 34 34 34 33 32 32 31 31 30 30 32 37 39 41 43 46
17 21 23 23 25 26 34 24 22 20 26 29 34 35 33 32 33 32 32 32 32 33 33 32 32 32 32 32 31 31 31 31 30 30 30 29 29 31 34 32 37 40 40 39
16 16 20 23 23 22 30 30 28 22 20 23 28 31 29 29 31 32 34 33 31 31 30 29 29 29 29 29 28 28 29 29 29 27 27 26 27 27 30 30 29 31 33 34
19 17 17 18 20 21 19 19 19 18 17 17 20 21 21 24 23 27 26 29 29 28 27 26 25 25 26 26 27 27 27 27 27 27 26 28 25 25 26 24 27 26 28 29
21 20 19 16 16 16 17 18 17 18 20 24 28 24 24 24 21 21 25 25 25 25 25 24 24 25 26 27 26 26 27 28 27 27 27 27 27 25 27 28 29 29 29 32
18 22 22 20 19 19 18 17 18 18 16 21 26 26 23 19 20 23 22 24 24 23 23 23 23 25 26 28 30 30 31 31 29 29 31 31 29 27 29 27 28 29 31 31
13 18 21 20 21 22 20 19 19 20 24 23 20 23 18 17 20 21 22 22 22 23 23 24 25 25 27 29 30 32 31 30 28 29 28 28 28 29 28 28 30 29 29 29
14 15 16 16 19 20 18 18 19 21 23 21 23 22 20 21 21 21 22 23 22 22 21 22 22 21 19 18 18 20 22 25 26 26 27 25 26 29 28 27 25 28 27 27
17 16 15 19 17 17 17 16 17 18 20 20 20 20 21 20 19 19 20 20 20 20 20 19 16 16 15 15 17 18 18 20 22 24 25 26 24 23 21 22 24 25 23 23
19 17 17 18 16 18 13 16 16 18 19 20 20 20 20 20 19 19 19 19 19 18 17 16 15 14 11 13 13 13 16 20 22 23 24 23 22 22 23 23 23 22 23 25
19 18 17 18 18 17 14 18 18 18 16 19 19 19 20 20 18 19 20 20 19 17 16 16 14 12 14 14 13 14 16 18 20 21 22 21 22 23 22 21 20 22 23 25
18 18 18 18 17 18 16 18 16 15 15 17 18 19 19 19 19 20 21 20 18 17 17 16 17 16 16 15 14 15 17 18 19 20 20 21 20 19 19 19 20 21 21 23
17 17 18 19 18 18 18 17 18 17 17 17 18 18 19 19 20 23 21 20 19 18 18 18 19 20 18 17 16 17 18 20 21 21 20 19 19 19 19 19 19 19 20 22
20 19 18 20 21 20 20 20 20 18 18 18 18 20 21 22 21 22 22 20 19 18 17 16 19 20 19 18 19 19 20 20 21 21 20 20 20 19 18 18 18 19 19 20
20 23 24 24 24 25 24 24 23 22 21 22 22 21 22 23 24 22 23 20 19 16 14 14 17 16 17 18 19 20 20 19 21 22 21 20 19 19 19 20 20 21 20 21
20 22 23 26 28 30 29 27 29 28 26 25 26 24 24 25 25 24 24 22 20 17 13 12 14 16 17 18 18 20 22 23 22 21 22 22 22 23 23 22 22 23 24 24

GFSCGP_500_spd_063.txt.gz
Wind_Speed
44 44 43 38 36 33 30 36 43 43 45 48 41 43 48 45 43 44 40 43 42 39 39 41 41 40 39 36 35 38 39 36 34 34 36 36 36 36 36 36 36 36 38 38
48 36 35 39 37 34 33 33 40 44 47 45 46 41 44 45 43 43 45 45 44 44 44 42 39 36 36 38 39 38 39 39 39 38 39 38 37 35 36 38 38 41 41 41
44 36 36 37 37 32 30 26 33 40 46 46 45 46 40 43 44 41 39 45 45 45 44 43 39 37 39 39 39 40 41 41 41 41 40 40 40 36 35 36 39 42 45 45
43 39 33 37 34 28 27 29 35 43 43 44 40 39 40 43 46 46 39 41 46 43 41 39 37 35 36 38 40 40 42 43 43 41 40 40 40 39 38 37 38 41 44 45
37 37 31 30 29 27 28 32 35 38 43 45 42 41 35 44 45 45 42 42 41 40 42 37 36 36 37 38 41 42 42 40 37 37 36 37 38 39 40 40 40 41 42 44
39 34 36 28 31 31 28 31 33 36 44 46 38 37 35 36 42 46 44 38 38 36 36 38 39 36 36 36 38 39 37 34 33 34 35 38 39 39 40 41 40 41 42 42
32 37 37 33 35 28 34 24 32 36 43 43 37 38 36 35 36 43 43 40 39 40 37 34 34 33 32 32 33 34 32 33 34 36 39 39 39 40 40 40 40 42 43 41
30 33 35 29 27 30 32 25 20 32 38 39 39 39 34 32 33 37 43 36 35 36 36 34 32 30 30 33 34 35 36 37 38 39 40 40 39 38 38 40 40 38 38 38
24 24 25 26 28 31 27 22 21 24 31 36 41 38 32 32 31 32 41 36 33 32 32 32 35 38 37 38 38 38 39 39 39 40 39 38 37 38 39 38 37 37 35 35
20 24 26 28 26 26 29 22 21 26 29 33 38 38 35 32 27 26 30 35 33 33 34 34 33 35 36 37 39 39 39 40 39 38 36 36 37 37 36 36 33 33 34 37
15 19 27 30 31 22 28 23 22 22 25 27 28 36 35 32 28 27 30 33 33 34 34 36 38 38 38 39 39 39 38 37 36 34 35 35 35 35 33 32 32 33 35 36
12 11 18 30 30 25 22 23 21 21 21 23 24 27 28 30 31 28 26 30 34 33 34 36 37 38 38 37 37 35 34 33 34 34 34 34 33 32 31 32 31 31 32 29
15 14 13 18 28 32 29 27 24 21 16 21 22 23 22 24 24 25 25 28 30 31 31 31 33 33 32 32 32 31 31 31 32 32 32 32 30 29 31 29 28 26 27 29
13 15 18 18 17 20 20 23 26 23 23 23 24 20 18 21 24 24 24 28 30 31 31 28 28 27 27 28 29 28 29 30 31 31 31 29 29 31 30 30 31 28 28 29
17 15 14 16 20 21 22 20 23 25 19 20 19 17 15 18 19 21 19 24 25 24 24 25 25 24 24 25 26 28 28 29 30 30 28 29 30 30 31 31 32 32 31 28
18 23 22 20 18 17 18 20 19 19 23 21 24 22 20 16 14 18 20 22 22 22 21 22 22 23 24 25 27 29 29 30 30 30 32 33 33 34 34 33 33 31 30 31
15 19 22 24 23 22 20 19 19 21 22 22 21 18 18 16 16 20 21 22 20 21 22 23 23 24 25 26 26 27 27 29 31 34 35 33 30 29 30 30 29 29 27 29
12 14 19 21 24 24 21 22 21 21 23 22 22 23 14 12 17 20 19 20 19 20 21 21 22 23 22 23 24 25 24 22 21 22 24 24 26 26 26 27 28 28 25 25
13 13 14 16 18 18 17 19 20 19 22 21 22 22 18 18 19 19 20 20 21 21 21 21 21 21 21 20 19 18 18 17 18 19 21 23 23 23 21 24 24 23 23 24
14 16 18 15 16 17 15 17 18 18 16 16 16 16 16 19 18 21 21 22 22 21 21 20 20 19 18 17 17 14 14 14 15 17 19 20 21 23 24 25 25 24 24 25
15 15 18 17 15 15 15 17 17 15 14 15 16 17 18 19 19 20 20 21 20 19 20 20 20 18 18 18 17 15 15 14 14 14 16 18 18 20 22 22 21 22 23 24
16 16 17 16 14 15 16 14 16 16 17 17 16 16 19 19 20 21 21 20 20 21 20 20 19 20 19 19 18 15 16 16 15 15 17 18 19 19 19 19 20 21 22 22
17 16 16 16 16 16 16 16 17 18 17 16 16 17 16 17 18 18 18 19 21 22 21 20 20 21 21 20 20 17 19 18 17 19 19 18 19 20 20 20 20 20 21 21
17 18 17 17 16 17 16 17 17 17 17 16 15 15 16 18 19 20 20 21 23 24 22 21 22 22 19 19 19 16 18 18 19 20 19 20 20 20 20 20 20 21 21 22
15 18 21 20 19 17 17 17 18 18 18 19 18 18 18 19 21 21 22 22 22 25 23 22 20 19 17 17 17 16 17 18 20 21 20 21 22 21 21 21 24 25 24 24
14 17 17 19 21 23 22 23 24 23 23 24 24 23 24 24 23 24 24 25 24 27 22 22 18 16 14 15 16 16 17 19 21 23 24 23 23 23 24 25 28 31 31 29

GFSCGP_500_spd_066.txt.gz
Wind_Speed
55 53 40 36 40 38 32 29 33 37 39 40 40 39 46 44 42 40 44 45 47 46 46 45 45 44 42 40 39 37 35 35 37 36 36 35 33 34 34 34 33 35 35 35
46 36 32 39 40 36 31 29 30 35 39 41 41 44 40 44 42 39 41 43 45 48 49 47 45 45 41 38 38 39 40 40 38 36 36 36 37 37 38 38 37 36 36 38
38 40 33 36 38 35 31 24 26 31 35 38 42 48 47 40 40 38 37 40 45 45 48 49 46 43 42 41 40 40 38 39 39 38 37 37 38 39 39 40 41 40 40 40
41 38 34 34 36 34 31 28 28 28 30 35 36 43 45 40 41 40 39 38 41 44 48 47 49 47 43 43 41 40 38 37 38 38 39 39 40 40 41 39 38 39 42 44
41 35 34 33 34 35 32 29 27 28 26 30 35 38 42 46 41 42 38 40 40 42 44 45 45 45 42 42 47 48 47 44 43 42 40 40 41 41 40 38 37 39 41 43
41 39 34 33 33 31 27 26 27 27 31 31 32 35 44 42 41 42 40 40 42 41 40 40 43 41 42 41 40 42 46 44 41 42 44 44 41 38 37 38 40 41 42 43
41 38 30 31 32 29 29 25 26 28 31 31 34 39 37 39 41 40 45 43 42 45 43 40 38 38 42 41 40 41 43 44 44 44 43 41 39 39 40 42 43 45 44 43
37 39 32 27 27 27 30 28 25 23 24 31 32 36 33 38 40 37 40 44 43 44 43 41 38 36 38 40 41 40 39 39 39 38 37 38 40 42 42 43 43 43 43 42
26 30 30 29 29 26 29 28 29 26 22 20 29 33 33 35 39 34 35 39 46 44 42 40 40 40 39 39 38 37 37 36 37 38 39 41 43 43 43 43 42 42 42 42
29 28 32 33 32 37 27 23 24 23 23 20 20 26 32 32 31 32 33 33 37 47 40 39 39 40 39 38 38 38 39 41 43 43 46 45 45 45 43 41 41 41 40 40
19 23 28 31 29 25 30 28 24 20 19 19 20 22 28 30 31 31 30 33 36 42 41 39 38 37 37 38 40 42 43 43 43 43 45 44 42 41 40 39 39 39 39 38
11 16 23 23 25 26 28 27 27 26 22 21 21 18 18 23 26 29 30 32 31 36 39 38 38 39 40 41 41 41 41 42 43 42 41 39 38 38 37 37 37 37 37 36
12 13 21 24 27 29 30 26 25 25 21 22 22 17 16 17 18 21 26 30 37 36 37 40 39 38 39 40 41 41 42 41 38 36 35 36 35 34 34 35 35 35 35 35
16 15 13 16 22 27 31 26 24 26 26 18 13 11 12 16 18 20 21 22 24 25 35 38 34 33 31 33 34 34 34 33 32 32 32 32 32 33 33 33 34 35 35 35
15 15 14 15 17 18 21 27 25 28 27 26 15 14 15 16 20 22 23 23 24 27 28 29 31 29 28 27 28 28 28 28 29 30 30 31 32 32 32 32 33 34 36 35
17 17 16 15 18 20 19 20 21 18 26 27 20 16 14 15 16 16 16 20 20 22 24 23 22 24 24 25 25 25 26 27 28 29 30 31 31 32 33 34 36 37 36 34
18 22 23 22 20 20 19 18 18 22 24 23 24 18 21 18 19 20 21 20 19 19 22 23 23 24 25 24 25 25 26 26 27 28 30 31 32 34 35 35 32 32 31 29
14 17 21 24 27 28 21 21 21 21 23 24 20 21 17 13 19 24 23 20 21 21 21 21 23 24 24 24 24 26 25 25 26 26 26 25 25 25 26 27 28 28 29 29
13 13 15 18 23 24 23 25 24 24 25 24 24 24 20 19 19 17 17 19 19 20 20 21 22 22 21 21 21 22 22 21 20 20 20 20 21 22 23 25 25 26 25 27
13 15 16 16 19 18 18 21 22 23 21 20 21 22 18 19 19 20 20 20 19 20 20 21 21 21 21 21 21 20 19 19 16 17 18 18 18 19 20 21 23 25 26 27
14 14 16 18 18 15 16 20 19 19 19 19 16 16 16 17 19 19 20 21 21 21 21 20 20 20 21 21 19 19 18 19 18 16 16 17 16 16 17 20 21 23 24 25
14 15 15 16 17 18 17 17 17 18 18 16 17 18 17 16 18 18 18 19 19 19 20 20 20 20 20 21 20 19 19 20 20 17 17 18 18 18 18 19 21 22 23 23
17 15 15 16 17 17 17 17 18 19 19 18 18 18 17 17 19 19 19 19 19 20 20 21 22 21 21 20 21 21 20 21 20 18 20 21 20 19 20 20 20 21 22 24
16 17 16 16 16 18 17 17 18 18 19 18 18 18 18 17 17 18 18 19 21 21 21 22 22 22 22 22 23 23 21 19 20 19 19 20 20 21 21 21 22 22 23 25
17 16 17 17 19 17 18 19 18 19 19 19 19 18 18 17 17 18 20 22 22 22 22 23 24 24 23 23 23 24 20 20 20 20 19 20 21 23 23 22 23 25 27 29
21 19 17 17 19 22 22 22 21 21 21 21 21 21 21 20 20 21 22 23 24 25 25 24 24 26 22 23 24 24 20 20 21 20 20 21 23 24 24 25 25 26 29 32

GFSCGP_500_spd_069.txt.gz
Wind_Speed
49 52 45 45 45 40 33 32 26 34 47 51 56 58 53 54 53 47 50 50 47 46 51 52 50 49 47 44 42 42 42 42 42 41 39 37 35 35 34 33 33 33 35 35
52 43 39 40 43 42 36 31 28 27 31 38 45 49 39 44 49 52 46 47 47 49 49 51 52 51 47 46 45 43 42 41 42 43 42 39 38 37 36 36 36 36 37 37
45 45 35 36 40 41 37 29 26 25 25 36 40 44 47 39 41 41 46 42 44 45 46 48 52 52 49 47 46 45 44 43 42 41 39 39 39 38 38 38 39 39 38 39
43 43 39 35 39 37 35 29 26 27 25 24 31 39 39 42 41 39 39 37 41 43 44 45 48 50 51 49 47 46 46 45 43 43 42 40 40 39 39 39 41 42 44 44
45 44 40 36 40 38 34 31 25 22 22 24 26 31 32 41 45 37 35 37 38 38 40 43 46 47 48 47 47 47 47 46 44 42 41 41 41 39 39 40 41 43 45 44
45 43 37 34 38 38 36 33 29 27 26 24 25 26 31 35 40 41 38 38 40 40 39 40 42 44 44 45 49 51 50 49 50 49 50 52 51 48 45 43 44 42 41 41
38 38 33 31 35 37 35 32 30 27 25 20 25 29 23 30 38 42 43 41 41 42 40 40 41 43 45 47 47 48 47 47 48 47 46 47 49 49 46 45 43 42 41 44
40 37 33 30 30 32 34 32 30 27 23 20 24 23 26 26 35 43 47 45 41 41 44 45 43 40 39 39 42 45 44 45 45 44 45 46 47 48 47 44 41 42 45 47
29 31 30 29 29 30 30 30 27 25 23 19 20 24 27 32 37 40 45 46 43 40 45 46 45 43 40 38 39 41 44 46 46 46 46 45 44 43 41 41 43 46 46 46
33 31 28 26 28 29 28 26 27 23 22 24 23 21 22 29 33 39 41 39 39 36 43 47 46 45 44 42 41 41 41 43 44 44 43 41 40 40 42 45 48 49 47 46
23 25 29 29 26 25 28 28 26 22 22 21 21 17 18 23 29 34 36 34 39 39 38 44 49 46 45 45 44 43 44 43 43 42 41 42 45 48 50 50 49 47 46 44
21 24 29 33 34 32 31 32 34 28 22 22 23 17 17 19 24 29 31 31 38 38 40 40 42 49 43 45 44 44 44 44 44 45 48 49 48 47 47 47 45 43 42 41
19 14 20 23 26 33 35 29 25 24 26 26 25 17 15 16 15 18 20 27 30 33 40 39 40 42 42 41 42 43 43 42 42 44 44 46 47 49 46 42 40 39 38 37
19 16 18 25 28 29 27 24 23 24 27 27 20 14 14 17 17 18 23 25 27 30 36 39 37 42 38 39 39 40 41 45 48 47 46 45 44 41 39 38 36 35 35 35
16 17 17 15 20 26 29 27 30 31 26 27 22 19 16 16 17 20 23 26 25 24 25 36 38 39 42 39 37 38 39 39 39 38 37 36 36 35 35 34 33 33 34 33
14 15 16 15 17 17 19 24 28 31 32 29 25 24 21 17 17 17 17 25 28 26 24 24 26 27 33 40 34 32 32 31 31 31 31 31 31 31 31 32 33 34 35 36
14 15 17 17 17 17 19 18 19 21 23 23 21 19 24 20 15 17 20 19 19 24 24 25 25 26 26 26 28 29 28 28 28 28 28 29 30 30 32 33 33 35 36 35
13 16 18 18 23 24 18 20 21 21 21 24 20 21 19 16 15 20 24 22 18 20 18 19 21 24 24 25 26 27 28 28 27 27 27 27 27 28 27 28 27 27 27 27
13 14 16 19 21 23 22 24 25 25 22 23 20 21 20 18 19 16 18 23 23 21 22 22 22 23 24 26 27 27 27 26 24 25 25 24 23 22 23 23 24 24 26 27
15 14 15 16 18 18 17 19 22 24 23 25 23 25 23 21 20 20 24 20 20 21 22 22 22 23 23 23 22 23 23 22 21 22 22 21 19 19 20 20 21 20 21 23
16 16 16 16 17 16 17 17 19 22 22 22 21 20 19 22 24 26 23 23 23 23 21 21 22 22 23 23 21 21 21 21 20 21 20 19 19 18 18 19 19 20 21 21
16 16 16 17 16 16 19 19 20 20 20 19 19 17 18 21 21 20 21 22 23 24 24 23 21 22 23 24 23 22 21 21 20 21 21 21 20 18 19 20 20 21 22 22
19 18 17 17 17 18 19 20 20 20 19 19 18 18 19 19 20 21 21 20 21 21 20 20 21 22 23 21 21 21 21 22 21 21 22 23 21 19 19 20 22 22 23 24
21 21 18 18 18 19 20 21 21 21 22 21 22 22 21 21 19 19 22 20 20 17 16 18 21 21 22 23 23 23 23 24 25 25 23 23 20 19 20 21 23 23 24 26
21 20 20 19 20 20 20 21 21 21 21 22 22 22 21 20 21 21 21 21 20 24 28 26 25 24 24 23 24 23 24 26 26 27 24 22 21 21 21 21 23 24 25 26
24 23 22 21 21 20 23 23 22 22 23 22 22 22 23 23 22 21 21 20 21 22 23 25 26 26 23 24 25 26 23 26 26 27 25 22 22 22 23 23 25 25 27 28

GFSCGP_500_spd_072.txt.gz
Wind_Speed
44 48 44 51 47 42 35 33 36 40 38 42 44 50 52 61 64 57 58 57 60 61 60 59 56 56 53 50 48 46 44 43 41 41 41 41 39 38 38 36 35 35 35 34
48 43 37 46 46 43 38 33 35 33 38 42 48 56 53 64 58 51 52 55 52 57 62 63 61 58 56 53 49 47 47 46 45 45 44 44 42 40 39 38 38 38 37 37
48 44 40 46 44 42 39 33 31 30 27 31 38 54 53 53 62 48 55 58 54 55 58 59 59 59 59 55 52 50 49 48 48 46 47 46 45 44 42 42 41 41 41 41
47 41 34 39 41 40 37 33 29 30 25 25 32 43 44 44 51 56 47 49 51 52 51 49 48 49 50 50 50 50 50 49 48 47 47 46 45 44 44 43 43 43 44 43
44 42 37 35 37 40 37 33 29 28 26 18 24 39 40 41 44 47 46 48 48 50 46 45 46 47 52 52 51 50 49 49 48 48 47 47 46 46 45 44 43 43 43 44
42 42 26 34 33 36 35 34 31 27 21 15 12 21 24 38 35 38 38 39 44 51 45 43 42 43 46 48 50 51 51 49 48 48 48 49 49 48 48 47 47 48 53 53
40 37 30 31 29 35 35 36 32 29 23 17 16 14 12 17 28 32 41 38 42 42 44 45 43 43 45 46 48 49 50 52 52 52 51 50 50 49 51 52 52 52 49 50
37 33 33 32 31 36 38 36 33 30 24 20 16 11 11 16 24 30 35 42 43 43 42 44 46 45 44 46 46 46 47 48 49 51 52 52 52 50 49 47 46 46 47 46
33 35 31 27 28 36 35 35 31 29 26 21 18 15 18 21 28 32 35 40 41 45 44 44 47 46 45 44 43 43 44 45 46 49 50 51 51 50 47 47 47 46 45 43
29 34 28 25 27 31 33 32 30 28 26 23 20 17 16 24 28 34 37 39 42 45 47 47 45 46 47 45 44 44 43 43 43 43 45 48 49 49 49 48 45 42 41 42
27 28 25 24 26 27 30 31 30 29 27 24 22 19 16 21 25 29 35 37 39 43 44 46 49 49 49 48 47 46 45 44 43 43 43 44 46 46 45 44 42 43 46 50
19 24 27 28 23 24 25 26 27 26 25 19 20 20 16 18 23 25 29 35 35 41 42 46 48 48 50 51 51 49 47 45 44 44 44 45 45 44 44 45 45 49 50 47
23 19 19 28 30 30 29 28 29 31 31 28 26 24 13 21 22 22 25 30 29 34 40 39 41 44 46 47 51 51 48 44 45 45 45 45 46 46 45 47 48 48 49 50
21 21 22 25 31 34 38 37 33 32 28 26 24 22 15 18 21 22 24 30 34 36 32 34 35 38 44 45 43 43 48 42 42 44 44 44 43 43 45 49 49 47 45 42
20 22 22 19 24 28 31 33 31 34 29 29 21 21 20 21 23 26 26 27 30 32 32 34 30 33 39 47 47 44 40 41 40 40 41 40 43 46 45 44 42 40 39 37
18 20 18 22 20 20 25 30 32 32 32 30 26 24 22 25 25 22 23 27 31 33 36 35 29 30 37 40 40 43 42 35 37 38 38 45 42 41 39 37 36 35 35 35
14 15 16 16 18 18 19 17 20 25 26 28 34 21 23 22 27 21 25 28 30 32 32 33 31 27 28 31 31 34 39 42 43 42 35 37 36 34 33 32 33 33 34 35
14 15 16 14 18 20 15 17 18 19 20 22 21 19 21 20 21 22 21 21 22 21 22 29 27 28 29 28 26 26 28 29 30 30 31 31 30 29 30 31 32 32 32 31
14 15 14 15 16 17 18 19 22 23 20 23 20 18 19 20 18 16 17 19 21 24 23 20 21 20 21 23 28 27 26 29 29 28 31 28 29 29 30 28 26 24 24 25
16 17 17 16 16 16 14 18 20 22 23 27 23 22 23 21 17 20 25 26 18 18 23 23 20 23 24 23 22 23 25 26 26 27 28 29 28 26 25 24 22 22 21 21
19 18 18 18 18 16 17 17 19 21 20 23 24 22 23 21 24 27 27 26 21 19 19 20 23 24 23 22 21 21 22 22 23 23 22 22 22 23 21 20 19 19 20 21
21 20 19 19 19 18 18 19 20 20 18 18 21 21 22 21 23 25 24 23 22 22 22 22 23 22 23 24 25 25 26 25 25 24 23 21 21 22 22 21 19 20 20 21
22 21 20 20 19 20 19 19 20 21 20 18 19 19 19 20 23 23 21 21 21 23 24 24 23 24 23 22 23 26 28 24 23 24 23 22 22 22 23 23 22 21 21 21
23 24 22 22 23 23 22 21 21 21 20 20 20 20 19 21 21 22 23 24 23 22 23 22 21 21 21 22 23 23 24 22 23 24 24 24 25 25 25 25 23 22 23 22
29 29 26 23 23 24 22 21 21 21 21 22 22 23 22 21 21 22 23 22 23 24 25 21 25 23 24 25 25 24 24 26 25 26 27 29 28 28 28 26 24 24 24 23
24 28 28 26 27 25 23 24 23 23 22 22 23 24 24 24 24 24 23 25 26 24 25 27 28 29 30 29 27 26 27 26 26 25 27 28 29 29 30 28 25 25 25 25

GFSCGP_500_spd_075.txt.gz
Wind_Speed
49 48 40 53 52 47 42 39 32 38 38 45 54 52 47 63 68 61 61 59 58 56 53 48 49 48 45 45 47 46 45 44 42 41 40 39 38 38 37 38 38 38 37 36
49 51 39 49 51 47 42 38 39 33 37 36 46 48 48 46 62 66 67 59 58 55 54 54 54 52 52 52 52 51 49 47 46 45 44 42 41 40 40 40 40 40 41 41
42 38 27 41 53 47 41 35 32 30 32 33 33 39 51 46 49 61 53 54 57 53 50 52 54 55 56 55 54 53 52 51 49 48 46 44 44 43 43 43 43 43 44 44
46 39 29 36 49 46 38 34 28 29 28 30 32 38 41 52 42 59 60 54 49 51 50 55 56 60 61 58 57 56 55 54 52 50 49 48 47 46 46 46 46 47 47 46
44 44 26 36 41 44 38 32 26 25 27 24 25 32 30 43 48 41 52 52 56 53 53 52 52 52 53 54 57 59 60 57 55 54 53 52 51 50 49 49 49 49 48 48
46 39 26 35 39 39 35 32 29 26 28 25 19 21 24 29 40 43 39 44 47 52 51 52 50 48 46 48 49 50 52 53 53 52 52 52 51 51 51 50 49 48 49 49
48 38 25 30 32 34 34 33 33 30 27 23 14 9 12 14 19 31 39 43 45 48 54 55 56 52 48 47 48 49 50 51 53 54 55 55 55 53 52 52 52 51 51 51
40 34 23 30 29 30 37 35 34 33 30 20 14 9 10 9 15 26 30 38 40 43 52 52 51 50 50 48 48 47 47 48 50 51 53 54 55 55 55 54 53 54 53 52
31 30 25 22 25 30 32 36 37 34 30 22 19 13 9 13 15 20 22 27 36 40 43 52 53 54 52 49 49 49 49 48 50 52 54 55 55 55 55 54 54 53 52 50
26 22 27 23 24 25 28 30 32 32 29 25 22 19 14 17 18 21 25 27 29 35 40 44 46 45 48 50 50 49 48 46 46 48 49 51 52 52 51 52 51 49 48 47
25 27 25 25 23 22 28 30 31 30 29 28 25 22 18 20 22 22 24 25 28 31 38 43 48 50 50 51 53 54 53 50 48 47 47 47 48 48 48 47 46 46 45 43
18 24 24 22 19 19 22 27 30 31 31 29 26 23 20 24 24 23 23 24 24 27 33 39 45 51 53 55 54 54 54 53 51 50 48 47 47 46 45 44 44 43 42 41
19 22 21 21 24 22 25 26 28 30 30 30 28 25 18 19 23 22 25 24 25 25 30 34 38 44 50 51 51 52 51 51 51 51 50 48 47 45 44 44 44 43 42 42
18 21 24 23 23 27 27 25 27 28 32 31 29 27 24 21 26 26 25 28 27 27 31 34 37 39 40 43 47 50 50 50 51 52 53 51 48 45 43 42 41 41 40 42
21 22 22 23 25 28 30 32 34 34 34 35 30 30 21 26 28 28 27 27 29 29 33 36 37 38 40 40 44 47 45 47 48 48 49 50 50 45 44 43 41 41 43 43
20 22 23 22 23 24 25 29 32 35 36 40 38 31 22 25 32 32 31 30 29 29 32 35 37 39 40 38 39 40 41 44 46 45 45 42 42 39 37 37 40 45 44 41
16 20 22 23 25 26 23 24 27 29 32 34 35 30 29 21 25 30 30 28 27 30 32 33 35 38 40 41 41 39 40 42 43 41 42 43 39 41 46 50 38 39 40 39
15 17 18 16 19 21 18 19 20 21 21 25 27 27 26 28 32 26 24 27 28 30 32 31 32 35 35 35 34 35 32 38 37 37 40 43 45 41 35 35 37 37 35 34
17 17 16 16 16 17 17 17 18 18 20 24 19 19 19 22 22 20 17 19 24 25 21 23 24 23 26 29 32 32 32 29 28 27 27 27 30 30 30 32 31 31 30 31
17 17 17 17 16 15 13 17 18 20 21 23 22 21 21 22 17 22 21 22 23 22 18 21 25 25 22 20 22 19 21 32 28 26 28 27 25 26 29 30 31 33 31 28
20 20 18 19 19 15 16 16 18 21 20 20 20 21 21 22 22 24 24 23 24 23 21 21 22 24 25 22 21 22 21 22 23 25 26 26 27 28 29 28 27 26 25 24
23 22 20 20 20 18 17 18 19 19 20 20 20 20 20 21 22 23 25 26 25 25 23 23 22 22 22 22 23 22 22 23 25 24 24 23 23 23 22 22 22 22 23 22
25 25 24 23 21 22 20 18 18 19 20 19 19 20 20 20 22 23 24 23 22 22 22 23 24 24 24 24 25 23 23 24 28 30 29 26 24 24 24 23 22 23 24 24
25 26 24 24 24 26 25 22 21 19 19 20 20 20 20 21 21 23 23 23 23 21 21 23 24 24 23 21 22 23 24 25 22 23 26 25 25 25 25 25 25 25 26 27
30 31 30 28 25 30 27 27 24 21 20 20 20 20 20 21 21 22 23 23 23 23 25 25 26 24 21 22 24 23 23 24 25 23 24 26 26 27 28 28 29 29 29 29
16 20 25 26 30 31 29 28 26 25 24 22 22 21 21 21 22 22 24 24 24 26 26 24 26 26 29 22 22 27 26 28 26 27 25 26 28 27 27 30 31 31 30 31

GFSCGP_500_spd_078.txt.gz
Wind_Speed
36 50 47 58 58 54 49 40 40 39 38 39 45 50 42 44 60 61 63 64 61 55 54 50 49 48 44 42 45 46 44 45 44 42 40 39 39 39 38 37 37 36 36 36
44 39 44 55 54 52 48 41 32 33 39 37 45 47 47 44 52 63 61 61 59 56 52 50 50 49 49 45 42 43 44 44 45 43 43 42 42 42 41 40 40 39 39 39
42 37 34 49 51 45 45 38 35 28 31 35 42 46 47 41 39 62 62 57 56 54 54 54 52 50 49 50 47 44 44 45 45 44 44 43 43 44 44 44 43 43 43 42
47 44 32 34 48 45 41 37 32 31 29 28 33 41 50 47 45 39 63 63 57 55 55 53 54 57 54 52 50 49 49 49 50 49 48 48 48 48 48 47 46 46 45 45
43 38 25 29 40 44 38 34 28 26 28 27 29 31 36 42 44 44 46 65 69 62 60 55 55 54 55 56 52 53 55 55 53 51 50 51 50 50 49 49 48 48 48 48
42 13 19 28 34 42 39 33 30 27 27 26 23 24 23 26 34 44 51 41 62 65 66 57 56 56 55 51 55 57 58 60 59 57 54 53 53 54 53 53 54 54 53 53
36 22 21 23 30 35 39 35 32 29 27 24 22 19 11 20 29 38 40 56 43 49 56 50 48 50 51 52 51 54 55 56 55 54 54 56 58 59 58 56 55 55 55 55
37 27 18 25 26 28 37 35 34 32 30 22 21 17 12 17 23 27 34 46 46 39 40 51 51 54 54 55 51 50 50 49 49 50 50 50 52 54 54 55 55 55 55 56
39 24 22 23 26 29 33 35 35 33 31 24 22 21 15 17 15 19 23 26 34 41 45 44 46 49 53 53 53 53 53 50 49 49 51 51 52 52 52 52 53 54 55 56
35 26 19 21 23 26 26 30 33 33 33 29 27 24 21 18 16 17 19 21 23 25 30 36 40 42 53 56 57 56 56 53 53 49 49 50 51 52 53 55 56 57 57 56
34 25 19 22 22 22 24 26 32 35 36 32 30 28 21 20 19 18 17 16 21 24 25 28 34 43 47 56 56 55 54 53 53 53 53 52 51 51 53 54 55 54 52 50
25 23 17 21 17 18 18 23 26 29 30 31 31 30 26 24 23 22 22 18 17 20 25 29 31 36 41 46 50 61 62 56 57 56 56 55 54 53 53 53 52 51 49 47
21 19 24 22 21 20 19 17 22 26 28 30 31 33 26 25 20 22 24 24 23 21 22 27 33 35 38 42 47 51 53 54 55 56 57 57 56 54 55 54 53 51 48 46
15 17 22 22 21 21 21 21 23 27 32 32 33 32 25 24 24 24 29 29 27 26 25 26 28 32 37 40 42 46 50 54 56 56 56 55 53 54 54 54 54 50 47 45
21 21 23 25 25 23 25 26 28 30 28 30 26 33 27 25 29 30 32 32 29 28 28 29 30 31 33 38 40 40 42 44 46 49 51 51 52 51 50 49 48 47 46 44
19 21 24 24 23 24 26 28 30 32 33 35 36 35 33 29 31 31 31 33 32 31 29 31 32 31 34 37 40 41 42 43 44 45 46 47 47 46 46 45 43 41 43 41
15 17 22 25 27 26 25 25 27 28 29 33 39 36 39 36 36 34 33 32 35 32 33 31 31 31 31 34 37 40 41 43 45 46 47 47 46 47 44 44 39 40 40 40
16 18 20 21 24 28 24 25 27 28 27 29 29 32 34 31 29 33 32 31 32 35 36 29 29 31 33 34 35 36 37 39 40 41 44 47 44 43 43 42 44 44 48 52
17 20 21 21 22 24 22 23 25 23 23 25 24 24 24 26 25 28 36 40 38 33 30 31 29 30 32 30 28 32 37 40 40 37 34 37 37 34 33 34 35 32 32 33
17 18 20 20 21 21 17 20 23 23 24 23 23 23 24 25 25 28 28 29 30 30 26 24 24 25 26 25 25 24 23 23 22 29 27 32 28 28 29 34 37 35 32 32
21 21 20 22 22 19 20 20 21 22 22 22 23 23 24 24 26 27 27 25 23 24 26 25 23 23 24 25 27 24 25 23 22 21 23 26 30 33 29 29 29 29 29 30
27 25 22 25 25 21 21 22 22 22 21 21 21 22 22 21 24 27 29 29 28 27 27 27 26 25 25 25 26 27 28 25 25 23 24 26 24 25 26 26 26 26 26 26
26 27 27 26 25 25 23 22 22 22 22 21 21 22 23 22 22 24 26 27 27 27 26 26 27 28 28 27 26 25 24 25 27 26 26 28 30 30 30 27 25 24 25 26
24 25 23 24 25 27 25 24 23 22 23 24 22 22 22 24 23 22 24 25 25 25 24 23 24 26 27 27 27 26 27 28 26 25 25 24 23 26 30 29 27 25 25 25
25 28 30 30 30 33 31 29 26 25 25 24 24 23 23 23 23 23 23 24 24 23 21 22 23 23 24 24 25 26 25 26 27 26 25 25 25 24 27 29 28 28 28 27
20 19 22 20 22 25 28 32 32 32 28 25 24 24 24 22 23 23 24 24 25 25 26 26 26 25 27 28 27 27 29 32 27 29 27 27 27 27 26 27 32 32 30 31

GFSCGP_500_spd_081.txt.gz
Wind_Speed
40 43 31 31 40 48 51 48 43 46 41 37 37 41 45 48 46 51 51 55 64 63 60 55 54 51 48 46 44 41 39 39 40 40 41 41 40 39 38 37 37 37 35 35
42 36 30 40 43 52 54 47 49 46 41 37 39 39 47 45 43 48 53 53 57 64 62 59 55 53 49 48 47 45 43 42 43 43 43 41 41 41 39 39 39 38 39 38
41 34 35 33 43 49 51 45 40 41 39 44 43 36 35 44 41 37 46 51 52 58 61 61 56 52 50 49 48 47 45 42 45 44 45 44 39 41 42 41 41 40 40 41
33 37 29 23 40 48 46 41 39 28 33 35 38 32 36 42 49 39 38 52 55 55 57 59 55 55 51 51 49 49 47 48 42 42 41 42 41 43 41 41 42 43 44 45
31 30 31 27 37 44 45 43 38 30 23 29 31 31 33 35 42 48 47 44 55 60 59 57 55 52 55 51 49 49 48 46 47 48 45 45 45 45 46 46 45 46 47 47
32 28 22 26 35 45 38 39 35 29 29 25 25 29 30 30 34 41 47 46 41 55 59 52 54 51 51 52 55 53 50 49 51 50 50 50 51 51 50 50 50 50 51 50
34 20 20 20 23 38 42 36 28 28 28 28 26 27 24 23 27 33 37 44 46 37 60 62 55 54 50 49 50 51 52 56 59 56 55 55 55 56 56 56 56 54 54 55
31 24 20 22 16 25 34 37 30 32 29 26 26 25 21 19 23 29 32 38 39 39 41 48 63 66 62 55 54 56 57 58 57 55 57 58 60 60 59 59 59 58 58 56
24 18 20 19 18 22 31 34 34 32 32 30 21 22 17 22 19 17 23 29 35 37 43 43 46 47 59 60 62 57 53 50 52 53 55 53 53 53 53 53 51 52 53 55
22 19 18 20 18 22 24 29 31 32 32 30 27 22 22 20 16 18 17 18 26 32 35 35 44 47 39 53 55 53 54 54 56 56 54 52 50 50 50 50 52 53 52 52
18 13 14 19 22 18 22 24 30 33 36 33 28 26 25 21 22 22 20 18 18 22 27 33 35 36 39 42 47 53 54 51 54 55 54 54 54 53 53 54 52 53 54 55
29 17 14 13 18 18 19 21 27 31 32 34 32 30 29 26 25 23 21 20 19 16 18 24 30 35 41 45 47 44 52 54 61 65 62 61 57 55 54 54 55 55 54 53
31 24 18 16 17 17 17 17 21 24 28 32 31 29 36 30 28 25 28 25 23 20 18 19 22 27 30 35 41 47 47 47 57 64 63 61 57 56 57 58 57 56 55 54
22 21 25 22 22 18 19 19 19 23 27 27 29 29 34 25 28 29 32 32 29 28 24 23 21 23 26 31 37 40 43 44 46 48 51 53 54 54 54 54 54 53 53 52
14 21 23 27 26 25 23 22 22 24 20 27 24 29 28 29 30 32 37 32 33 28 28 27 25 23 24 26 31 38 42 44 46 45 45 45 46 47 49 51 53 55 54 51
16 16 18 22 25 25 26 25 26 27 26 30 31 30 30 30 30 36 38 37 36 32 30 31 28 28 29 28 30 33 36 38 39 42 43 43 45 46 46 46 47 47 46 45
14 19 23 24 24 26 26 26 26 28 29 32 35 35 35 37 34 35 35 37 36 32 32 32 33 34 33 29 28 30 32 34 36 38 39 41 42 43 46 47 46 47 48 45
15 18 20 22 26 29 29 28 30 31 31 32 33 35 34 33 33 34 38 39 39 37 34 34 36 35 36 34 29 29 30 31 33 35 38 41 45 45 42 43 45 45 43 44
18 20 21 23 24 25 25 25 28 30 30 31 32 32 30 30 29 31 32 34 37 38 37 38 37 35 35 31 30 33 35 34 34 36 38 38 40 39 39 35 36 38 40 40
22 22 23 23 26 26 24 23 26 28 30 27 28 28 27 27 28 30 27 30 34 37 40 41 39 35 32 33 29 29 27 28 27 26 27 29 29 32 33 33 27 29 29 32
24 24 24 25 27 24 24 24 25 27 29 25 27 28 28 28 29 30 32 33 32 31 30 30 33 33 28 25 25 26 27 29 26 26 25 23 23 23 27 32 32 33 33 32
28 30 27 28 30 28 25 26 26 27 28 28 27 27 27 28 29 28 29 29 29 29 28 28 27 29 29 29 30 30 30 29 29 27 25 24 25 25 27 25 26 30 28 25
25 27 29 27 29 30 30 29 28 28 28 28 28 28 27 27 27 28 28 30 31 32 32 32 32 32 32 33 34 34 31 28 27 26 26 26 28 30 26 25 27 30 29 27
24 27 26 26 24 29 30 28 29 29 28 28 27 25 26 26 26 26 27 27 29 30 31 31 31 30 30 31 33 34 32 29 29 29 28 29 28 26 26 25 23 25 27 29
22 24 26 25 26 32 33 33 32 31 30 29 29 28 28 27 26 27 27 26 28 28 27 27 28 28 29 29 29 29 29 29 29 29 29 28 28 29 27 25 25 25 29 27
21 22 26 25 27 27 24 24 24 26 29 31 33 32 28 28 27 26 27 27 27 28 27 26 27 27 27 27 28 29 29 28 28 28 30 34 32 30 30 28 27 27 26 25

GFSCGP_500_spd_084.txt.gz
Wind_Speed
45 43 48 35 42 35 33 40 49 53 45 34 39 44 42 44 42 45 55 54 52 51 62 68 58 52 50 47 47 45 42 39 40 38 36 36 38 39 39 38 36 35 33 33
34 35 43 36 38 40 41 36 31 45 45 39 38 42 39 42 40 42 46 55 45 49 51 61 65 54 51 49 46 44 41 40 38 37 37 37 36 39 41 39 37 35 35 36
34 30 34 31 37 40 41 45 29 36 36 37 34 38 37 36 36 39 44 49 49 44 44 50 63 61 52 50 49 47 45 39 40 41 37 37 40 40 40 41 38 36 36 37
33 23 28 24 31 39 40 39 43 38 35 32 31 33 31 32 29 35 40 46 46 46 47 46 47 58 65 54 46 47 46 44 44 42 39 38 40 41 40 42 39 39 36 38
35 36 46 31 29 30 39 40 41 35 30 33 36 34 34 35 33 30 43 43 42 44 46 51 44 50 52 59 55 48 46 47 47 46 44 43 39 38 37 38 37 35 40 42
30 29 25 23 30 37 27 33 41 39 28 30 33 34 35 36 37 33 36 43 40 38 38 48 47 46 49 49 51 53 55 49 48 47 45 44 45 45 44 44 45 45 45 46
30 29 19 12 13 35 39 33 36 34 32 28 27 30 28 35 36 28 26 31 41 46 42 40 45 47 47 47 49 49 51 55 53 48 46 46 47 48 49 50 50 50 50 51
23 19 15 18 18 21 25 27 30 34 33 27 25 24 25 22 22 23 28 29 33 42 48 46 46 41 48 52 50 50 45 47 51 55 54 53 54 55 55 56 54 56 56 56
18 12 12 15 15 22 27 29 33 30 30 29 28 26 24 17 20 22 21 23 27 32 38 46 52 46 39 50 48 51 55 49 51 50 49 50 51 52 56 56 56 59 60 59
14 15 16 17 11 13 21 33 34 33 28 27 27 17 17 17 19 17 17 15 15 21 32 36 42 44 33 40 45 54 60 58 57 56 55 59 59 52 51 52 53 53 52 50
15 14 17 21 15 16 18 20 27 31 32 23 24 27 19 17 19 20 19 18 17 17 19 27 38 40 42 39 43 49 42 54 60 57 58 58 56 56 53 55 56 51 50 50
13 10 9 12 14 13 13 17 25 27 27 28 27 26 27 23 23 23 22 21 20 19 17 18 23 30 36 40 42 42 48 45 46 52 51 55 57 56 51 54 54 55 54 55
16 9 9 10 13 16 12 13 16 22 26 28 28 29 31 31 29 27 26 29 26 23 21 19 17 20 23 29 37 43 48 50 49 53 56 51 56 65 62 55 61 64 59 57
18 21 15 11 10 11 13 16 19 23 24 21 26 27 31 33 29 28 30 35 32 29 26 22 20 20 20 22 26 31 35 39 44 49 52 54 55 49 48 50 53 53 55 55
16 22 25 23 23 19 18 18 20 21 14 22 16 22 24 30 29 29 32 36 32 33 31 26 22 20 22 22 23 24 27 31 35 39 41 40 41 43 43 42 42 42 44 46
13 15 21 23 24 26 27 25 24 23 21 25 24 24 22 25 28 28 31 36 35 34 33 28 28 27 23 25 27 25 25 29 34 36 38 39 37 35 35 37 38 41 43 44
14 17 20 20 20 22 27 24 27 28 28 28 29 26 25 29 30 31 33 33 35 34 36 36 32 33 32 30 32 29 28 31 33 36 37 37 37 37 36 36 37 39 40 42
13 15 18 20 23 25 24 25 27 30 31 31 29 28 30 29 30 32 33 35 38 40 38 36 34 35 34 35 34 30 29 30 32 33 33 34 35 36 37 38 40 42 43 41
19 20 21 21 21 22 23 25 27 29 29 32 32 33 33 34 34 34 34 33 35 37 38 39 38 38 39 37 32 30 31 31 30 32 35 34 36 37 38 40 40 40 40 40
21 23 22 24 25 26 22 21 25 27 28 28 30 31 31 31 31 33 33 30 31 32 34 37 39 39 38 36 36 33 31 30 31 32 29 28 29 30 30 31 30 32 32 34
23 25 24 26 28 27 26 22 24 26 27 26 26 27 29 29 29 28 30 30 30 29 31 34 35 36 36 36 37 35 29 29 28 25 27 28 26 26 24 25 25 22 24 29
23 22 21 24 28 30 28 29 29 29 29 28 28 28 29 29 29 28 29 30 30 31 30 34 34 31 27 29 29 27 26 28 29 29 28 29 29 26 24 25 24 26 25 25
20 22 23 24 25 25 26 30 31 31 31 31 30 30 30 30 30 29 28 29 29 30 30 30 31 30 29 29 28 28 30 32 33 32 31 29 29 28 27 27 27 26 25 22
17 17 18 21 21 27 29 30 32 33 32 32 32 31 31 30 29 28 27 27 27 29 29 30 31 32 31 31 31 32 34 35 36 35 32 30 29 28 29 27 26 24 25 23
18 19 22 23 25 27 28 30 30 30 32 34 34 32 31 31 30 30 29 28 27 27 29 28 28 29 30 31 31 32 32 33 33 33 32 31 30 29 28 25 26 26 25 26
20 24 27 30 32 34 36 40 40 35 33 32 31 33 35 37 33 29 28 28 28 28 28 28 28 28 28 29 29 30 31 32 32 31 31 31 31 30 28 31 30 30 30 27

GFSCGP_500_spd_087.txt.gz
Wind_Speed
43 36 37 42 39 36 49 56 49 53 55 43 37 27 36 33 42 40 46 55 51 49 48 48 53 57 57 58 54 49 47 42 41 41 42 39 37 37 39 40 39 37 35 32
38 36 36 36 44 39 37 44 46 59 49 37 35 29 33 32 43 41 39 43 47 45 46 46 51 57 52 58 59 52 49 49 47 41 40 37 36 37 37 39 37 35 35 36
40 33 29 34 37 42 33 35 44 34 34 37 39 24 27 34 35 40 43 42 45 43 45 48 49 54 55 53 62 54 52 46 52 42 40 38 37 37 38 38 37 37 38 39
36 36 30 27 28 28 27 25 29 34 37 35 40 34 25 31 33 34 41 41 40 42 41 42 49 53 54 56 57 60 47 45 45 40 38 37 35 37 35 33 34 34 32 33
33 35 35 24 24 31 30 31 26 22 26 37 27 30 29 32 34 33 34 34 33 34 39 38 49 44 46 51 56 56 62 47 46 45 45 43 41 39 39 38 36 34 33 33
32 33 31 28 28 26 30 30 28 23 25 30 29 24 28 30 29 29 28 28 29 28 32 36 43 50 44 44 49 50 53 56 49 47 43 45 44 45 45 43 43 40 39 39
38 30 29 23 26 29 30 37 36 35 32 28 28 29 29 31 30 26 27 28 25 26 30 37 39 41 46 45 45 45 46 50 54 59 55 48 47 46 48 47 46 45 46 45
24 25 22 21 23 28 32 28 29 31 28 30 27 30 26 28 27 26 29 31 32 29 30 35 44 41 43 43 45 45 46 48 48 50 49 53 56 50 49 48 50 51 50 50
13 11 10 12 21 33 31 29 26 31 34 30 26 24 21 26 25 24 28 28 27 32 34 35 36 45 45 39 38 42 50 50 51 48 47 48 50 52 56 55 52 54 55 52
14 12 14 13 16 24 36 32 29 28 30 30 27 24 24 18 17 19 21 21 22 26 30 34 35 37 40 44 46 46 43 50 51 49 52 50 46 50 52 49 50 51 52 51
9 8 14 14 11 13 22 24 25 26 28 28 28 25 24 16 18 21 21 19 19 20 19 22 24 29 38 40 40 46 46 45 47 49 53 65 60 57 55 54 55 57 54 54
6 7 12 12 9 10 14 17 22 27 27 28 26 24 26 25 20 22 22 22 22 21 19 19 18 16 23 35 40 39 38 41 46 52 48 48 57 63 65 60 58 57 57 54
6 3 2 7 9 10 12 13 18 21 24 24 24 26 24 27 26 24 23 26 26 25 23 21 20 18 17 21 26 38 38 43 45 50 47 48 47 57 64 65 62 49 54 67
12 16 17 7 5 7 10 12 16 20 24 22 27 26 28 27 29 30 30 31 32 31 30 27 23 21 20 20 19 23 29 33 39 43 46 49 48 46 51 51 53 55 55 55
18 13 12 16 13 8 10 13 15 17 14 20 14 20 22 27 30 29 30 32 34 32 28 28 25 22 20 22 24 23 23 25 29 31 32 35 39 40 40 40 41 43 47 48
12 12 13 18 22 21 20 22 22 21 19 21 18 19 17 24 26 25 25 27 29 31 29 29 31 28 27 25 23 26 28 28 26 26 27 29 32 35 38 38 36 38 38 38
11 15 14 15 18 21 20 19 24 28 26 26 26 19 24 23 25 26 26 27 28 30 30 30 31 30 32 30 29 29 30 31 30 29 28 29 31 36 38 37 36 36 36 37
10 11 13 16 19 22 24 22 22 23 24 26 28 28 27 27 25 27 28 28 29 30 32 34 34 34 32 32 34 33 33 34 32 32 31 31 32 33 35 35 35 37 38 39
16 16 18 18 18 19 20 22 22 24 25 28 30 32 31 30 30 31 31 31 31 31 33 35 38 38 38 38 39 39 38 35 33 32 32 33 32 33 35 36 37 38 39 40
18 19 18 19 21 22 20 20 22 26 26 27 29 31 32 33 33 32 31 30 30 31 32 34 35 36 37 37 39 42 40 37 34 32 31 33 35 34 33 31 31 31 30 31
18 20 22 23 22 22 24 23 22 24 26 27 29 31 33 33 34 32 31 31 30 31 32 31 30 29 30 30 31 34 36 36 36 33 34 34 31 27 29 29 28 28 28 27
16 18 20 21 23 23 23 25 25 26 29 32 32 32 32 32 32 32 32 31 30 31 32 32 31 30 30 30 30 31 31 32 31 31 32 32 30 28 28 29 30 28 27 26
14 12 14 14 16 18 19 21 24 28 28 31 34 33 35 34 35 33 33 32 31 30 30 30 30 30 30 29 30 34 30 29 28 29 31 32 31 29 27 27 29 29 27 29
17 17 17 20 23 25 27 30 33 35 34 34 34 32 35 35 35 35 33 32 32 31 29 30 30 30 30 29 29 28 28 29 31 31 32 33 33 31 30 28 28 29 29 27
24 20 21 22 25 26 29 33 33 35 43 47 39 36 36 36 36 35 34 33 32 31 30 29 29 30 30 29 28 29 30 31 31 31 30 30 31 31 30 29 30 30 30 26
29 30 30 31 34 35 34 36 41 44 49 48 47 46 38 40 35 36 38 35 33 33 31 30 28 29 30 30 29 28 28 29 29 30 29 29 29 29 30 31 31 31 28 28

GFSCGP_500_spd_090.txt.gz
Wind_Speed
33 41 40 47 49 55 63 63 57 40 33 49 57 60 40 59 59 58 55 49 54 52 50 48 45 44 45 44 41 41 45 51 47 47 33 31 29 32 36 37 37 37 39 37
31 40 39 43 40 52 51 58 61 41 44 45 56 45 45 41 55 56 60 54 52 54 51 50 48 44 44 42 41 44 47 48 51 46 44 44 40 39 39 41 39 37 38 40
35 41 27 40 44 38 45 58 59 46 30 46 49 55 53 32 33 48 51 51 58 54 52 52 48 45 43 44 43 43 47 46 50 49 47 45 46 45 40 37 36 36 36 37
32 42 30 22 40 33 36 40 53 41 26 31 41 44 46 35 31 34 36 36 38 48 55 51 46 47 47 47 47 45 44 49 51 53 51 49 50 53 50 41 38 37 36 36
27 31 29 23 33 29 32 31 36 39 30 24 41 38 28 27 32 28 26 33 38 38 40 45 47 48 51 50 48 48 47 47 53 56 51 55 56 43 44 40 39 38 37 32
24 30 27 27 30 29 24 24 28 30 30 30 29 23 34 21 19 25 32 35 37 37 39 40 41 43 46 46 46 46 42 46 52 56 55 55 57 55 54 50 46 44 40 37
20 15 15 20 21 25 18 27 31 15 16 23 29 20 16 25 22 25 28 28 29 32 32 33 33 32 34 34 40 45 45 45 48 54 54 53 58 56 52 52 53 49 45 40
25 18 16 17 20 25 26 24 24 25 26 17 25 27 20 26 28 26 28 27 31 30 30 30 30 30 31 32 36 40 51 47 47 48 54 53 55 47 48 49 47 49 53 54
22 17 17 16 19 15 27 29 29 29 22 20 20 23 23 22 23 25 27 29 29 29 30 32 31 30 31 35 37 39 43 51 49 50 49 52 48 57 55 56 54 54 56 56
8 8 10 14 18 19 21 24 25 29 28 25 22 23 24 27 26 28 31 31 31 32 33 34 33 33 34 36 40 44 47 49 51 52 52 53 52 51 50 47 50 54 51 48
4 2 8 10 16 22 24 25 25 23 30 28 29 27 24 24 24 25 25 27 30 31 31 29 28 32 34 34 40 45 49 51 51 49 49 53 53 53 52 52 57 57 57 56
4 3 7 9 9 16 26 34 32 29 27 27 29 28 26 22 24 25 25 26 26 24 23 23 22 22 22 24 28 34 42 47 51 53 53 48 50 56 57 54 58 57 60 56
10 9 6 4 5 4 10 16 21 24 25 25 27 29 28 25 27 26 26 27 28 27 26 25 23 22 21 21 23 25 28 34 45 47 47 46 49 59 57 59 52 52 48 54
5 6 9 5 3 6 11 12 16 21 25 26 28 27 27 25 26 30 31 30 29 28 29 27 25 24 24 25 26 25 24 24 27 33 42 42 42 47 56 55 52 52 53 55
14 17 14 10 9 7 8 8 9 9 13 20 17 26 27 29 29 30 32 36 37 36 34 32 30 30 30 30 30 28 27 26 25 26 28 34 35 36 42 47 49 46 52 49
10 9 9 9 12 15 16 18 19 17 17 18 20 22 22 25 28 30 30 30 32 35 33 33 33 35 34 32 31 30 30 29 29 28 27 27 27 28 29 32 33 35 37 38
4 6 10 12 13 14 16 19 20 21 22 27 26 24 28 26 28 29 27 27 28 30 34 33 31 32 33 32 34 33 35 34 31 32 32 32 32 32 32 32 34 36 38 38
7 8 10 11 15 17 20 20 22 23 24 25 26 29 31 34 34 33 33 33 34 33 33 34 34 33 35 36 35 34 36 37 37 36 35 36 37 36 35 34 34 35 35 35
6 6 8 11 14 18 21 23 23 24 25 26 29 31 32 34 34 36 37 36 36 37 35 35 35 35 34 37 40 41 40 40 40 40 39 38 38 38 36 35 37 36 36 38
12 9 9 10 12 15 20 22 23 26 29 30 31 32 34 34 34 35 36 37 37 38 37 38 40 39 38 36 38 41 43 45 46 46 44 42 39 38 38 37 37 37 37 33
13 13 14 13 12 12 17 20 21 20 23 29 31 33 34 35 37 37 37 37 37 36 37 38 38 38 37 36 34 34 36 39 43 44 42 39 38 39 38 37 36 33 31 30
16 18 17 17 15 15 16 15 16 18 20 23 26 30 32 35 39 40 40 38 38 38 37 36 36 35 35 34 34 32 30 31 33 34 35 36 38 38 39 38 34 31 31 32
16 17 16 17 18 19 19 22 25 27 29 29 28 31 33 34 36 38 41 41 40 38 37 37 35 34 33 34 33 34 33 34 34 34 35 36 35 36 39 34 32 31 29 31
19 19 20 21 23 26 27 28 28 30 31 33 39 42 49 48 44 39 36 36 38 39 37 37 36 35 34 33 33 32 33 33 31 36 37 35 35 36 35 35 34 30 30 31
21 24 25 25 26 28 30 32 31 32 35 38 40 49 47 49 48 38 38 36 34 34 36 36 34 33 34 33 33 33 32 32 33 32 33 32 31 31 30 31 32 31 32 31
23 25 27 29 31 31 31 32 34 35 39 40 46 52 56 52 44 34 40 37 33 34 35 34 34 33 32 32 32 32 32 32 32 33 33 32 31 31 31 30 30 29 29 29

GFSCGP_500_spd_093.txt.gz
Wind_Speed
17 24 19 25 44 53 55 64 68 56 48 36 61 51 66 50 52 58 60 57 53 47 48 45 40 39 43 43 39 34 33 31 31 33 22 28 33 33 28 33 32 29 30 30
13 13 23 30 42 51 54 59 54 56 38 49 51 43 66 64 52 51 59 57 55 52 45 44 47 44 41 38 33 34 31 32 34 35 35 32 37 39 35 31 31 32 34 37
22 25 25 33 42 45 53 56 55 63 45 24 31 40 52 55 61 57 55 54 56 54 51 48 47 47 45 41 40 38 34 34 34 33 36 37 37 40 39 43 39 37 34 36
15 30 23 33 38 38 49 54 52 62 34 18 20 35 43 43 36 53 61 51 47 52 52 47 47 48 46 44 41 38 36 34 34 37 38 37 40 44 43 42 45 43 41 38
35 30 15 28 27 35 39 47 49 42 39 22 14 34 39 42 39 27 37 47 51 54 56 53 49 49 48 45 42 39 38 38 37 39 42 40 41 43 44 46 46 44 44 48
12 15 20 19 28 20 30 33 41 34 46 25 7 31 28 34 33 30 31 38 50 53 52 53 57 59 52 48 43 41 44 44 44 41 40 41 44 46 46 42 42 41 43 48
15 12 19 24 34 24 24 25 26 26 32 36 17 20 31 26 33 35 37 31 33 37 39 35 37 43 48 48 49 47 48 49 44 43 41 39 44 47 49 45 45 43 43 47
19 18 20 26 19 23 25 22 24 25 23 27 19 18 25 29 35 34 36 33 34 32 33 36 39 42 45 46 48 45 43 42 41 42 43 43 45 44 48 53 50 46 52 50
16 15 16 20 21 18 19 26 18 21 20 16 13 19 20 21 29 27 30 34 34 33 33 34 35 36 37 39 41 41 42 43 42 43 45 48 46 49 52 52 52 51 45 45
13 11 13 16 18 11 16 18 16 18 17 16 11 13 25 21 27 31 26 28 30 29 31 33 33 33 36 39 42 42 42 44 45 45 47 49 52 55 55 55 54 58 55 59
8 6 5 8 11 12 15 17 20 20 20 20 15 17 19 25 27 26 27 30 31 33 35 37 38 39 40 42 42 43 44 45 46 49 51 53 51 54 56 56 58 57 57 48
9 10 9 5 6 12 17 19 21 23 22 23 25 24 22 24 26 28 28 31 34 37 37 36 36 38 41 42 43 43 45 46 46 47 50 53 54 55 54 55 55 61 61 61
11 13 11 9 6 3 8 16 22 21 23 21 21 24 26 26 27 25 26 28 29 31 34 35 36 36 35 35 36 36 36 36 35 36 39 44 51 56 58 56 57 53 57 59
0 4 8 7 2 4 7 10 12 19 24 28 30 27 26 29 31 32 31 29 31 34 35 36 36 36 35 34 32 32 31 29 28 28 30 33 38 45 50 52 52 50 54 60
2 4 4 5 6 6 6 7 7 7 11 14 20 30 31 33 35 37 37 40 40 39 39 38 39 38 36 34 34 33 33 32 32 31 30 30 28 30 40 45 48 50 49 47
2 3 3 2 4 8 11 11 11 12 16 16 18 19 26 28 33 38 41 42 39 39 40 39 40 40 40 39 39 38 37 36 37 36 34 32 32 29 29 31 34 33 32 33
3 4 5 6 8 9 10 14 16 18 19 22 22 24 26 28 30 30 30 31 33 34 34 36 41 42 43 42 42 41 41 39 39 39 37 35 35 34 33 32 31 31 31 31
2 1 4 7 11 11 16 16 18 22 25 27 27 27 28 30 36 38 39 37 36 34 35 36 36 36 38 39 41 42 41 41 41 42 44 42 41 39 37 37 36 37 37 35
12 10 6 4 7 8 12 16 18 19 23 27 30 32 32 31 34 38 43 45 46 45 42 40 40 40 39 41 42 43 43 42 43 43 45 46 45 44 43 42 42 41 41 40
12 13 10 6 5 6 9 14 15 18 19 26 29 32 35 36 36 38 42 45 45 45 45 44 44 44 44 44 42 42 44 46 47 48 49 48 48 48 47 45 43 41 42 41
12 12 11 10 5 7 10 7 10 12 16 21 24 28 32 35 41 42 42 43 45 46 47 48 48 48 48 48 47 47 46 46 46 46 49 50 51 50 49 48 45 43 43 41
11 12 14 15 12 11 14 14 16 16 18 21 23 31 36 37 38 40 38 38 42 46 47 47 46 45 45 46 45 44 42 43 43 41 40 41 42 43 43 44 44 43 43 42
12 14 15 17 16 19 18 19 20 21 22 25 27 30 36 44 48 49 48 48 46 43 43 47 46 44 43 43 42 41 40 41 41 38 36 37 38 39 40 41 41 43 42 41
16 17 18 19 21 23 25 26 26 25 26 28 29 34 40 43 50 54 53 54 55 51 45 41 43 44 41 40 39 39 39 39 39 39 37 36 38 39 40 40 39 42 43 43
19 20 21 23 24 26 29 31 31 31 31 34 37 41 48 53 59 64 61 60 59 47 39 36 34 38 39 37 37 38 38 38 37 37 37 36 32 31 33 37 38 39 38 36
21 23 25 24 27 29 32 33 33 34 34 37 40 44 48 56 62 51 32 31 39 34 35 35 30 31 33 34 35 34 34 35 36 37 37 37 37 39 42 40 35 33 31 30

GFSCGP_500_spd_096.txt.gz
Wind_Speed
7 1 7 19 24 44 52 51 55 64 62 66 34 21 58 59 61 59 54 50 46 42 39 37 33 29 30 33 30 27 31 28 19 9 33 32 33 33 31 33 34 37 31 30
5 10 5 11 28 39 48 47 55 65 56 39 30 29 40 68 61 57 56 51 46 43 40 38 36 36 34 31 32 32 30 29 19 19 26 33 30 18 28 34 35 25 24 32
4 4 5 14 26 39 44 43 47 57 61 30 25 33 39 50 59 56 52 49 48 44 42 40 36 35 34 36 31 31 27 25 24 23 24 23 19 24 18 29 32 32 30 31
8 8 20 16 28 34 35 35 46 47 30 35 9 24 31 50 49 52 50 46 45 44 48 46 43 39 36 36 36 31 36 28 31 26 24 23 28 28 28 25 26 30 32 34
21 28 19 17 25 29 26 30 41 40 37 39 3 23 30 30 47 51 42 38 41 42 47 47 46 45 43 40 39 37 37 31 31 28 30 29 32 30 31 30 31 33 35 34
25 20 20 23 27 20 20 28 39 37 43 37 8 15 21 29 32 54 52 46 47 46 45 47 45 45 44 42 39 38 39 35 35 34 34 31 32 33 34 33 31 34 36 37
23 20 21 20 18 16 18 27 27 32 36 34 5 8 12 23 29 33 28 25 34 47 49 47 45 44 45 45 46 45 43 40 40 38 39 38 38 38 36 30 33 34 39 31
18 17 17 22 16 13 15 22 23 20 23 27 15 3 15 15 17 23 28 29 28 29 39 47 48 46 45 46 49 51 48 48 46 46 44 43 44 40 38 36 34 33 38 41
14 13 17 18 17 20 17 19 17 16 15 25 16 9 7 19 24 24 29 28 27 28 26 30 36 37 39 36 35 36 39 44 45 45 46 43 40 40 40 39 38 39 42 44
17 13 11 11 22 19 20 21 17 15 15 15 11 14 14 14 25 27 26 30 31 34 33 33 33 37 41 40 39 38 39 39 41 41 42 41 42 43 44 45 46 46 45 50
14 16 13 12 12 14 18 15 15 17 16 17 15 14 20 19 20 23 26 28 33 39 40 36 36 37 38 36 35 36 38 39 41 42 42 44 46 47 47 48 50 53 55 58
19 17 15 12 10 11 10 9 11 15 12 13 12 11 13 18 24 25 29 30 31 35 40 39 37 34 36 37 37 39 42 43 44 45 45 48 49 49 52 54 56 57 58 57
16 18 15 14 11 8 4 2 5 8 12 16 20 22 21 23 23 26 29 33 35 35 36 39 39 39 40 41 44 45 46 47 48 49 48 50 53 54 55 57 57 58 57 58
6 9 11 10 9 8 5 1 3 7 11 15 18 22 24 24 29 32 32 34 38 39 39 39 43 43 43 44 45 48 49 50 49 50 51 52 50 47 43 39 41 45 49 50
4 5 6 6 7 3 2 2 4 6 7 7 12 16 25 31 32 34 36 40 41 41 42 42 43 43 45 46 48 50 50 48 47 46 44 42 39 37 33 33 34 33 36 38
6 6 5 3 1 1 3 4 5 8 11 13 14 15 17 20 23 26 32 37 40 45 46 46 47 48 49 49 49 49 49 48 46 43 42 40 39 37 36 36 35 33 32 33
5 1 0 0 0 2 4 6 9 11 14 16 17 20 22 25 27 28 30 32 34 39 45 50 51 51 51 51 51 51 52 51 49 47 46 44 42 40 39 40 38 37 35 33
16 14 11 6 4 3 3 7 8 12 16 19 22 25 26 26 29 33 36 37 40 42 42 43 46 49 48 50 53 55 55 54 52 50 48 47 46 44 43 43 42 40 40 39
14 15 13 12 13 10 9 6 4 5 4 9 15 19 25 29 31 34 39 41 44 47 48 50 50 48 47 48 49 47 48 49 49 48 48 48 48 48 48 47 46 46 45 44
11 11 9 9 8 6 6 4 4 2 4 6 13 16 14 21 24 32 40 43 46 52 53 54 55 54 55 55 51 47 47 48 48 48 47 44 44 46 47 48 48 49 48 47
6 7 7 6 5 3 5 5 3 8 8 11 12 12 14 20 26 34 42 47 52 53 51 55 56 54 55 55 53 51 49 47 48 47 47 46 46 47 47 49 51 51 51 50
8 9 9 11 10 8 11 11 10 12 14 16 18 21 23 31 36 37 42 49 57 53 51 50 50 50 52 53 54 53 51 50 48 48 47 47 48 48 47 45 46 48 48 49
12 14 14 16 17 19 18 18 16 18 19 21 23 26 29 31 38 42 50 58 60 60 58 55 55 50 45 42 47 50 50 48 46 45 46 45 43 43 43 42 42 44 45 44
16 18 18 18 21 22 23 23 24 25 26 27 29 30 34 37 41 50 56 61 66 64 66 66 58 55 48 44 44 45 46 46 44 43 44 44 42 41 41 42 41 41 41 40
20 20 21 22 23 24 27 29 30 31 33 33 35 35 37 43 50 59 63 65 50 35 37 51 61 54 45 41 43 43 43 42 40 40 41 40 40 40 39 39 39 37 38 37
22 23 23 23 25 28 30 33 35 36 36 35 36 36 39 45 51 57 59 47 35 34 33 35 31 35 33 34 33 36 38 38 36 37 38 38 37 37 38 38 35 40 36 36

GFSCGP_500_spd_099.txt.gz
Wind_Speed
8 6 8 7 14 22 15 42 47 43 39 47 66 51 27 52 51 51 45 47 40 45 40 43 44 34 36 37 29 31 24 24 22 34 36 36 35 42 38 40 34 34 31 34
13 6 8 8 17 25 18 42 39 40 37 45 63 42 27 45 50 52 48 46 37 40 51 39 30 34 29 31 26 27 25 27 30 29 24 39 39 39 31 36 40 34 36 37
16 11 4 5 25 16 26 38 37 36 34 53 60 50 30 33 60 51 50 51 45 40 39 41 35 36 25 28 24 25 22 24 24 24 23 26 40 37 41 29 35 38 39 37
19 14 12 19 22 22 28 38 26 26 36 34 48 16 21 35 43 53 53 52 47 42 34 32 32 23 24 28 30 23 16 21 19 21 22 25 25 31 29 30 25 31 38 39
25 25 26 26 23 24 28 28 19 22 29 23 11 7 6 31 47 47 49 50 46 43 40 36 34 29 26 28 26 24 26 23 22 22 22 19 23 25 24 27 25 24 27 30
26 26 31 31 24 21 20 16 25 22 30 30 11 13 12 21 29 48 49 43 40 37 35 38 36 36 36 36 35 33 31 28 23 24 26 26 27 24 25 24 26 27 24 21
20 23 27 24 19 17 15 12 18 27 36 31 7 5 12 8 19 34 40 41 30 29 30 31 32 33 34 36 36 37 38 36 29 26 29 31 30 33 30 29 28 25 23 28
23 23 21 20 12 16 15 16 15 25 34 21 19 6 5 15 17 31 39 38 40 36 32 36 39 37 33 33 33 33 34 37 35 36 39 37 36 37 33 33 33 30 28 31
19 21 18 16 16 14 12 16 16 12 17 16 11 7 7 11 11 17 28 37 31 30 25 22 25 34 39 41 43 43 41 41 42 44 47 46 43 41 39 37 38 33 32 32
18 15 12 17 15 18 21 19 13 14 11 13 7 4 4 10 11 9 15 19 24 23 21 23 23 24 29 34 39 40 39 37 34 36 38 39 40 40 39 37 36 37 37 38
19 21 19 17 22 22 21 21 15 12 10 7 5 4 3 2 5 15 16 18 22 24 27 27 27 26 27 29 34 38 39 38 36 36 35 36 37 38 38 40 39 40 43 45
20 19 19 18 19 20 22 20 18 13 9 9 7 7 9 9 10 11 14 18 18 20 24 27 30 33 33 33 33 35 37 37 38 38 39 39 38 39 39 41 44 45 48 48
22 22 20 25 20 17 18 15 15 13 12 13 9 6 5 7 8 13 18 20 23 26 28 31 33 35 37 37 37 38 39 41 41 43 43 42 43 43 44 46 48 48 49 51
15 18 19 20 19 19 16 12 8 5 5 6 10 13 15 16 18 20 23 23 24 29 33 36 40 41 40 41 43 44 44 44 45 46 46 46 47 47 46 47 48 47 45 43
10 13 15 15 15 13 11 9 5 2 1 4 7 12 14 17 21 25 28 30 34 37 39 40 43 47 48 48 47 48 49 49 50 49 48 46 45 46 46 45 42 39 37 35
12 12 11 8 9 8 6 4 3 5 6 9 13 16 17 18 19 22 25 30 36 40 45 50 51 51 52 55 56 56 55 53 51 50 49 48 46 44 43 40 39 37 36 35
16 15 14 12 10 7 4 6 7 9 11 14 17 22 24 27 30 31 31 32 33 35 37 39 45 53 55 56 57 58 61 62 59 56 54 51 49 47 45 43 42 41 39 38
21 20 20 17 15 14 14 13 10 8 4 6 8 13 21 26 28 28 33 36 39 41 42 45 46 48 51 56 60 62 61 60 59 58 57 57 54 52 50 49 47 45 43 41
15 15 15 14 13 12 8 7 6 5 5 3 3 4 7 14 20 24 24 29 32 38 44 48 49 52 56 58 60 59 61 62 59 59 60 60 59 57 55 53 52 50 49 49
10 10 7 7 5 5 5 1 2 1 9 6 9 14 18 22 23 24 31 37 40 44 47 50 59 58 59 58 61 60 61 59 61 59 59 61 62 61 57 56 55 54 54 52
4 5 5 4 3 3 3 5 7 9 10 15 17 18 21 23 26 27 32 36 40 47 47 57 63 70 67 59 56 59 58 58 60 59 56 54 54 53 52 51 49 50 49 48
10 10 10 10 9 8 12 10 13 15 16 18 21 22 24 27 29 33 36 40 45 50 59 67 72 76 69 64 60 54 53 54 56 57 56 55 54 53 50 49 49 48 47 45
13 15 15 15 15 16 16 16 17 20 22 24 25 26 27 28 31 33 37 42 47 56 64 72 74 70 73 71 64 55 52 49 48 50 51 51 52 51 50 47 46 45 45 45
17 18 19 21 21 21 22 22 23 24 27 28 29 30 32 31 33 34 39 44 49 58 64 62 44 39 37 45 61 59 51 50 41 39 42 45 45 46 46 44 43 42 42 42
18 20 21 22 24 24 25 25 27 29 31 33 34 35 38 37 34 35 40 47 54 56 65 46 38 40 39 40 34 37 47 45 39 34 35 38 40 41 43 41 40 41 41 40
20 22 23 23 25 25 26 28 30 32 34 37 38 38 39 39 36 35 40 47 50 55 50 40 35 39 36 32 29 27 35 33 31 33 34 36 37 40 38 34 37 38 39 39

GFSCGP_500_spd_102.txt.gz
Wind_Speed
18 9 7 9 14 10 10 14 22 35 40 43 39 31 43 47 49 38 55 46 56 39 29 30 26 21 24 26 32 39 45 47 42 45 44 55 56 59 53 54 50 44 43 41
14 4 11 6 7 13 10 23 34 30 37 36 33 33 43 42 35 43 42 44 56 63 31 35 37 31 41 32 33 42 40 33 38 45 42 52 48 50 60 57 43 46 47 46
16 3 8 7 19 17 24 33 33 30 33 31 29 45 56 43 37 39 43 40 44 47 35 35 41 46 33 37 44 37 39 41 42 49 32 38 40 39 51 54 46 44 44 40
9 9 10 21 18 28 31 27 29 24 24 20 29 29 50 22 24 49 44 44 42 44 35 30 39 45 33 23 36 34 33 32 26 26 32 31 29 34 45 48 44 44 42 42
22 28 22 25 31 35 31 26 25 20 14 17 26 13 35 27 22 51 43 41 41 40 31 29 20 27 16 19 27 21 23 31 37 23 27 28 26 21 34 50 36 44 44 37
30 32 33 31 32 30 27 25 22 21 20 17 26 13 19 18 33 44 46 45 37 40 31 27 23 19 18 14 14 13 17 30 23 25 20 24 22 22 18 32 40 22 34 30
27 29 34 29 26 20 21 30 23 21 30 24 15 14 18 23 27 32 43 39 37 32 29 30 25 23 27 24 23 23 23 25 28 30 22 22 21 20 22 24 25 22 22 25
22 25 20 22 19 21 22 19 25 29 23 15 11 15 22 18 18 22 31 34 36 34 31 28 27 23 23 25 24 28 31 30 30 32 30 30 28 27 25 27 24 23 24 27
19 20 21 23 24 23 23 18 19 26 24 11 23 20 22 16 16 15 25 29 31 26 22 26 23 23 27 27 29 28 29 31 31 31 31 33 34 35 35 35 32 31 31 31
18 14 20 19 23 29 27 16 17 17 23 11 19 23 19 17 13 10 12 20 22 30 33 31 31 25 23 25 28 31 35 35 35 37 38 38 39 41 41 40 41 40 38 37
20 17 22 26 28 30 25 21 14 10 8 8 14 15 18 16 12 8 6 10 17 24 22 22 22 21 22 24 26 28 32 36 38 38 39 38 39 38 38 39 40 41 40 39
22 23 21 24 24 27 27 25 18 13 13 8 12 10 13 12 10 6 4 2 7 12 16 20 23 24 26 28 29 30 30 30 32 35 37 39 41 39 37 35 37 39 41 40
21 22 24 22 26 27 28 26 22 16 13 6 3 6 8 12 13 12 9 9 12 15 17 21 26 28 28 29 32 34 36 37 36 36 38 40 42 41 41 40 41 41 42 42
19 21 24 25 25 24 25 23 19 17 4 2 2 4 6 9 11 14 17 20 23 25 27 28 28 30 35 37 39 40 41 40 41 42 42 44 44 44 43 44 44 45 47 45
18 18 20 23 25 24 21 17 16 13 8 2 7 10 13 18 23 24 27 30 34 37 40 39 39 41 42 42 43 45 47 48 48 48 48 49 48 49 49 49 48 47 47 47
16 15 15 15 14 14 13 11 9 4 2 10 8 9 13 16 19 22 24 25 29 32 35 41 46 47 48 52 53 53 54 54 55 56 53 53 53 54 53 51 49 49 45 44
23 19 18 18 15 14 14 12 8 7 6 3 2 4 9 12 15 19 21 22 25 33 37 41 45 48 50 53 52 53 56 57 57 58 57 58 58 56 55 53 52 50 48 46
25 23 23 21 23 23 22 20 18 15 12 8 5 7 8 9 11 16 20 23 26 30 33 39 46 48 50 55 60 62 60 58 58 59 60 61 60 58 57 56 54 53 50 50
17 17 17 15 14 17 14 12 10 10 8 7 8 7 9 10 12 19 23 26 32 36 40 46 50 54 57 60 60 59 59 66 67 62 60 59 60 62 61 57 55 56 55 53
10 10 7 8 6 6 5 4 2 2 7 11 11 12 15 21 23 30 29 32 33 38 41 46 54 60 67 70 70 74 73 68 65 67 69 65 61 57 57 58 61 59 57 56
8 7 6 6 5 5 6 7 6 10 10 15 18 21 23 26 29 32 35 38 42 45 49 52 57 63 70 72 77 80 81 79 75 68 66 65 63 64 56 55 51 52 53 53
7 8 8 7 7 8 11 12 12 14 18 19 21 23 26 28 31 37 38 39 40 42 47 54 61 65 69 76 83 85 87 89 87 75 62 59 62 57 64 53 55 51 51 50
8 10 10 11 11 11 12 13 15 18 20 22 23 25 27 29 31 33 33 34 35 38 44 54 60 63 67 79 68 53 51 54 58 68 60 58 57 54 51 57 49 50 46 46
11 13 13 13 14 14 15 16 17 18 21 23 26 27 30 33 34 34 35 34 34 36 45 52 59 59 69 55 49 44 51 47 41 44 50 56 51 46 48 47 46 49 44 45
15 16 16 16 16 16 17 18 19 22 24 26 30 32 33 36 39 39 39 36 34 38 47 53 58 55 53 41 51 49 39 39 38 42 42 47 45 39 42 40 43 45 42 43
17 18 18 18 20 20 20 21 22 25 28 30 33 36 38 40 43 42 40 38 34 39 46 53 53 56 46 40 46 42 25 27 30 40 33 39 37 32 35 38 36 41 41 40

GFSCGP_500_spd_105.txt.gz
Wind_Speed
21 25 15 18 20 16 12 14 13 12 24 32 40 35 39 37 37 40 54 52 50 39 49 63 20 15 18 17 22 22 30 41 46 45 63 62 57 53 55 54 53 53 54 54
18 15 12 17 8 8 9 6 12 18 11 24 28 33 33 29 32 37 48 42 50 48 47 54 28 22 22 29 31 34 42 40 52 47 40 62 58 58 56 58 59 57 60 60
16 9 10 2 5 10 8 25 19 17 17 22 25 24 27 24 29 39 26 45 44 50 62 43 24 31 34 33 30 34 35 37 55 53 34 35 55 52 56 56 56 54 55 55
6 8 9 3 10 18 21 17 22 25 22 19 19 18 16 19 28 34 25 43 43 54 56 40 29 30 39 32 40 27 32 39 55 48 41 33 32 38 40 47 48 51 51 53
13 17 32 32 30 27 25 26 33 27 17 15 16 13 14 26 25 22 29 47 43 41 54 46 28 19 33 35 31 36 34 34 37 41 44 40 46 41 38 49 46 49 52 54
27 30 28 30 32 31 23 27 22 23 17 22 15 12 20 22 9 25 38 38 44 35 33 44 28 20 22 21 25 40 42 35 33 34 31 33 31 41 37 37 30 39 56 55
31 27 21 20 25 18 25 17 19 18 21 20 12 7 19 16 10 27 34 34 29 30 28 26 27 17 16 19 15 17 22 21 24 31 18 21 19 25 27 28 27 21 40 57
9 15 16 17 16 19 15 16 24 18 27 24 17 20 17 16 19 24 37 34 27 24 35 24 18 15 12 13 13 14 16 12 17 19 13 18 15 15 17 22 27 21 19 23
18 20 22 25 24 21 18 27 26 31 31 27 24 22 20 23 24 24 28 35 36 26 17 22 15 11 13 8 13 14 15 20 21 23 29 23 23 25 24 27 26 23 26 24
18 19 28 25 26 21 25 27 30 35 37 30 29 28 28 21 23 25 24 25 24 24 19 14 12 11 11 12 17 20 22 21 22 25 28 28 27 29 30 33 34 34 35 35
12 18 28 24 26 25 27 28 24 31 28 29 31 33 33 29 25 21 14 13 14 10 10 14 17 18 17 17 17 19 25 25 26 29 32 33 34 36 37 39 41 40 39 40
24 26 27 25 29 26 26 21 20 17 18 17 18 23 24 24 21 18 15 16 13 9 6 10 12 15 18 19 20 21 23 25 26 29 30 33 37 39 39 41 42 40 42 42
20 20 25 28 27 26 22 17 13 14 12 12 13 12 9 9 9 10 9 7 5 3 7 11 12 16 20 21 22 22 25 28 31 32 34 35 36 36 37 40 42 41 40 40
19 26 23 28 30 26 24 17 14 10 10 9 10 9 7 6 2 2 2 4 7 11 21 26 26 31 33 34 33 35 36 37 37 38 40 40 40 42 43 42 43 44 44 44
18 21 26 26 26 24 20 15 10 5 6 5 7 9 10 8 5 7 9 11 12 15 18 21 25 28 31 33 36 39 42 43 45 46 46 47 48 49 49 48 49 49 49 48
19 18 19 18 17 17 17 14 9 6 1 3 8 8 11 12 12 13 16 20 21 21 21 21 24 27 29 33 36 39 41 46 50 53 53 53 53 53 54 55 56 54 53 52
22 20 19 16 14 12 13 12 10 10 12 11 11 12 11 10 11 14 18 21 24 27 28 31 34 35 38 42 44 47 49 45 46 49 56 59 61 60 59 58 58 57 58 57
25 24 23 22 18 17 17 15 14 13 11 8 5 3 1 1 2 3 7 10 14 22 32 39 42 45 49 52 55 56 56 61 62 55 51 55 60 63 64 64 60 59 59 58
17 16 16 15 15 14 11 9 7 4 3 1 4 5 7 9 11 11 15 16 19 24 28 31 36 42 45 51 55 58 65 74 76 77 71 65 61 59 60 64 65 67 62 59
11 10 8 6 4 4 3 0 2 3 7 10 12 13 15 16 18 21 21 26 27 29 32 34 37 42 47 52 56 56 62 69 83 88 86 87 82 70 65 63 61 65 65 67
7 6 5 3 2 3 4 5 6 9 11 13 15 17 20 22 24 25 29 32 35 36 37 39 43 45 48 53 56 61 73 85 90 90 89 89 88 86 81 75 68 63 60 62
8 7 6 6 6 6 8 8 10 13 14 15 16 19 22 25 27 30 33 35 38 40 40 42 42 46 48 54 66 75 83 86 84 85 86 86 83 80 69 60 60 58 56 57
7 8 7 7 7 9 10 10 11 13 15 18 20 22 25 27 30 33 37 39 41 43 43 44 45 44 50 61 74 81 79 74 73 77 68 68 69 62 58 59 62 57 55 53
8 7 8 9 10 11 12 12 13 15 17 20 23 25 27 30 35 37 41 43 45 47 46 47 46 46 56 72 78 74 70 68 64 60 70 64 61 55 47 56 59 55 53 48
8 8 9 11 12 13 15 15 15 17 20 23 25 28 31 33 37 40 44 47 49 49 48 49 48 51 63 73 70 64 60 55 52 61 48 40 39 40 41 50 48 45 46 44
10 9 10 13 15 15 17 19 19 20 24 26 29 31 34 37 40 44 48 52 52 51 54 54 51 57 66 70 68 62 56 44 46 49 35 32 30 34 32 35 37 37 41 43

GFSCGP_500_spd_108.txt.gz
Wind_Speed
22 20 24 22 21 25 21 16 17 20 22 23 20 16 21 16 37 39 40 43 44 43 44 38 24 50 18 38 60 48 39 54 48 38 59 65 66 62 53 52 48 49 47 47
19 19 13 13 13 8 6 7 8 3 6 4 8 12 23 24 21 29 33 34 36 39 50 36 35 36 24 18 37 55 51 39 37 39 40 66 73 64 58 56 54 52 51 52
12 8 4 4 6 4 8 11 6 11 19 19 16 7 15 15 13 17 25 26 30 44 46 32 38 31 32 22 29 36 37 36 36 40 37 44 46 62 60 57 58 57 55 55
11 5 3 8 15 17 17 18 16 20 19 17 14 14 10 8 12 14 25 25 31 35 38 32 35 37 24 21 36 33 40 35 38 47 42 39 43 38 38 35 46 53 48 53
22 25 24 21 19 21 23 14 26 30 21 15 12 11 14 7 15 18 18 22 31 43 38 30 26 36 21 25 31 29 39 39 38 39 43 43 41 42 47 41 53 35 43 40
23 22 23 24 22 24 21 20 6 8 6 6 2 8 3 5 11 15 10 12 38 40 38 34 25 29 29 16 29 22 32 35 30 40 42 40 37 35 34 31 49 47 46 52
16 13 15 15 17 16 13 17 13 13 13 10 9 11 18 17 14 17 20 31 41 39 31 23 28 19 10 16 21 23 27 33 28 30 33 42 31 32 44 44 42 35 38 39
8 10 11 14 13 11 17 20 23 15 13 5 19 12 13 8 16 14 23 30 31 28 18 17 20 11 16 15 10 25 16 19 25 18 24 29 17 26 18 46 49 56 43 37
13 20 16 14 15 20 22 25 24 22 16 22 24 25 25 22 23 22 23 24 29 17 10 12 4 1 1 5 8 5 4 4 4 13 11 14 15 15 18 16 22 19 24 24
15 23 20 22 25 29 43 42 38 31 34 29 22 21 24 23 29 25 26 26 17 14 9 5 5 1 3 4 8 14 18 16 14 16 19 16 13 14 20 21 24 28 31 29
16 22 30 32 29 35 36 33 33 35 36 39 39 42 29 14 33 21 27 25 22 19 3 5 4 0 3 7 10 11 9 11 15 17 18 21 22 23 23 27 27 27 29 30
20 24 22 24 26 28 27 26 24 26 29 28 31 34 34 31 30 27 26 23 19 18 16 13 10 7 7 7 8 9 12 14 17 19 21 23 25 27 29 33 34 35 40 39
24 22 23 21 20 20 20 20 20 20 21 20 19 23 20 19 17 17 16 14 11 9 5 4 6 9 9 11 14 18 21 21 22 24 26 26 27 30 31 32 34 39 42 42
24 22 20 21 20 19 16 15 15 15 15 14 15 13 14 13 11 10 8 8 7 2 5 7 11 12 14 17 19 21 24 27 29 31 34 37 39 40 39 39 39 41 42 42
21 22 19 19 16 13 11 9 9 8 9 9 9 9 10 11 9 7 3 3 3 6 9 9 6 8 11 13 18 20 22 25 30 34 38 41 44 46 47 48 48 48 49 48
19 16 14 12 10 8 7 7 9 12 15 15 16 14 16 16 15 14 11 9 7 7 9 11 13 16 19 22 27 29 31 34 37 39 41 42 41 44 49 53 56 56 56 56
17 14 13 12 10 9 11 12 14 16 18 19 19 20 21 22 20 19 19 18 17 19 21 22 24 24 27 31 33 37 41 46 46 48 49 52 53 51 51 51 52 57 59 60
23 22 21 20 18 19 18 19 18 16 14 14 14 14 15 16 18 20 18 19 19 22 24 25 27 31 34 37 40 43 48 51 54 56 58 59 59 61 63 61 58 54 56 58
16 15 14 13 12 10 9 8 8 8 8 11 13 15 18 21 21 23 29 32 32 30 32 34 36 39 44 49 54 58 58 59 61 63 64 67 71 73 75 75 72 67 62 62
10 9 8 7 6 7 9 8 9 8 9 14 16 16 18 19 22 24 25 28 32 36 38 43 47 51 55 59 63 67 67 65 67 70 74 76 81 84 84 81 78 72 64 60
10 9 8 8 7 8 9 8 8 10 9 12 14 16 17 18 19 20 22 24 28 33 38 45 48 52 59 63 65 66 68 71 76 81 86 87 86 81 79 79 74 70 66 61
8 7 7 7 7 7 7 6 7 7 9 11 12 13 14 15 18 21 24 26 30 34 38 41 46 53 58 63 66 68 74 78 83 88 90 90 86 80 74 73 69 66 63 56
5 5 5 5 6 7 8 8 7 8 9 9 13 15 16 18 20 23 27 31 34 39 44 49 55 59 62 67 70 65 69 78 82 82 81 79 77 69 64 63 61 61 62 58
8 7 7 8 8 9 9 10 11 11 12 13 15 17 18 21 23 27 30 35 40 45 51 56 61 65 71 72 64 63 69 74 72 71 69 63 56 58 58 63 66 64 61 59
11 10 10 10 12 13 13 13 14 14 15 17 20 22 23 25 29 31 35 39 44 50 55 61 65 72 73 67 61 58 61 63 64 64 58 48 55 51 56 48 41 37 37 44
14 12 12 13 14 15 17 16 16 17 18 21 22 25 27 29 33 35 38 43 49 55 62 67 73 76 74 68 61 58 60 61 60 57 49 46 38 44 38 31 26 25 29 39

GFSCGP_500_spd_111.txt.gz
Wind_Speed
28 27 25 24 26 19 14 5 2 13 18 22 20 23 27 32 38 35 47 58 53 51 53 51 51 48 50 47 44 30 33 65 63 56 58 76 62 68 69 60 57 54 52 50
18 12 7 4 1 3 10 11 6 6 7 11 9 8 8 11 11 13 21 28 36 41 43 43 46 43 41 34 37 22 33 57 48 42 52 54 45 53 59 58 56 55 54 54
4 11 14 14 11 8 7 7 11 15 16 14 17 20 22 20 12 8 16 19 26 29 31 32 33 34 30 35 31 22 27 56 42 48 48 47 40 41 55 57 55 51 58 59
22 21 19 18 20 19 20 18 14 14 18 22 26 27 13 9 11 11 8 15 19 23 26 27 32 33 32 40 27 30 32 42 57 51 52 42 43 44 46 47 48 51 49 59
20 17 19 20 19 19 21 18 16 15 16 16 19 14 9 6 5 8 15 17 16 21 27 34 38 33 23 33 32 31 31 38 44 46 41 43 41 42 48 56 58 46 61 59
17 13 14 14 13 18 18 20 21 22 8 15 7 5 5 1 4 12 14 17 18 24 35 33 25 5 15 25 14 22 28 27 33 32 35 40 39 39 38 39 41 37 32 28
8 9 12 14 19 15 24 22 11 21 23 16 8 5 4 6 12 17 21 20 21 34 32 22 8 17 11 4 19 21 15 25 28 24 37 39 40 36 40 40 35 38 39 43
10 10 13 12 15 15 20 14 6 13 6 6 11 10 14 14 22 27 31 23 25 26 24 18 23 6 8 5 17 27 27 25 30 28 30 35 35 30 42 31 39 41 37 41
12 12 13 13 13 14 15 15 11 14 20 19 19 14 15 28 30 31 20 37 23 23 8 22 22 14 13 9 12 14 17 19 19 13 17 23 29 34 21 21 38 45 37 36
16 18 18 19 22 19 18 18 20 18 25 28 19 21 18 13 29 30 22 25 24 14 21 20 19 17 14 8 12 7 6 13 10 8 3 6 12 16 16 16 11 25 30 30
32 32 30 27 28 29 31 34 36 36 30 32 32 25 21 33 32 26 22 24 12 10 17 20 17 18 19 16 13 11 12 13 14 16 17 19 17 19 20 20 20 18 19 24
19 23 23 22 24 25 25 25 24 29 34 30 38 40 31 21 23 25 13 11 22 22 26 23 21 17 11 8 6 3 3 4 5 6 8 11 16 19 22 24 27 29 27 28
16 15 13 16 16 19 19 21 19 17 18 15 18 32 37 35 29 27 24 19 14 16 15 15 11 7 4 3 3 5 8 11 12 14 17 19 22 23 26 28 32 34 34 37
15 13 13 14 15 17 17 18 17 16 14 19 19 19 21 21 20 16 13 11 9 8 5 6 5 1 1 5 6 8 10 13 17 22 26 29 31 34 36 38 39 40 42 42
9 10 12 14 16 18 17 17 15 16 21 21 22 24 22 19 17 15 14 13 11 8 11 12 9 10 9 9 12 12 14 18 22 26 29 32 35 36 38 40 43 47 50 51
12 13 14 15 17 19 19 21 23 25 25 25 27 25 24 23 21 19 17 14 9 9 10 12 9 9 15 13 14 19 22 26 30 33 38 41 44 47 48 50 51 51 49 50
23 22 21 22 23 22 23 23 23 22 22 20 19 17 15 12 12 11 9 6 7 9 9 10 14 16 16 18 22 28 32 35 39 44 46 48 50 52 56 61 61 61 61 61
20 20 20 18 17 18 15 15 14 13 14 14 13 13 14 15 17 16 16 16 15 15 17 18 18 21 26 29 33 35 38 45 48 53 55 58 59 60 62 64 65 68 70 70
12 12 11 11 10 10 8 10 11 12 16 14 15 17 17 17 17 18 19 20 20 20 18 19 23 27 32 37 38 45 51 58 62 66 68 67 66 69 69 70 72 74 75 74
9 8 9 9 10 10 12 12 14 15 15 17 16 16 16 14 15 17 16 15 17 18 22 27 31 35 40 44 48 54 60 66 72 79 79 76 73 73 76 79 77 78 78 77
11 10 8 7 6 7 7 7 8 9 10 12 15 17 18 18 19 16 17 20 21 26 31 34 37 39 46 52 58 63 70 76 81 87 88 80 78 79 79 75 74 68 67 68
9 9 9 9 10 10 10 9 9 9 10 11 13 14 15 18 19 20 21 25 28 29 29 35 39 46 50 55 61 68 75 81 87 95 85 79 75 72 72 65 56 50 51 53
11 11 10 9 9 9 11 11 12 12 10 11 11 15 15 17 18 21 23 25 29 33 36 40 43 47 52 58 65 70 77 83 92 87 79 74 68 66 66 61 52 50 48 49
12 11 12 12 13 13 13 14 15 15 14 14 15 17 18 19 21 23 25 27 30 33 37 41 48 55 60 65 70 77 84 89 83 72 67 67 68 65 61 57 44 46 47 48
13 14 12 15 15 17 16 17 18 18 17 17 18 21 20 21 22 24 27 30 34 37 41 45 51 56 60 66 74 82 88 84 75 66 63 64 63 58 51 44 39 35 33 41
15 16 14 16 17 17 19 19 20 19 19 19 20 21 22 23 24 26 29 32 37 40 45 49 56 58 63 70 79 84 87 77 68 62 62 60 54 46 41 35 29 27 33 28

GFSCGP_500_spd_114.txt.gz
Wind_Speed
30 31 33 34 25 19 12 13 15 19 16 16 22 27 38 51 62 68 70 70 71 75 72 69 67 65 62 58 55 51 49 44 46 43 38 49 69 76 66 60 68 69 69 61
26 21 8 3 3 5 2 6 3 3 3 8 11 19 13 7 12 40 50 57 60 60 67 67 65 63 60 58 52 52 44 37 37 28 29 47 53 71 63 63 67 74 63 60
5 12 14 13 10 9 12 13 14 13 6 16 19 20 19 17 14 8 12 20 35 44 51 57 56 58 57 55 49 49 40 43 34 30 39 36 52 63 79 76 70 74 69 67
15 14 17 15 12 11 16 15 14 15 12 11 13 13 12 14 13 12 12 11 12 23 31 36 36 41 41 41 41 42 32 30 25 28 39 32 42 49 59 67 71 68 73 67
15 13 11 13 14 22 23 22 18 14 10 10 5 7 7 8 11 13 14 18 19 18 21 20 19 20 26 29 31 32 29 26 35 30 35 40 45 55 48 44 43 48 59 59
5 7 11 12 17 21 21 20 14 18 16 14 9 9 5 8 6 9 13 19 21 22 23 19 20 18 21 17 25 36 36 37 29 37 35 48 46 41 40 41 38 45 47 44
5 8 7 11 12 15 11 14 17 15 16 13 14 12 10 5 7 14 18 21 21 21 25 23 14 19 8 9 15 33 24 30 30 31 31 41 43 43 41 40 40 41 47 47
9 10 7 12 14 9 11 15 13 10 7 6 12 13 8 12 19 22 22 20 24 12 16 20 17 15 15 16 17 16 21 26 21 15 29 30 34 47 42 43 47 53 50 42
7 8 9 11 9 6 6 7 5 8 8 10 14 12 13 18 16 27 32 20 18 24 18 17 22 24 23 24 25 29 20 24 22 28 28 27 30 34 27 31 26 38 37 36
11 12 13 17 10 10 16 8 10 12 14 16 15 16 17 14 17 15 32 23 21 21 24 26 21 25 21 17 8 13 17 20 20 10 16 24 21 24 23 29 28 30 40 35
18 16 17 20 21 20 24 20 25 15 16 13 20 27 26 30 24 32 26 24 22 18 25 26 28 25 27 29 24 24 21 20 9 17 17 19 7 5 22 25 18 16 19 20
14 13 15 16 16 18 20 26 23 18 24 19 14 25 24 23 25 21 14 21 20 25 26 24 19 20 18 14 12 10 9 9 7 4 3 9 11 19 21 23 27 24 24 27
11 11 13 14 15 19 15 18 19 17 16 21 23 19 21 26 27 30 27 25 24 20 13 15 14 14 12 11 9 6 4 2 2 5 9 12 14 17 22 26 29 33 36 37
13 15 17 18 18 15 18 18 21 21 22 18 19 18 21 22 21 18 16 15 13 11 10 9 9 12 14 14 12 10 8 8 9 11 14 17 20 23 27 31 36 41 44 45
12 15 16 19 19 21 24 27 29 28 28 27 24 24 22 21 19 19 17 15 15 14 15 15 12 11 12 8 8 9 9 9 11 13 18 21 25 30 34 38 41 44 48 49
21 23 24 25 23 25 26 25 24 25 24 23 22 23 21 20 19 17 16 15 13 11 11 12 12 11 6 10 14 12 15 17 23 28 32 34 35 39 41 45 48 52 54 56
21 20 20 19 19 19 20 19 19 19 19 18 17 18 17 16 15 15 16 13 11 9 8 9 11 11 14 16 16 19 23 26 31 34 39 43 46 51 54 56 59 63 68 71
15 15 15 15 15 14 13 12 15 16 15 15 14 15 15 14 13 12 10 10 10 9 10 12 12 13 13 16 19 23 29 38 43 48 51 54 59 63 66 71 71 71 72 70
9 10 9 10 10 10 9 9 9 12 13 14 13 13 12 12 12 11 10 10 11 12 12 11 11 13 20 27 31 37 42 46 50 56 62 68 72 78 81 83 86 76 71 68
10 10 9 9 8 9 9 9 7 7 8 8 9 9 9 9 8 8 7 7 7 9 13 15 18 24 29 33 38 41 45 48 53 60 67 71 80 87 91 96 89 82 74 64
12 12 12 11 12 11 11 10 9 8 7 5 5 6 6 6 7 6 8 9 11 14 19 23 26 29 34 38 42 46 51 56 59 65 72 78 88 94 99 96 82 73 67 65
11 12 13 13 14 14 14 13 12 12 12 12 10 9 11 13 13 13 13 16 18 22 26 29 32 35 38 43 47 51 54 59 63 70 74 82 89 93 99 85 76 71 66 65
11 12 13 14 15 15 15 16 17 17 15 15 15 16 16 19 19 20 21 22 23 25 28 32 35 38 40 45 49 52 55 59 65 72 78 87 91 97 81 73 68 67 67 64
12 12 13 14 16 18 19 19 19 20 19 18 18 19 21 24 23 24 24 25 27 30 32 36 40 44 47 50 55 57 61 65 73 78 87 93 91 77 69 67 66 63 56 48
19 15 15 15 16 18 20 20 21 21 21 20 19 20 21 23 24 25 26 27 30 33 36 39 43 46 49 54 58 62 68 74 79 85 93 95 83 75 70 65 59 50 40 33
22 20 19 19 19 18 21 21 21 21 20 19 20 21 24 25 26 26 27 29 31 34 37 40 44 49 53 57 62 66 72 77 83 91 96 89 79 75 68 58 42 35 26 18

GFSCGP_500_spd_117.txt.gz
Wind_Speed
30 33 31 33 36 34 15 7 16 24 25 20 26 36 35 48 64 70 75 75 74 74 74 74 70 65 64 66 67 64 65 61 53 49 45 44 46 43 42 48 45 55 50 57
30 28 26 12 8 4 6 11 17 20 16 8 3 3 4 9 15 34 65 73 73 71 73 73 76 69 64 66 66 63 58 56 54 52 45 41 45 42 42 46 47 50 63 53
11 14 14 12 4 6 12 14 15 11 10 6 8 13 13 14 13 12 21 46 66 72 68 67 70 71 67 65 63 60 57 54 52 47 42 41 41 40 40 42 49 52 58 54
15 13 11 10 12 10 14 15 17 18 13 15 17 15 16 16 15 8 8 4 17 41 61 62 60 65 64 64 61 59 56 51 46 41 40 35 39 42 40 35 41 46 58 51
11 11 12 11 11 9 8 7 15 14 14 12 16 18 13 11 13 10 5 10 7 3 29 40 48 53 50 56 58 55 50 44 38 33 32 33 36 37 32 28 40 45 57 59
8 10 6 16 11 13 13 18 15 11 12 14 16 21 15 10 6 5 6 11 15 18 20 19 19 19 21 33 39 39 34 33 30 28 26 26 28 33 35 35 36 48 62 63
9 9 10 14 15 17 15 20 19 19 15 14 16 19 16 12 8 6 9 10 18 27 32 27 21 13 12 19 18 25 27 25 25 25 27 29 30 35 44 42 47 47 51 55
9 7 12 10 15 15 17 18 20 17 21 19 18 15 11 13 15 14 18 22 23 21 22 12 11 15 8 11 6 12 25 30 28 32 31 36 41 32 37 34 33 37 39 41
6 9 12 12 11 12 15 16 14 15 18 22 18 16 15 13 13 8 16 11 4 5 23 23 7 13 12 18 20 16 21 20 20 22 27 30 42 44 46 38 40 35 38 38
13 12 15 21 19 15 17 17 11 14 16 18 18 15 12 12 11 9 17 27 27 23 25 23 20 21 27 27 28 22 21 23 21 19 20 20 18 24 29 33 30 30 26 37
15 14 14 18 21 16 15 20 19 17 17 22 26 26 21 22 21 25 30 34 31 32 21 27 27 23 27 34 32 25 20 25 23 25 15 13 15 16 7 16 21 23 21 22
11 11 12 13 13 13 18 19 19 17 16 20 20 20 22 22 23 22 24 29 30 27 19 16 16 20 21 19 22 25 24 25 25 21 25 23 18 19 16 14 15 17 23 27
12 12 15 16 13 14 12 16 19 18 15 10 14 14 24 22 21 22 32 32 23 17 15 16 18 17 15 15 19 19 17 21 20 18 14 15 13 10 10 12 15 19 23 26
14 13 19 21 25 19 11 13 16 17 20 21 19 15 15 17 18 21 19 16 16 15 14 14 16 14 15 17 14 14 14 11 10 12 10 12 12 14 17 20 23 26 29 34
17 20 19 22 25 25 25 24 24 24 22 18 14 10 12 15 13 13 13 15 14 17 17 16 14 14 16 15 14 11 10 11 13 13 15 17 19 22 24 28 31 35 38 41
17 17 17 18 19 20 20 20 19 19 19 18 15 14 15 20 21 17 15 15 13 14 13 14 14 14 13 9 8 8 8 9 13 18 21 24 27 30 34 36 40 45 50 54
12 11 11 13 14 14 15 15 15 16 16 16 15 13 14 14 16 15 16 16 15 14 13 11 9 8 7 7 9 11 14 19 23 26 29 32 35 39 45 50 54 58 64 67
10 10 10 10 9 9 9 10 10 11 11 11 11 12 12 11 12 12 11 11 10 9 7 5 5 6 11 14 18 21 24 27 30 32 35 37 41 46 49 55 62 67 74 79
11 11 10 9 8 8 7 5 6 7 6 6 7 7 7 7 5 4 4 4 2 2 5 5 7 12 16 19 22 26 29 32 35 36 39 42 48 55 62 67 74 78 87 92
10 10 11 12 12 10 10 8 6 4 2 1 1 1 1 2 2 3 4 4 4 7 10 14 16 18 21 23 25 27 31 35 39 43 47 53 60 66 71 78 81 88 97 105
9 10 11 12 12 11 11 10 10 10 7 7 6 5 4 6 8 10 11 12 14 15 16 16 16 20 23 26 32 35 38 41 45 46 49 56 61 69 74 82 87 96 103 108
13 13 13 12 13 13 13 12 12 12 11 11 11 12 13 13 13 15 16 17 17 17 18 20 23 26 29 32 35 38 40 44 47 50 55 62 68 72 80 87 96 103 108 95
14 15 16 16 17 16 16 15 15 15 16 15 13 14 15 17 17 18 19 19 19 19 20 22 26 30 33 36 39 43 44 47 46 49 54 61 66 74 82 89 100 102 90 80
20 20 16 17 21 19 21 20 19 18 18 17 17 17 18 19 21 22 23 23 23 24 26 28 31 34 37 39 41 43 45 48 49 53 60 66 72 81 89 100 99 89 74 63
27 25 22 21 23 19 22 23 25 24 23 22 20 20 20 21 23 26 26 26 27 28 30 32 34 36 39 40 43 46 48 51 53 58 65 71 76 85 93 98 90 72 60 48
38 33 28 23 28 26 26 24 24 26 27 27 26 25 25 25 25 27 28 28 28 29 32 33 35 38 40 43 46 49 52 55 56 61 67 73 81 88 95 91 75 59 48 35